[[{"header":{"parameterUnit":"m.s-1","parameterCategory":1,"la1":31.0,"la2":29.5877,"lo1":-88.7671,"lo2":-86.6584,"dy":0.0162,"dx":0.0185,"nx":115,"ny":88,"refTime":"2024-05-28T12:00:00:Z","depth":0,"parameterNumber":2,"parameterNumberName":"U-component_of_WINDS"},"data":[0.0,0.0,0.0,0.0,0.0,0.0,0.0,0.0,0.0,0.0,0.0,0.0,0.0,0.0,0.0,0.0,0.0,0.0,0.0,0.0,0.0,0.0,0.0,0.0,0.0,0.0,0.0,0.0,0.0,0.0,0.0,0.0,0.0,0.0,0.0,0.0,0.0,0.0,0.0,0.0,0.0,0.0,0.0,0.0,0.0,0.0,0.0,0.0,0.0,0.0,0.0,0.0,0.0,0.0,0.0,0.0,0.0,0.0,0.0,0.0,0.0,0.0,0.0,0.0,0.0,0.0,0.0,0.0,0.0,0.0,0.0,0.0,0.0,0.0,0.0,0.0,0.0,0.0,0.0,0.0,0.0,0.0,0.0,0.0,0.0,0.0,0.0,0.0,0.0,0.0,0.0,0.0,0.0,0.0,0.0,0.0,0.0,0.0,0.0,0.0,0.0,0.0,0.0,0.0,0.0,0.0,0.0,0.0,0.0,0.0,0.0,0.0,0.0,0.0,0.0,0.0,0.0,0.0,0.0,0.0,0.0,0.0,0.0,0.0,0.0,0.0,0.0,0.0,0.0,0.0,0.0,0.0,0.0,0.0,0.0,0.0,0.0,0.0,0.0,0.0,0.0,0.0,0.0,0.0,0.0,0.0,0.0,0.0,0.0,0.0,0.0,0.0,0.0,0.0,0.0,0.0,0.0,0.0,0.0,0.0,0.0,0.0,0.0,0.0,0.0,0.0,0.0,0.0,0.0,0.0,0.0,0.0,0.0,0.0,0.0,0.0,0.0,0.0,0.0,0.0,0.0,0.0,0.0,0.0,0.0,0.0,0.0,0.0,0.0,0.0,0.0,0.0,0.0,0.0,0.0,0.0,0.0,0.0,0.0,0.0,0.0,0.0,0.0,0.0,0.0,0.0,0.0,0.0,0.0,0.0,0.0,0.0,0.0,0.0,0.0,0.0,0.0,0.0,0.0,0.0,0.0,0.0,0.0,0.0,0.0,0.0,0.0,0.0,0.0,0.0,0.0,0.0,0.0,0.0,0.0,0.0,0.0,0.0,0.0,0.0,0.0,0.0,0.0,0.0,0.0,0.0,0.0,0.0,0.0,0.0,0.0,0.0,0.0,0.0,0.0,0.0,0.0,0.0,0.0,0.0,0.0,0.0,0.0,0.0,0.0,0.0,0.0,0.0,0.0,0.0,0.0,0.0,0.0,0.0,0.0,0.0,0.0,0.0,0.0,0.0,0.0,0.0,0.0,0.0,0.0,0.0,0.0,0.0,0.0,0.0,0.0,0.0,0.0,0.0,0.0,0.0,0.0,0.0,0.0,0.0,0.0,0.0,0.0,0.0,0.0,0.0,0.0,0.0,0.0,0.0,0.0,0.0,0.0,0.0,0.0,0.0,0.0,0.0,0.0,0.0,0.0,0.0,0.0,0.0,0.0,0.0,0.0,0.0,0.0,0.0,0.0,0.0,0.0,0.0,0.0,0.0,0.0,0.0,0.0,0.0,0.0,0.0,0.0,0.0,0.0,0.0,0.0,0.0,0.0,0.0,0.0,0.0,0.0,0.0,0.0,0.0,0.0,0.0,0.0,0.0,0.0,0.0,0.0,0.0,0.0,0.0,0.0,0.0,0.0,0.0,0.0,0.0,0.0,0.0,0.0,0.0,0.0,0.0,0.0,0.0,0.0,0.0,0.0,0.0,0.0,0.0,0.0,0.0,0.0,0.0,0.0,0.0,0.0,0.0,0.0,0.0,0.0,0.0,0.0,0.0,0.0,0.0,0.0,0.0,0.0,0.0,0.0,0.0,0.0,0.0,0.0,0.0,0.0,0.0,0.0,0.0,0.0,0.0,0.0,0.0,0.0,0.0,0.0,0.0,0.0,0.0,0.0,0.0,0.0,0.0,0.0,0.0,0.0,0.0,0.0,0.0,0.0,0.0,0.0,0.0,0.0,0.0,0.0,0.0,0.0,0.0,0.0,0.0,0.0,0.0,0.0,0.0,0.0,0.0,0.0,0.0,0.0,0.0,0.0,0.0,0.0,0.0,0.0,0.0,0.0,0.0,0.0,0.0,0.0,0.0,0.0,0.0,0.0,0.0,0.0,0.0,0.0,0.0,0.0,0.0,0.0,0.0,0.0,0.0,0.0,0.0,0.0,0.0,0.0,0.0,0.0,0.0,0.0,0.0,0.0,0.0,0.0,0.0,0.0,0.0,0.0,0.0,0.0,0.0,0.0,0.0,0.0,0.0,0.0,0.0,0.0,0.0,0.0,0.0,0.0,0.0,0.0,0.0,0.0,0.0,0.0,0.0,0.0,0.0,0.0,0.0,0.0,0.0,0.0,0.0,0.0,0.0,0.0,0.0,0.0,0.0,0.0,0.0,0.0,0.0,0.0,0.0,0.0,0.0,0.0,0.0,0.0,0.0,0.0,0.0,0.0,0.0,0.0,0.0,0.0,0.0,0.0,0.0,0.0,0.0,0.0,0.0,0.0,0.0,0.0,0.0,0.0,0.0,0.0,0.0,0.0,0.0,0.0,0.0,0.0,0.0,0.0,0.0,0.0,0.0,0.0,0.0,0.0,0.0,0.0,0.0,0.0,0.0,0.0,0.0,0.0,0.0,0.0,0.0,0.0,0.0,0.0,0.0,0.0,0.0,0.0,0.0,0.0,0.0,0.0,0.0,0.0,0.0,0.0,0.0,0.0,0.0,0.0,0.0,0.0,0.0,0.0,0.0,0.0,0.0,0.0,0.0,0.0,0.0,0.0,0.0,0.0,0.0,0.0,0.0,0.0,0.0,0.0,0.0,0.0,0.0,0.0,0.0,0.0,0.0,0.0,0.0,0.0,0.0,0.0,0.0,0.0,0.0,0.0,0.0,0.0,0.0,0.0,0.0,0.0,0.0,0.0,0.0,0.0,0.0,0.0,0.0,0.0,0.0,0.0,0.0,0.0,0.0,0.0,0.0,0.0,0.0,0.0,0.0,0.0,0.0,0.0,0.0,0.0,0.0,0.0,0.0,0.0,0.0,0.0,0.0,0.0,0.0,0.0,0.0,0.0,0.0,0.0,0.0,0.0,0.0,0.0,0.0,0.0,0.0,0.0,0.0,0.0,0.0,0.0,0.0,0.0,0.0,0.0,0.0,0.0,0.0,0.0,0.0,0.0,0.0,0.0,0.0,0.0,0.0,0.0,0.0,0.0,0.0,0.0,0.0,0.0,0.0,0.0,0.0,0.0,0.0,0.0,0.0,0.0,0.0,0.0,0.0,0.0,0.0,0.0,0.0,0.0,0.0,0.0,0.0,0.0,0.0,0.0,0.0,0.0,0.0,0.0,0.0,0.0,0.0,0.0,0.0,0.0,0.0,0.0,0.0,0.0,0.0,0.0,0.0,0.0,0.0,0.0,0.0,0.0,0.0,0.0,0.0,0.0,0.0,0.0,0.0,0.0,0.0,0.0,0.0,0.0,0.0,0.0,0.0,0.0,0.0,0.0,0.0,0.0,0.0,0.0,0.0,0.0,0.0,0.0,0.0,0.0,0.0,0.0,0.0,0.0,0.0,0.0,0.0,0.0,0.0,0.0,0.0,0.0,0.0,0.0,0.0,0.0,0.0,0.0,0.0,0.0,0.0,0.0,0.0,0.0,0.0,0.0,0.0,0.0,0.0,0.0,0.0,0.0,0.0,0.0,0.0,0.0,0.0,0.0,0.0,0.0,0.0,0.0,0.0,0.0,0.0,0.0,0.0,0.0,0.0,0.0,0.0,0.0,0.0,0.0,0.0,0.0,0.0,0.0,0.0,0.0,0.0,0.0,0.0,0.0,0.0,0.0,0.0,0.0,0.0,0.0,0.0,0.0,0.0,0.0,0.0,0.0,0.0,0.0,0.0,0.0,0.0,0.0,0.0,0.0,0.0,0.0,0.0,0.0,0.0,0.0,0.0,0.0,0.0,0.0,0.0,0.0,0.0,0.0,0.0,0.0,0.0,0.0,0.0,0.0,0.0,0.0,0.0,0.0,0.0,0.0,0.0,0.0,0.0,0.0,0.0,0.0,0.0,0.0,0.0,0.0,0.0,0.0,0.0,0.0,0.0,0.0,0.0,0.0,0.0,0.0,0.0,0.0,0.0,0.0,0.0,0.0,0.0,0.0,0.0,0.0,0.0,0.0,0.0,0.0,0.0,0.0,0.0,0.0,0.0,0.0,0.0,0.0,0.0,0.0,0.0,0.0,0.0,0.0,0.0,0.0,0.0,0.0,0.0,0.0,0.0,0.0,0.0,0.6883,0.0,0.0,0.0,0.0,0.0,0.0,0.0,0.0,0.0,0.0,0.0,0.0,0.0,0.0,0.0,0.0,0.0,0.0,0.0,0.0,0.0,0.0,0.0,0.0,0.0,0.0,0.0,0.0,0.0,0.0,0.0,0.0,0.0,0.0,0.0,0.0,0.0,0.0,0.0,0.0,0.0,0.0,0.0,0.0,0.0,0.0,0.0,0.0,0.0,0.0,0.0,0.0,0.0,0.0,0.0,0.0,0.0,0.0,0.0,0.0,0.0,0.0,0.0,0.0,0.0,0.0,0.0,0.0,0.0,0.0,0.0,0.0,0.0,0.0,0.0,0.0,0.0,0.0,0.0,0.0,0.0,0.0,0.0,0.0,0.0,0.0,0.0,0.0,0.0,0.0,0.0,0.0,0.0,0.0,0.0,0.0,0.0,0.0,0.0,0.0,0.0,0.0,0.0,0.0,0.0,0.0,0.0,0.0,0.0,0.0,-1.3445,-1.0853,-0.6797,-0.2916,0.0699,0.0,0.0,0.0,0.0,0.0,0.0,0.0,0.0,0.0,0.0,0.0,0.0,0.0,0.0,0.0,0.0,0.0,0.0,0.0,0.0,0.0,0.0,0.0,0.0,0.0,0.0,0.0,0.0,0.0,0.0,0.0,0.0,0.0,0.0,0.0,0.0,0.0,0.0,0.0,0.0,0.0,0.0,0.0,0.0,0.0,0.0,0.0,0.0,0.0,0.0,0.0,0.0,0.0,0.0,0.0,0.0,0.0,0.0,0.0,0.0,0.0,0.0,0.0,0.0,0.0,0.0,0.0,0.0,0.0,0.0,0.0,0.0,0.0,0.0,0.0,0.0,0.0,0.0,0.0,0.0,0.0,0.0,0.0,0.0,0.0,0.0,0.0,0.0,0.0,0.0,0.0,0.0,0.0,0.0,0.0,0.0,0.0,0.0,0.0,0.0,0.0,0.0,0.0,0.0,0.0,0.0,0.0,0.0,0.0,0.0,0.0,0.0,-1.5028,-1.1147,-0.5959,0.0,0.0,0.0,0.0,0.0,0.0,0.0,0.0,0.0,0.0,0.0,0.0,0.0,0.0,0.0,0.0,0.0,0.0,0.0,0.0,0.0,0.0,0.0,0.0,0.0,0.0,0.0,0.0,0.0,0.0,0.0,0.0,0.0,0.0,0.0,0.0,0.0,0.0,0.0,0.0,0.0,0.0,0.0,0.0,0.0,0.0,0.0,0.0,0.0,0.0,0.0,0.0,0.0,0.0,0.0,0.0,0.0,0.0,0.0,0.0,0.0,0.0,0.0,0.0,0.0,0.0,0.0,0.0,0.0,0.0,0.0,0.0,0.0,0.0,0.0,0.0,0.0,0.0,0.0,0.0,0.0,0.0,0.0,0.0,0.0,0.0,0.0,0.0,0.0,0.0,0.0,0.0,0.0,0.0,0.0,0.0,0.0,0.0,0.0,0.0,0.0,0.0,0.0,0.0,0.0,0.0,0.0,0.0,0.0,0.0,-2.9701,-3.0676,-2.7045,0.0,-1.6685,0.0,0.0,0.0,0.0,0.0,0.0,0.0,0.0,0.0,0.0,0.0,0.0,0.0,0.0,0.0,0.0,0.0,0.0,0.0,0.0,0.0,0.0,0.0,0.0,0.0,0.0,0.0,0.0,0.0,0.0,0.0,0.0,0.0,0.0,0.0,0.0,0.0,0.0,0.0,0.0,0.0,0.0,0.0,0.0,0.0,0.0,0.0,0.0,0.0,0.0,0.0,0.0,0.0,0.0,0.0,0.0,0.0,0.0,0.0,0.0,0.0,0.0,0.0,0.0,0.0,0.0,0.0,0.0,0.0,0.0,0.0,0.0,0.0,0.0,0.0,0.0,0.0,0.0,0.0,0.0,0.0,0.0,0.0,0.0,0.0,0.0,0.0,0.0,0.0,0.0,0.0,0.0,0.0,0.0,0.0,0.0,0.0,0.0,0.0,0.0,0.0,0.0,0.0,0.0,0.0,0.0,0.0,0.0,0.0,0.0,-3.3001,-3.3774,-3.0581,-2.6988,0.0,0.0,0.0,0.0,0.0,0.0,0.0,0.0,0.0,0.0,0.0,0.0,0.0,0.0,0.0,0.0,0.0,0.0,0.0,0.0,0.0,0.0,0.0,0.0,0.0,0.0,0.0,0.0,0.0,0.0,0.0,0.0,0.0,0.0,0.0,0.0,0.0,0.0,0.0,0.0,0.0,0.0,0.0,0.0,0.0,0.0,0.0,0.0,0.0,0.0,0.0,0.0,0.0,0.0,0.0,0.0,0.0,0.0,0.0,0.0,0.0,0.0,0.0,0.0,0.0,0.0,0.0,0.0,0.0,0.0,0.0,0.0,0.0,0.0,0.0,0.0,0.0,0.0,0.0,0.0,0.0,0.0,0.0,0.0,0.0,0.0,0.0,0.0,0.0,0.0,0.0,0.0,0.0,0.0,0.0,0.0,0.0,0.0,0.0,0.0,0.0,0.0,0.0,0.0,0.0,0.0,0.0,0.0,0.0,0.0,-3.427,-3.4649,-3.4632,-3.25,-3.0127,-2.7718,0.0,0.0,0.0,0.0,0.0,0.0,0.0,0.0,0.0,0.0,0.0,0.0,0.0,0.0,0.0,0.0,0.0,0.0,0.0,0.0,0.0,0.0,0.0,0.0,0.0,0.0,0.0,0.0,0.0,0.0,0.0,0.0,0.0,0.0,0.0,0.0,0.0,0.0,0.0,0.0,0.0,0.0,0.0,0.0,0.0,0.0,0.0,0.0,0.0,0.0,0.0,0.0,0.0,0.0,0.0,0.0,0.0,0.0,0.0,0.0,0.0,0.0,0.0,0.0,0.0,0.0,0.0,0.0,0.0,0.0,0.0,0.0,0.0,0.0,0.0,0.0,0.0,0.0,0.0,0.0,0.0,0.0,0.0,0.0,0.0,0.0,0.0,0.0,0.0,0.0,0.0,0.0,0.0,0.0,0.0,0.0,0.0,0.0,0.0,0.0,0.0,0.0,0.0,0.0,0.0,0.0,0.0,0.0,-3.4816,-3.5222,-3.5234,-3.4798,-3.4099,-3.2614,0.0,0.0,0.0,0.0,0.0,0.0,0.0,0.0,0.0,0.0,0.0,0.0,0.0,0.0,0.0,0.0,0.0,0.0,0.0,0.0,0.0,0.0,0.0,0.0,0.0,0.0,0.0,0.0,0.0,0.0,0.0,0.0,0.0,0.0,0.0,0.0,0.0,0.0,0.0,0.0,0.0,0.0,0.0,0.0,0.0,0.0,0.0,0.0,0.0,0.0,0.0,0.0,0.0,0.0,0.0,0.0,0.0,0.0,0.0,0.0,0.0,0.0,0.0,0.0,0.0,0.0,0.0,0.0,0.0,0.0,0.0,0.0,0.0,0.0,0.0,0.0,0.0,0.0,0.0,0.0,0.0,0.0,0.0,0.0,0.0,0.0,0.0,0.0,0.0,0.0,0.0,0.0,0.0,0.0,0.0,0.0,0.0,0.0,0.0,0.0,0.0,0.0,0.0,0.0,0.0,0.0,0.0,0.0,0.0,-3.5302,-3.5502,-3.5476,-3.5103,-3.4698,-3.3481,0.0,0.0,0.0,0.0,0.0,0.0,0.0,0.0,0.0,0.0,0.0,0.0,0.0,0.0,0.0,0.0,0.0,0.0,0.0,0.0,0.0,0.0,0.0,0.0,0.0,0.0,0.0,0.0,0.0,0.0,0.0,0.0,0.0,0.0,0.0,0.0,0.0,0.0,0.0,0.0,0.0,0.0,0.0,0.0,0.0,0.0,0.0,0.0,0.0,0.0,0.0,0.0,0.0,0.0,0.0,0.0,0.0,0.0,0.0,0.0,0.0,0.0,0.0,0.0,0.0,0.0,0.0,0.0,0.0,0.0,0.0,0.0,0.0,0.0,0.0,0.0,0.0,0.0,0.0,0.0,0.0,0.0,0.0,0.0,0.0,0.0,0.0,0.0,0.0,0.0,0.0,0.0,0.0,0.0,0.0,0.0,0.0,0.0,0.0,0.0,0.0,0.0,0.0,0.0,0.0,0.0,0.0,0.0,0.0,-3.6052,0.0,-3.6319,-3.584,-3.5541,-3.432,0.0,0.0,0.0,0.0,0.0,0.0,0.0,0.0,0.0,0.0,0.0,0.0,0.0,0.0,0.0,0.0,0.0,0.0,0.0,0.0,0.0,0.0,0.0,0.0,0.0,0.0,0.0,0.0,0.0,0.0,0.0,0.0,0.0,0.0,0.0,0.0,0.0,0.0,0.0,0.0,0.0,0.0,0.0,0.0,0.0,0.0,0.0,0.0,0.0,0.0,0.0,0.0,0.0,0.0,0.0,0.0,0.0,0.0,0.0,0.0,0.0,0.0,0.0,0.0,0.0,0.0,0.0,0.0,0.0,0.0,0.0,0.0,0.0,0.0,0.0,0.0,0.0,0.0,0.0,0.0,0.0,0.0,0.0,0.0,0.0,0.0,0.0,0.0,0.0,0.0,0.0,0.0,0.0,0.0,0.0,0.0,0.0,0.0,0.0,0.0,0.0,0.0,0.0,0.0,0.0,0.0,0.0,0.0,-3.6219,-3.7175,-3.7951,-3.7845,-3.6929,-3.6683,-3.5248,0.0,0.0,0.0,0.0,0.0,0.0,0.0,0.0,0.0,0.0,0.0,0.0,0.0,0.0,0.0,0.0,0.0,0.0,0.0,0.0,0.0,0.0,0.0,0.0,0.0,0.0,0.0,0.0,0.0,0.0,0.0,0.0,0.0,0.0,0.0,0.0,0.0,0.0,0.0,0.0,0.0,0.0,0.0,0.0,0.0,0.0,0.0,0.0,0.0,0.0,0.0,0.0,0.0,0.0,0.0,0.0,0.0,0.0,0.0,0.0,0.0,0.0,0.0,0.0,0.0,0.0,0.0,0.0,0.0,0.0,0.0,0.0,0.0,0.0,0.0,0.0,0.0,0.0,0.0,0.0,0.0,0.0,0.0,0.0,0.0,0.0,0.0,0.0,0.0,0.0,0.0,0.0,0.0,0.0,0.0,0.0,0.0,0.0,0.0,0.0,0.0,0.0,0.0,0.0,0.0,0.0,0.0,0.0,0.0,-3.8083,-3.8302,-3.8215,-3.7851,-3.7077,-3.591,0.0,0.0,0.0,0.0,0.0,0.0,0.0,0.0,0.0,0.0,0.0,0.0,0.0,0.0,0.0,0.0,0.0,0.0,0.0,0.0,0.0,0.0,0.0,0.0,0.0,0.0,0.0,0.0,0.0,0.0,0.0,0.0,0.0,0.0,0.0,0.0,0.0,0.0,0.0,0.0,0.0,0.0,0.0,0.0,0.0,0.0,0.0,0.0,0.0,0.0,0.0,0.0,0.0,0.0,0.0,0.0,0.0,0.0,0.0,0.0,0.0,0.0,0.0,0.0,0.0,0.0,0.0,0.0,0.0,0.0,0.0,0.0,0.0,0.0,0.0,0.0,0.0,0.0,0.0,0.0,0.0,0.0,0.0,0.0,0.0,0.0,0.0,0.0,0.0,0.0,0.0,0.0,0.0,0.0,0.0,0.0,0.0,0.0,0.0,0.0,0.0,0.0,0.0,0.0,0.0,0.0,0.0,0.0,0.0,-3.9453,-3.9432,-3.9213,-3.8799,-3.7793,-3.6603,-3.5171,0.0,0.0,0.0,0.0,0.0,0.0,0.0,0.0,0.0,0.0,0.0,0.0,0.0,0.0,0.0,0.0,0.0,0.0,0.0,0.0,0.0,0.0,0.0,0.0,0.0,0.0,0.0,0.0,0.0,0.0,0.0,0.0,0.0,0.0,0.0,0.0,0.0,0.0,0.0,0.0,0.0,0.0,0.0,0.0,0.0,0.0,0.0,0.0,0.0,0.0,0.0,0.0,0.0,0.0,0.0,0.0,0.0,0.0,0.0,0.0,0.0,0.0,0.0,0.0,0.0,0.0,0.0,0.0,0.0,0.0,0.0,0.0,0.0,0.0,0.0,0.0,0.0,0.0,0.0,0.0,0.0,0.0,0.0,0.0,0.0,0.0,0.0,0.0,0.0,0.0,0.0,0.0,0.0,0.0,0.0,0.0,0.0,0.0,0.0,0.0,0.0,0.0,0.0,0.0,0.0,0.0,0.0,0.0,-4.1092,-4.1111,-4.0632,-3.9696,-3.8762,-3.734,0.0,0.0,0.0,0.0,0.0,0.0,0.0,0.0,0.0,0.0,0.0,0.0,0.0,0.0,0.0,0.0,0.0,0.0,0.0,0.0,0.0,0.0,0.0,0.0,0.0,0.0,0.0,0.0,0.0,0.0,0.0,0.0,0.0,0.0,0.0,0.0,0.0,0.0,0.0,0.0,0.0,0.0,0.0,0.0,0.0,0.0,0.0,0.0,0.0,0.0,0.0,0.0,0.0,0.0,0.0,0.0,0.0,0.0,0.0,0.0,0.0,0.0,0.0,0.0,0.0,0.0,0.0,0.0,0.0,0.0,0.0,0.0,0.0,0.0,0.0,0.0,0.0,0.0,0.0,0.0,0.0,0.0,0.0,0.0,0.0,0.0,0.0,0.0,0.0,0.0,0.0,0.0,0.0,0.0,0.0,0.0,0.0,0.0,0.0,0.0,0.0,0.0,0.0,0.0,0.0,0.0,0.0,0.0,0.0,-4.1069,-4.1116,-4.0944,-4.0629,-3.9626,-3.8524,0.0,0.0,0.0,0.0,0.0,0.0,0.0,0.0,0.0,0.0,0.0,0.0,0.0,0.0,0.0,0.0,0.0,0.0,0.0,0.0,0.0,0.0,0.0,0.0,0.0,0.0,0.0,0.0,0.0,0.0,0.0,0.0,0.0,0.0,0.0,0.0,0.0,0.0,0.0,0.0,0.0,0.0,0.0,0.0,0.0,0.0,0.0,0.0,0.0,0.0,0.0,0.0,0.0,0.0,0.0,0.0,0.0,0.0,0.0,0.0,0.0,0.0,0.0,0.0,0.0,0.0,0.0,0.0,0.0,0.0,0.0,0.0,0.0,0.0,0.0,0.0,0.0,0.0,0.0,0.0,0.0,0.0,0.0,0.0,0.0,0.0,0.0,0.0,0.0,0.0,0.0,0.0,0.0,0.0,0.0,0.0,0.0,0.0,0.0,0.0,0.0,0.0,0.0,0.0,0.0,0.0,0.0,0.0,-4.0641,-4.1107,-4.1116,-4.1085,-4.0981,-4.0015,-3.9011,0.0,0.0,0.0,0.0,0.0,0.0,0.0,0.0,0.0,0.0,0.0,0.0,0.0,0.0,0.0,0.0,0.0,0.0,0.0,0.0,0.0,0.0,0.0,0.0,0.0,0.0,0.0,0.0,0.0,0.0,0.0,0.0,0.0,0.0,0.0,0.0,0.0,0.0,0.0,0.0,0.0,0.0,0.0,0.0,0.0,0.0,0.0,0.0,0.0,0.0,0.0,0.0,0.0,0.0,0.0,0.0,0.0,0.0,0.0,0.0,0.0,0.0,0.0,0.0,0.0,0.0,0.0,0.0,0.0,0.0,0.0,0.0,0.0,0.0,0.0,0.0,0.0,0.0,0.0,0.0,0.0,0.0,0.0,0.0,0.0,0.0,0.0,0.0,0.0,0.0,0.0,0.0,0.0,0.0,0.0,0.0,0.0,0.0,0.0,0.0,0.0,0.0,0.0,0.0,0.0,0.0,0.0,0.0,-4.111,-4.1108,-4.1116,-4.1074,-4.0994,-4.0166,-3.9185,0.0,0.0,0.0,0.0,0.0,0.0,0.0,0.0,0.0,0.0,0.0,0.0,0.0,0.0,0.0,0.0,0.0,0.0,0.0,0.0,0.0,0.0,0.0,0.0,0.0,0.0,0.0,0.0,0.0,0.0,0.0,0.0,0.0,0.0,0.0,0.0,0.0,0.0,0.0,0.0,0.0,0.0,0.0,0.0,0.0,0.0,0.0,0.0,0.0,0.0,0.0,0.0,0.0,0.0,0.0,0.0,0.0,0.0,0.0,0.0,0.0,0.0,0.0,0.0,0.0,0.0,0.0,0.0,0.0,0.0,0.0,0.0,0.0,0.0,0.0,0.0,0.0,0.0,0.0,0.0,0.0,0.0,0.0,0.0,0.0,0.0,0.0,0.0,0.0,0.0,0.0,0.0,0.0,0.0,0.0,0.0,0.0,0.0,0.0,0.0,0.0,0.0,0.0,0.0,0.0,0.0,0.0,0.0,-4.111,-4.1111,-4.1103,-4.1081,-4.0992,-4.071,-3.9769,0.0,0.0,0.0,0.0,0.0,0.0,0.0,0.0,0.0,0.0,0.0,0.0,0.0,0.0,0.0,0.0,0.0,0.0,0.0,0.0,0.0,0.0,0.0,0.0,0.0,0.0,0.0,0.0,0.0,0.0,0.0,0.0,0.0,0.0,0.0,0.0,0.0,0.0,0.0,0.0,0.0,0.0,0.0,0.0,0.0,0.0,0.0,0.0,-3.4604,0.0,0.0,0.0,0.0,0.0,0.0,0.0,0.0,0.0,0.0,0.0,0.0,0.0,0.0,0.0,0.0,0.0,0.0,0.0,0.0,0.0,0.0,0.0,0.0,0.0,0.0,0.0,0.0,0.0,0.0,0.0,0.0,0.0,0.0,0.0,0.0,0.0,0.0,0.0,0.0,0.0,0.0,0.0,0.0,0.0,0.0,0.0,0.0,0.0,0.0,0.0,0.0,0.0,0.0,0.0,0.0,0.0,0.0,0.0,-4.111,-4.1111,-4.1103,-4.1085,-4.1028,-4.0556,-3.9597,0.0,0.0,0.0,0.0,0.0,0.0,0.0,0.0,0.0,0.0,0.0,0.0,0.0,0.0,0.0,0.0,0.0,0.0,0.0,0.0,0.0,0.0,0.0,0.0,0.0,0.0,0.0,0.0,0.0,0.0,0.0,0.0,0.0,0.0,0.0,0.0,0.0,0.0,0.0,0.0,0.0,0.0,0.0,0.0,0.0,0.0,0.0,0.0,0.0,0.0,0.0,0.0,0.0,0.0,0.0,0.0,0.0,0.0,0.0,0.0,0.0,0.0,0.0,0.0,0.0,0.0,0.0,0.0,0.0,0.0,0.0,0.0,0.0,0.0,0.0,0.0,0.0,0.0,0.0,0.0,0.0,0.0,0.0,0.0,0.0,0.0,0.0,0.0,0.0,0.0,0.0,0.0,0.0,0.0,0.0,0.0,0.0,0.0,0.0,0.0,0.0,0.0,0.0,0.0,0.0,0.0,0.0,-4.023,-4.1112,-4.1112,-4.1107,-4.1111,-4.1076,-4.0208,-3.9188,-3.8179,0.0,0.0,0.0,0.0,0.0,0.0,0.0,0.0,0.0,0.0,0.0,0.0,0.0,0.0,0.0,0.0,0.0,0.0,0.0,0.0,0.0,0.0,0.0,0.0,0.0,0.0,0.0,0.0,0.0,0.0,0.0,0.0,0.0,0.0,0.0,0.0,0.0,0.0,-3.607,-3.6669,0.0,0.0,0.0,0.0,0.0,0.0,0.0,0.0,-3.624,0.0,0.0,0.0,0.0,0.0,0.0,0.0,0.0,0.0,0.0,0.0,0.0,0.0,0.0,0.0,0.0,0.0,0.0,0.0,0.0,0.0,0.0,0.0,0.0,0.0,0.0,0.0,0.0,0.0,0.0,0.0,0.0,0.0,0.0,0.0,0.0,0.0,0.0,0.0,0.0,0.0,0.0,0.0,0.0,0.0,0.0,0.0,0.0,0.0,0.0,0.0,0.0,0.0,0.0,0.0,0.0,-3.8508,-4.0214,-4.1113,-4.1112,-4.1112,-4.1101,-4.109,-4.0201,-3.9241,-3.8306,0.0,0.0,0.0,0.0,0.0,0.0,0.0,0.0,0.0,0.0,0.0,0.0,0.0,0.0,0.0,0.0,0.0,0.0,0.0,0.0,0.0,0.0,0.0,0.0,0.0,0.0,0.0,0.0,0.0,0.0,0.0,0.0,0.0,0.0,0.0,0.0,0.0,0.0,0.0,-3.706,-3.7347,0.0,0.0,0.0,0.0,0.0,0.0,0.0,0.0,-3.6166,0.0,0.0,0.0,0.0,0.0,0.0,0.0,0.0,0.0,0.0,0.0,0.0,0.0,0.0,0.0,0.0,0.0,0.0,0.0,0.0,0.0,0.0,0.0,0.0,0.0,0.0,0.0,0.0,0.0,0.0,0.0,0.0,0.0,0.0,0.0,0.0,0.0,0.0,0.0,0.0,0.0,0.0,0.0,0.0,0.0,0.0,0.0,0.0,0.0,0.0,0.0,0.0,0.0,0.0,0.0,-3.8573,-4.0214,-4.111,-4.1107,-4.1113,-4.111,-4.1074,-3.9794,-3.8858,0.0,0.0,0.0,0.0,0.0,0.0,0.0,0.0,0.0,0.0,0.0,0.0,0.0,0.0,0.0,0.0,0.0,0.0,0.0,0.0,0.0,0.0,0.0,0.0,0.0,0.0,0.0,0.0,0.0,0.0,0.0,0.0,0.0,0.0,0.0,0.0,0.0,0.0,0.0,0.0,-3.793,-3.858,-3.8918,0.0,0.0,0.0,0.0,0.0,0.0,-3.8101,-3.7255,0.0,0.0,0.0,0.0,0.0,0.0,0.0,0.0,0.0,0.0,0.0,0.0,0.0,0.0,0.0,0.0,0.0,0.0,0.0,0.0,0.0,0.0,0.0,0.0,0.0,0.0,0.0,0.0,0.0,0.0,0.0,0.0,0.0,0.0,0.0,0.0,0.0,0.0,0.0,0.0,0.0,0.0,0.0,0.0,0.0,0.0,0.0,0.0,0.0,0.0,0.0,0.0,0.0,0.0,0.0,-3.8554,-4.0228,-4.1101,-4.1116,-4.111,-4.1113,-4.1069,-3.9409,-3.8473,0.0,0.0,0.0,0.0,0.0,0.0,0.0,0.0,0.0,0.0,0.0,0.0,0.0,0.0,0.0,0.0,0.0,0.0,0.0,0.0,0.0,0.0,0.0,0.0,0.0,0.0,0.0,0.0,0.0,0.0,0.0,0.0,0.0,0.0,0.0,0.0,0.0,0.0,0.0,0.0,0.0,-3.9719,-3.9859,-4.0335,0.0,0.0,0.0,0.0,-4.0058,-3.9258,0.0,0.0,0.0,0.0,0.0,0.0,0.0,0.0,0.0,0.0,0.0,0.0,0.0,0.0,0.0,0.0,0.0,0.0,0.0,0.0,0.0,0.0,0.0,0.0,0.0,0.0,0.0,0.0,0.0,0.0,0.0,0.0,0.0,0.0,0.0,0.0,0.0,0.0,0.0,0.0,0.0,0.0,0.0,0.0,0.0,0.0,0.0,0.0,0.0,0.0,0.0,0.0,0.0,0.0,0.0,0.0,-3.858,-4.021,-4.1104,-4.1111,-4.1119,-4.111,-4.1091,-3.942,-3.8475,0.0,0.0,0.0,0.0,0.0,0.0,0.0,0.0,0.0,0.0,0.0,0.0,0.0,0.0,0.0,0.0,0.0,0.0,0.0,0.0,0.0,0.0,0.0,0.0,0.0,0.0,0.0,0.0,0.0,0.0,0.0,0.0,0.0,0.0,0.0,0.0,0.0,0.0,0.0,0.0,0.0,-3.9954,-4.0635,-4.073,-4.0673,0.0,0.0,-4.0271,-4.0177,-3.9878,0.0,0.0,0.0,0.0,0.0,0.0,0.0,0.0,0.0,0.0,0.0,0.0,0.0,0.0,0.0,0.0,0.0,0.0,0.0,0.0,0.0,0.0,0.0,0.0,0.0,0.0,0.0,0.0,0.0,0.0,0.0,0.0,0.0,0.0,0.0,0.0,0.0,0.0,0.0,0.0,0.0,0.0,0.0,0.0,0.0,0.0,0.0,0.0,0.0,0.0,0.0,0.0,0.0,0.0,0.0,-3.8003,-3.8521,-3.9735,-4.0608,-4.1033,-4.1074,-4.1116,-4.1111,-3.9452,-3.852,0.0,0.0,0.0,0.0,0.0,0.0,0.0,0.0,0.0,0.0,0.0,0.0,0.0,0.0,0.0,0.0,0.0,0.0,0.0,0.0,0.0,0.0,0.0,0.0,0.0,0.0,0.0,0.0,0.0,0.0,0.0,0.0,0.0,0.0,0.0,0.0,0.0,0.0,0.0,0.0,0.0,0.0,-4.0809,-4.0776,0.0,0.0,0.0,-4.0379,-4.0272,0.0,0.0,0.0,0.0,0.0,0.0,0.0,0.0,0.0,0.0,0.0,0.0,0.0,0.0,0.0,0.0,0.0,0.0,0.0,0.0,0.0,0.0,0.0,0.0,0.0,0.0,0.0,0.0,0.0,0.0,0.0,0.0,0.0,0.0,0.0,0.0,0.0,0.0,0.0,0.0,0.0,0.0,0.0,0.0,0.0,0.0,0.0,0.0,0.0,0.0,0.0,0.0,0.0,0.0,0.0,0.0,0.0,-3.8493,-3.9335,-4.0175,-4.0968,-4.1042,-4.107,-4.1072,-3.945,0.0,0.0,0.0,0.0,0.0,0.0,0.0,0.0,0.0,0.0,0.0,0.0,0.0,0.0,0.0,0.0,0.0,0.0,0.0,0.0,0.0,0.0,0.0,0.0,0.0,0.0,0.0,-3.1482,0.0,0.0,0.0,0.0,0.0,0.0,0.0,0.0,0.0,0.0,0.0,0.0,0.0,0.0,-4.0956,-4.1098,-4.1042,-4.0982,0.0,0.0,-4.0696,-4.0398,-4.029,-3.9871,0.0,0.0,0.0,0.0,0.0,0.0,0.0,0.0,0.0,0.0,0.0,0.0,0.0,0.0,0.0,0.0,0.0,0.0,0.0,0.0,0.0,0.0,0.0,0.0,0.0,0.0,0.0,0.0,0.0,0.0,0.0,0.0,0.0,0.0,0.0,0.0,0.0,0.0,0.0,0.0,0.0,0.0,0.0,0.0,0.0,0.0,0.0,0.0,0.0,0.0,0.0,0.0,0.0,0.0,-3.7624,-3.8505,-3.9305,-4.0116,-4.0948,-4.1007,-4.1031,-4.1057,-3.9409,-3.8508,0.0,0.0,0.0,0.0,0.0,0.0,0.0,0.0,0.0,0.0,0.0,0.0,0.0,0.0,0.0,0.0,0.0,0.0,0.0,0.0,0.0,0.0,0.0,0.0,0.0,0.0,0.0,0.0,0.0,0.0,0.0,0.0,0.0,0.0,0.0,0.0,0.0,0.0,0.0,0.0,0.0,-4.1158,-4.1923,-4.1911,-4.1822,0.0,-4.1713,-4.1366,-4.0598,-4.0379,-3.9984,-3.9032,0.0,0.0,0.0,0.0,0.0,0.0,0.0,0.0,0.0,0.0,0.0,0.0,0.0,0.0,0.0,0.0,0.0,0.0,0.0,0.0,0.0,0.0,0.0,0.0,0.0,0.0,0.0,0.0,0.0,0.0,0.0,0.0,0.0,0.0,0.0,0.0,0.0,0.0,0.0,0.0,0.0,0.0,0.0,0.0,0.0,0.0,0.0,0.0,0.0,0.0,0.0,0.0,0.0,-3.7079,-3.841,-3.8735,-3.9565,-4.0867,-4.0949,-4.0972,-4.102,-3.9404,-3.8518,0.0,0.0,0.0,0.0,0.0,0.0,0.0,0.0,0.0,0.0,0.0,0.0,0.0,0.0,0.0,0.0,0.0,0.0,0.0,0.0,0.0,0.0,0.0,0.0,0.0,0.0,0.0,0.0,-3.4506,-3.4913,-3.5435,0.0,0.0,0.0,0.0,0.0,0.0,0.0,0.0,0.0,0.0,-4.0964,-4.128,-4.1235,0.0,0.0,-4.1075,-4.092,-4.062,-4.0476,-4.0296,-3.9904,-3.8573,0.0,0.0,0.0,0.0,0.0,0.0,0.0,0.0,0.0,0.0,0.0,0.0,0.0,0.0,0.0,0.0,0.0,0.0,0.0,0.0,0.0,0.0,0.0,0.0,0.0,0.0,0.0,0.0,0.0,0.0,0.0,0.0,0.0,0.0,0.0,0.0,0.0,0.0,0.0,0.0,0.0,0.0,0.0,0.0,0.0,0.0,0.0,0.0,0.0,0.0,0.0,0.0,-3.6696,-3.8385,-3.8402,-3.918,-4.0839,-4.0898,-4.0935,-4.0904,-3.9344,-3.8466,0.0,0.0,0.0,0.0,0.0,0.0,0.0,0.0,0.0,0.0,0.0,0.0,0.0,0.0,0.0,0.0,0.0,0.0,0.0,0.0,0.0,0.0,0.0,0.0,0.0,0.0,0.0,0.0,-3.5087,-3.5335,-3.5955,0.0,0.0,0.0,0.0,0.0,0.0,0.0,0.0,0.0,0.0,-4.0916,-4.1145,-4.1125,-4.1081,-4.1087,-4.104,-4.0901,-4.0641,-4.0569,-4.0504,-4.0444,0.0,0.0,0.0,0.0,0.0,0.0,0.0,0.0,0.0,0.0,0.0,0.0,0.0,0.0,0.0,0.0,0.0,0.0,0.0,0.0,0.0,0.0,0.0,0.0,0.0,0.0,0.0,-3.5495,0.0,0.0,-3.5491,0.0,0.0,0.0,0.0,0.0,0.0,0.0,0.0,0.0,0.0,0.0,0.0,0.0,0.0,0.0,0.0,0.0,0.0,0.0,0.0,0.0,0.0,-3.6662,-3.8354,-3.8336,-3.9101,-4.0729,-4.0867,-4.0907,-4.0868,-3.9285,-3.8385,-3.8311,0.0,0.0,0.0,0.0,0.0,0.0,0.0,0.0,0.0,0.0,0.0,0.0,0.0,0.0,0.0,0.0,0.0,0.0,0.0,0.0,0.0,0.0,0.0,0.0,0.0,0.0,-3.5854,-3.5982,-3.5974,0.0,0.0,0.0,0.0,0.0,0.0,0.0,0.0,0.0,-4.0766,-4.0887,-4.1189,-4.1916,-4.2015,-4.188,-4.1917,-4.1889,-4.1557,-4.0733,-4.0593,-4.0593,0.0,0.0,0.0,0.0,0.0,0.0,0.0,0.0,0.0,0.0,0.0,0.0,0.0,0.0,0.0,0.0,0.0,0.0,0.0,0.0,0.0,0.0,0.0,0.0,0.0,0.0,0.0,-3.5251,-3.5369,0.0,0.0,0.0,0.0,0.0,0.0,0.0,0.0,0.0,0.0,0.0,-3.7559,-3.7639,0.0,0.0,0.0,0.0,0.0,0.0,0.0,0.0,0.0,0.0,0.0,0.0,-3.6647,-3.8258,-3.8266,-3.9054,-4.0674,-4.0745,-4.0764,-4.0745,-3.9157,-3.7511,-3.5854,0.0,0.0,0.0,0.0,0.0,0.0,0.0,0.0,0.0,0.0,0.0,0.0,0.0,0.0,0.0,0.0,0.0,0.0,0.0,0.0,0.0,0.0,0.0,0.0,0.0,-3.5699,0.0,0.0,0.0,0.0,0.0,0.0,0.0,0.0,0.0,0.0,0.0,-4.0103,-4.087,-4.0929,-4.0984,-4.1256,-4.1285,-4.1264,0.0,0.0,0.0,0.0,0.0,0.0,0.0,0.0,0.0,0.0,0.0,0.0,0.0,0.0,-3.5901,-3.5678,-3.557,-3.5515,-3.5459,0.0,0.0,0.0,0.0,0.0,0.0,0.0,0.0,0.0,0.0,0.0,0.0,0.0,0.0,-3.5757,-3.563,-3.5646,0.0,0.0,0.0,0.0,0.0,0.0,0.0,0.0,-3.7473,-3.7808,-3.8388,-3.8435,-3.8477,0.0,-3.7948,-3.7419,0.0,0.0,0.0,0.0,0.0,0.0,0.0,0.0,-3.6479,-3.7812,-3.8086,-3.8858,-4.0204,-4.0513,-4.0532,-4.0243,-3.8632,-3.685,-3.4942,-3.412,-3.3283,0.0,0.0,0.0,0.0,0.0,0.0,0.0,0.0,0.0,0.0,0.0,0.0,0.0,0.0,0.0,0.0,0.0,0.0,0.0,0.0,0.0,0.0,0.0,-3.6014,0.0,0.0,0.0,0.0,0.0,0.0,0.0,0.0,0.0,-3.8954,-3.972,-4.0443,-4.0967,-4.0986,-4.0929,-4.0935,0.0,0.0,0.0,0.0,0.0,0.0,0.0,-4.0804,-4.0742,-4.0224,-3.9769,-3.9634,-3.8956,-3.8336,-3.8172,0.0,0.0,-3.6719,-3.6482,-3.637,-3.636,-3.6313,-3.6285,-3.6285,-3.615,-3.5994,0.0,0.0,0.0,0.0,0.0,0.0,0.0,0.0,-3.7159,-3.6814,0.0,-3.6293,0.0,0.0,0.0,0.0,-3.6704,-3.6785,0.0,0.0,-3.8241,-3.8325,-3.8497,-3.8521,-3.852,-3.8565,-3.8564,-3.8531,-3.8444,-3.6886,0.0,0.0,0.0,0.0,0.0,0.0,-3.6203,-3.7082,-3.7827,-3.8582,-3.9392,-4.0144,-4.0144,-3.9315,-3.7752,-3.6501,-3.5626,-3.4797,-3.4031,-3.3266,-3.2421,0.0,0.0,0.0,0.0,0.0,0.0,0.0,0.0,0.0,0.0,0.0,0.0,0.0,0.0,0.0,0.0,0.0,0.0,0.0,0.0,-3.5507,0.0,0.0,0.0,0.0,0.0,0.0,0.0,0.0,0.0,0.0,-3.9842,-4.0561,-4.1101,-4.1106,0.0,0.0,0.0,0.0,-4.0904,-4.0897,-4.0897,-4.0897,-4.0897,-4.0908,-4.0888,-4.0819,0.0,0.0,-4.0444,-4.0215,-3.9975,-3.9739,-3.9505,-3.8921,-3.7154,-3.6739,-3.6592,-3.6546,-3.6544,-3.6423,-3.6395,-3.6387,-3.6225,-3.8071,0.0,0.0,0.0,0.0,-3.6937,-3.6967,-3.7075,-3.7075,-3.6994,-3.6842,-3.6906,0.0,0.0,0.0,0.0,0.0,0.0,-3.8132,-3.8965,-3.9045,-3.9441,-4.0109,-4.0101,-4.0141,-4.0185,-3.9579,-3.9276,-3.9245,-3.8234,-3.7422,-3.6859,0.0,0.0,0.0,0.0,-3.6464,-3.7785,-3.8041,-3.851,-3.9311,-3.9567,-3.8975,-3.7577,-3.7089,-3.6428,-3.5628,-3.4781,-3.4223,-3.3973,-3.2628,0.0,0.0,0.0,0.0,0.0,0.0,0.0,0.0,0.0,0.0,0.0,0.0,0.0,0.0,0.0,0.0,0.0,0.0,0.0,-3.5556,-3.5852,-3.6247,0.0,0.0,0.0,0.0,0.0,0.0,0.0,0.0,0.0,-4.0659,-4.0943,-4.1108,0.0,0.0,-4.1075,-4.1078,-4.1052,-4.1026,-4.0979,-4.096,0.0,-4.0979,-4.0984,-4.0968,-4.0924,-4.0837,-4.0713,-4.0558,-4.0415,-4.0253,-4.0017,-3.9804,-3.9411,-3.8846,-3.8503,-3.8257,-3.8151,-3.8092,-3.807,-3.801,-3.7882,-3.7734,-3.8449,-3.8155,-3.7775,-3.7644,-3.7679,-3.7697,-3.775,-3.7783,-3.7809,-3.7679,-3.7459,-3.7549,-3.7476,-3.7281,-3.7409,0.0,0.0,0.0,-3.8873,-3.9742,-3.9798,-4.0152,-4.07,-4.0738,-4.0784,-4.0809,-4.0295,-4.0053,-4.0044,-3.9228,-3.8587,-3.8101,0.0,0.0,-3.6778,-3.6755,-3.7218,-3.8117,-3.844,-3.8656,-3.8801,-3.8445,-3.7791,-3.6804,-3.6458,-3.6067,-3.5592,-3.5065,-3.4634,-3.4275,-3.328,-3.2443,0.0,0.0,0.0,0.0,0.0,0.0,0.0,0.0,0.0,0.0,0.0,-3.2338,-3.3009,0.0,0.0,0.0,-3.5393,-3.5869,-3.642,-3.6791,0.0,0.0,0.0,0.0,0.0,0.0,0.0,-3.9843,-4.0175,-4.0546,-4.1035,-4.111,-4.1103,-4.1099,-4.1104,-4.1113,-4.1105,0.0,-4.1076,-4.1052,-4.1028,-4.1047,-4.1042,-4.1025,-4.102,-4.0968,-4.0868,-4.0764,-4.0612,-4.0495,-4.0344,-4.0157,-3.9975,-3.9762,-3.9575,-3.9376,-3.9156,-3.8921,-3.8833,-3.878,-3.8707,-3.8609,-3.8478,-3.8336,-3.851,-3.8725,-3.8862,-3.8892,-3.891,-3.8921,-3.8997,-3.9045,-3.872,-3.8104,-3.8215,-3.7903,-3.7305,-3.7492,0.0,-3.8957,-3.9051,-3.9543,-4.0389,-4.0457,-4.05,-4.0593,-4.0673,-4.0662,-4.0681,-4.0681,-4.0694,-4.0738,-3.9966,-3.9572,-3.9569,-3.8838,-3.8423,-3.8287,-3.8214,-3.8194,-3.8196,-3.8921,-3.8898,-3.8007,-3.7084,-3.657,-3.657,-3.5878,-3.5493,-3.5493,-3.5474,-3.5109,-3.4345,-3.4218,-3.3442,-3.1884,0.0,0.0,0.0,0.0,0.0,0.0,0.0,0.0,0.0,0.0,0.0,0.0,0.0,0.0,0.0,-3.6761,0.0,-3.7303,-3.8025,0.0,0.0,0.0,-3.8732,-3.879,-3.95,-3.9992,-3.9992,0.0,0.0,-4.1111,-4.1113,-4.1113,-4.111,-4.1103,-4.1099,-4.1099,-4.1114,-4.1111,-4.1091,-4.1111,-4.1108,-4.1097,-4.1085,-4.1056,-4.0957,-4.0859,-4.0765,-4.0642,-4.0515,-4.0356,-4.0253,-4.0118,-3.9933,-3.967,-3.9521,-3.9324,-3.9073,-3.891,-3.8792,-3.8719,-3.8609,-3.8528,-3.8122,-3.8354,-3.8419,-3.8578,-3.8803,-3.8881,-3.891,-3.8939,-3.895,-3.8839,-3.8701,-3.8822,-3.8906,-3.8939,-3.9086,-3.9353,-3.9671,-3.9773,-3.9986,-4.027,-4.0323,-4.0392,-4.0454,-4.0473,-4.0504,-4.0549,-4.053,-4.0549,-4.0564,-4.0357,-4.026,-4.0256,-4.0058,-3.9367,-3.8206,-3.8124,-3.8415,-3.9017,-3.9201,-3.8898,-3.7988,-3.6498,-3.5715,-3.5701,-3.5475,-3.535,-3.535,-3.5335,-3.5262,-3.5017,-3.437,-3.3513,-3.2513,-3.1889,0.0,0.0,0.0,0.0,0.0,0.0,0.0,0.0,0.0,-3.4013,-3.4381,0.0,-3.5776,0.0,-3.7536,-3.8054,-3.8118,-3.8293,0.0,0.0,-3.9463,-3.9789,-4.0422,-4.0707,-4.0815,-4.0821,-4.0982,-4.1101,-4.1103,-4.1107,-4.1111,-4.1112,-4.1112,-4.1105,-4.1105,-4.1105,-4.1103,-4.1103,-4.1103,-4.1103,-4.1101,-4.1111,-4.1066,-4.0987,-4.0957,-4.0907,-4.0765,-4.0642,-4.0519,-4.0396,-4.0234,-4.0058,-3.9867,-3.9689,-3.9477,-3.929,-3.9064,-3.8851,-3.8792,-3.8701,-3.8627,-3.7792,-3.8036,-3.8106,-3.8256,-3.851,-3.8634,-3.8725,-3.8725,-3.8803,-3.8833,-3.8881,-3.9017,-3.9165,-3.9324,-3.9502,-3.9623,-3.98,-3.9889,-3.9996,-4.0099,-4.0158,-4.0252,-4.0306,-4.0323,-4.0321,-4.0375,-4.0356,-4.0375,-4.0375,-4.0375,-4.0375,-4.0375,-4.0356,-3.9928,-3.9123,-3.9109,-3.936,-3.9777,-3.905,-3.8439,-3.7909,-3.6262,-3.5369,-3.5335,-3.532,-3.527,-3.5203,-3.5229,-3.5196,-3.5141,-3.4632,-3.397,-3.3187,-3.2727,-3.2099,0.0,0.0,0.0,0.0,0.0,0.0,0.0,0.0,0.0,0.0,0.0,-3.6596,-3.7461,-3.8306,-3.885,-3.8887,-3.9246,-3.9719,-4.0198,-4.0285,-4.0539,-4.0994,-4.1056,-4.1052,-4.1061,-4.107,-4.1117,-4.1101,-4.1111,-4.1116,-4.1101,-4.1111,-4.1113,-4.1113,-4.1113,-4.1112,-4.1131,-4.1151,-4.113,-4.111,-4.1101,-4.1078,-4.1061,-4.102,-4.0941,-4.0888,-4.0769,-4.0654,-4.0527,-4.0379,-4.0234,-4.0036,-3.9804,-3.9599,-3.9427,-3.9183,-3.8979,-3.8803,-3.8762,-3.8719,-3.741,-3.7631,-3.7793,-3.7916,-3.8086,-3.83,-3.8428,-3.851,-3.8683,-3.8792,-3.8822,-3.8989,-3.9073,-3.9101,-3.9272,-3.9446,-3.9551,-3.9642,-3.9762,-3.9975,-4.0036,-4.0077,-4.0157,-4.0158,-4.0158,-4.0177,-4.0158,-4.0158,-4.0158,-4.0158,-4.0139,-4.0158,-4.0158,-4.0196,-4.0271,-4.0341,-4.0315,-4.0197,-3.8687,-3.783,-3.7696,-3.6109,-3.527,-3.528,-3.5261,-3.5193,-3.5089,-3.5073,-3.5039,-3.4983,-3.4927,-3.4491,-3.3696,-3.3658,-3.326,0.0,-3.2426,0.0,0.0,0.0,0.0,0.0,0.0,0.0,0.0,-3.7058,-3.7532,-3.8279,-3.9127,-3.9646,-3.9661,-4.038,-4.0877,-4.0869,-4.0935,-4.096,-4.096,-4.0972,-4.0981,-4.0981,-4.1033,-4.1089,-4.11,-4.1096,-4.109,-4.1081,-4.1088,-4.1099,-4.1107,-4.111,-4.1112,-4.1191,-4.1191,-4.1152,-4.1112,-4.1103,-4.1108,-4.1085,-4.105,-4.0991,-4.0917,-4.0846,-4.0764,-4.0631,-4.0476,-4.0342,-4.0157,-3.9914,-3.9717,-3.9532,-3.9324,-3.9073,-3.8892,-3.8822,-3.8743,-3.7087,-3.7372,-3.741,-3.7558,-3.7774,-3.7951,-3.8171,-3.8415,-3.851,-3.8652,-3.8803,-3.8851,-3.8921,-3.9036,-3.9101,-3.9219,-3.935,-3.9427,-3.9575,-3.9781,-3.9762,-3.9848,-3.9954,-3.9935,-3.9954,-3.9954,-3.9956,-3.9935,-3.9954,-3.9954,-3.9975,-3.9935,-3.9954,-3.9996,-4.0058,0.0,0.0,0.0,-3.835,-3.7491,-3.6782,-3.5703,-3.5141,-3.5127,-3.5073,0.0,-3.4945,-3.4888,-3.4849,-3.4829,-3.471,0.0,0.0,0.0,0.0,0.0,0.0,0.0,0.0,0.0,0.0,0.0,-3.648,-3.6814,-3.6776,-3.8036,-3.8907,-3.9094,-3.9888,-4.0417,-4.0475,-4.061,-4.0752,-4.073,-4.0787,-4.0839,-4.0839,-4.0869,-4.0915,-4.0915,-4.0913,-4.0957,-4.1018,-4.1032,-4.1013,-4.1011,-4.1061,-4.1096,-4.1109,-4.1097,-4.1108,-4.111,-4.113,-4.1113,-4.1112,-4.111,-4.1105,-4.1108,-4.1085,-4.1064,-4.0988,-4.0878,-4.0773,-4.0681,-4.0588,-4.0444,-4.0289,-4.0138,-3.9935,-3.9717,-3.9483,-3.9264,-3.9007,-3.8862,-3.8762,-3.6731,-3.6952,-3.7105,-3.7297,0.0,-3.7667,-3.7863,-3.8068,-3.8303,-3.8496,-3.8634,-3.8732,-3.8792,-3.8892,-3.8979,-3.9045,-3.9137,-3.9237,-3.935,-3.9502,-3.9526,-3.9599,-3.9693,-3.9693,-3.9712,-3.9693,-3.9712,-3.9712,-3.9693,-3.9712,-3.9712,-3.9712,-3.9712,-3.9758,-3.9848,-3.9933,-3.964,-3.8954,-3.8097,-3.724,-3.6401,-3.5473,-3.4982,-3.4945,-3.4927,0.0,0.0,0.0,0.0,0.0,0.0,0.0,0.0,0.0,0.0,-3.315,-3.3175,-3.3574,-3.4449,-3.498,-3.5631,-3.6647,-3.7562,-3.8023,-3.7836,-3.9048,-3.9791,-3.981,-4.0239,-4.0515,-4.0549,-4.0598,-4.066,-4.0654,-4.07,-4.0757,-4.0738,-4.0784,-4.0807,-4.0807,-4.0839,-4.0859,-4.0888,-4.0906,-4.0932,-4.0957,-4.1006,-4.1039,-4.1052,-4.1085,-4.1116,-4.1101,-4.1107,-4.1111,-4.1113,-4.1113,-4.1112,-4.1105,-4.1108,-4.1061,-4.1033,-4.0941,-4.0878,-4.0781,-4.0648,-4.0519,-4.0375,-4.0234,-3.9963,-3.9359,-3.9067,-3.8658,-3.8141,-3.8109,-3.8085,-3.6385,-3.655,-3.6794,-3.7009,-3.722,-3.7392,-3.7577,-3.7703,0.0,0.0,0.0,-3.8578,-3.867,-3.8713,-3.8803,-3.8862,-3.8939,-3.9036,-3.911,-3.9245,-3.9298,-3.9376,-3.9427,-3.9408,-3.9452,-3.9452,-3.9408,-3.9408,-3.9427,-3.9408,-3.9408,-3.9408,-3.9408,-3.9483,-3.9604,-3.9607,-3.9245,-3.8515,-3.7811,-3.6994,-3.6065,-3.5249,-3.4812,-3.4733,-3.473,-3.4708,-3.4623,-3.4517,-3.445,-3.4427,-3.4335,-3.4245,-3.4245,-3.4197,-3.4228,-3.4396,-3.4463,-3.4865,-3.572,-3.5973,-3.6517,-3.7487,-3.8357,-3.8928,-3.9147,-3.9833,-4.0252,-4.029,-4.0321,-4.0372,-4.037,-4.0476,-4.0562,-4.0577,-4.0617,-4.064,-4.064,-4.0681,-4.0668,-4.0668,-4.07,-4.0757,-4.0754,-4.0757,-4.0779,-4.084,-4.0926,-4.098,-4.0996,-4.1064,-4.1113,-4.1108,-4.1116,-4.1103,-4.1107,-4.1111,-4.1113,-4.1112,-4.1103,-4.1085,-4.1033,-4.1026,-4.096,-4.0829,-4.0738,-4.053,-4.0261,-4.0055,-3.9643,-3.8707,-3.8329,-3.7901,-3.7018,-3.701,-3.7082,-3.6174,-3.6343,-3.6385,-3.6609,-3.6869,-3.7009,-3.7279,-3.7649,-3.7984,-3.8186,-3.834,-3.8401,-3.8465,-3.8446,-3.8541,-3.864,-3.8768,-3.884,-3.8921,-3.9036,-3.9064,-3.9073,-3.9137,-3.9137,-3.9137,-3.9156,-3.9137,-3.9137,-3.9137,-3.9156,-3.9156,-3.9156,-3.9156,-3.9219,-3.9294,-3.8807,-3.8108,-3.7359,-3.7316,-3.6587,-3.5055,-3.4764,-3.4604,-3.4542,-3.4539,-3.4495,-3.4363,-3.4269,-3.4221,-3.4148,-3.4074,-3.4049,-3.4049,-3.4049,-3.4356,-3.5077,-3.5151,-3.5528,-3.6403,-3.7089,-3.7939,-3.8876,-3.9252,-3.95,-3.9762,-3.9981,-4.0118,-4.0118,-4.0196,-4.0252,-4.0306,-4.0342,-4.036,-4.0413,-4.0425,-4.0438,-4.0438,-4.0485,-4.0534,-4.0534,-4.0554,-4.0564,-4.0602,-4.0629,-4.0655,-4.0718,-4.0796,-4.0849,-4.0926,-4.1032,-4.11,-4.11,-4.1113,-4.1104,-4.1116,-4.1101,-4.1107,-4.1113,-4.1112,-4.1105,-4.1097,-4.1042,-4.0948,-4.0866,-4.0731,-4.0404,-3.972,-3.9381,-3.8872,-3.7985,-3.758,-3.7084,-3.6179,-3.5944,-3.5959,-3.629,-3.6079,-3.6191,-3.636,-3.6568,-3.6771,-3.7048,-3.7337,-3.7559,-3.7845,-3.8138,-3.8153,-3.8238,-3.8336,-3.8368,-3.8451,-3.8546,-3.8621,-3.8683,-3.8725,-3.8755,-3.8833,-3.8862,-3.8844,-3.8855,-3.895,-3.895,-3.8931,-3.8989,-3.8989,-3.9007,-3.9007,-3.9017,-3.9092,-3.9073,-3.8417,-3.771,-3.6907,-3.6625,-3.5885,-3.462,-3.4495,-3.4404,-3.434,-3.4293,-3.4245,-3.4197,-3.4124,-3.4074,-3.4049,-3.3965,-3.3895,-3.3895,-3.3834,-3.4147,-3.4972,-3.5055,-3.5634,-3.6893,-3.7837,-3.8561,-3.9036,-3.9165,-3.9279,-3.9471,-3.9735,-3.987,-3.987,-3.9977,-4.0078,-4.0119,-4.0177,-4.0215,-4.0291,-4.0307,-4.0306,-4.0306,-4.0304,-4.0341,-4.0321,-4.0321,-4.0375,-4.0441,-4.0473,-4.0504,-4.0545,-4.0629,-4.0738,-4.0807,-4.0907,-4.0957,-4.102,-4.105,-4.1052,-4.109,-4.1113,-4.1108,-4.1103,-4.1111,-4.1113,-4.1103,-4.1062,-4.0808,-4.0344,-4.0187,-3.9779,-3.8934,-3.8598,-3.8101,-3.7324,-3.6881,-3.6346,-3.5539,-3.5011,-3.4872,-3.6452,-3.5817,-3.6053,-3.6165,-3.6318,-3.6568,-3.6794,-3.6992,-3.7126,-3.7429,-3.7739,-3.788,-3.7984,-3.8156,-3.8156,-3.8204,-3.8318,-3.8382,-3.8415,-3.8396,-3.846,-3.851,-3.8546,-3.851,-3.8572,-3.8683,-3.8701,-3.8743,-3.8773,-3.8792,-3.8773,-3.8803,-3.8862,-3.8892,-3.8855,-3.7979,-3.7219,-3.657,-3.5758,-3.5011,-3.4354,-3.4269,-3.4221,-3.4148,-3.4099,-3.4055,-3.403,-3.3998,-3.3947,-3.3921,-3.3815,-3.3753,-3.3707,-3.3633,-3.4014,-3.4877,-3.5082,-3.5805,-3.7338,-3.8242,-3.8713,-3.8792,-3.8844,-3.8931,-3.9017,-3.9324,-3.9532,-3.9623,-3.9717,-3.9804,-3.9892,-3.9975,-4.0036,-4.0098,-4.0099,-4.0139,-4.0139,-4.0139,-4.0139,-4.0139,-4.0139,-4.0158,-4.0234,-4.0289,-4.036,-4.0425,-4.0504,-4.0593,-4.0739,-4.0769,-4.0807,-4.0888,-4.0949,-4.1013,-4.1078,-4.1089,-4.1091,-4.1097,-4.1114,-4.099,-4.0879,-4.0775,-4.0424,-3.9658,-3.9376,-3.8954,-3.816,-3.7815,-3.7371,-3.6569,-3.6146,-3.5798,-3.5035,-3.4592,-3.4258,-3.6424,-3.5824,-3.5834,-3.5993,-3.6208,-3.6318,-3.6468,-3.6673,-3.6771,-3.6948,-3.7126,-3.7466,-3.7667,-3.7739,-3.7739,-3.7845,-3.8018,-3.8052,-3.8068,-3.8135,-3.8135,-3.8135,-3.8186,-3.8271,-3.834,-3.8372,-3.8382,-3.8446,-3.8446,-3.8446,-3.8446,-3.8446,-3.851,-3.8523,-3.8407,-3.711,-3.6313,-3.6221,-3.4743,-3.402,-3.4124,-3.4074,-3.4023,-3.4005,-3.4023,-3.3972,-3.3921,-3.3842,-3.3788,-3.3726,-3.3661,-3.3605,-3.352,-3.3491,-3.4152,-3.5525,-3.5701,-3.6427,-3.7827,-3.8234,-3.8368,-3.8446,-3.851,-3.8572,-3.8719,-3.8803,-3.9017,-3.9272,-3.942,-3.9502,-3.9623,-3.9693,-3.9758,-3.9826,-3.987,-3.9933,-3.9933,-3.9914,-3.9933,-3.9933,-3.9914,-3.9954,-4.0017,-4.0058,-4.0177,-4.0342,-4.0394,-4.0479,-4.0588,-4.0607,-4.0648,-4.0732,-4.0818,-4.0906,-4.0968,-4.1003,-4.0974,-4.1047,-4.1081,-4.0711,-4.0205,-3.9882,-3.9626,-3.8843,-3.8566,-3.8176,-3.745,-3.7026,-3.6682,-3.5977,-3.553,-3.5204,-3.481,-3.4602,-3.4427,-3.6721,-3.5684,-3.5684,-3.5817,-3.5949,-3.6062,-3.6233,-3.636,-3.6468,-3.6585,-3.6731,-3.6948,-3.7203,-3.7466,-3.7466,-3.7559,-3.7757,-3.7757,-3.7792,-3.781,-3.781,-3.781,-3.781,-3.7898,-3.7967,-3.8072,-3.8138,-3.8186,-3.8201,-3.8219,-3.8201,-3.8234,-3.8252,-3.8267,-3.814,-3.6734,-3.5964,-3.5909,-3.4397,-3.3587,-3.3671,-3.378,-3.3807,-3.378,-3.3753,-3.3734,-3.3726,-3.3698,-3.3643,-3.3577,-3.352,-3.3404,-3.3268,-3.3226,-3.3669,-3.4735,-3.5672,-3.6642,-3.7738,-3.7863,-3.7933,-3.7966,-3.8086,-3.8171,-3.8271,-3.8368,-3.851,-3.8737,-3.8998,-3.9237,-3.9343,-3.9376,-3.9471,-3.9526,-3.9575,-3.9618,-3.9647,-3.967,-3.967,-3.9689,-3.967,-3.967,-3.9717,-3.9804,-3.9975,-4.0158,-4.0253,-4.0326,-4.0463,-4.0473,-4.0534,-4.0631,-4.07,-4.075,-4.0849,-4.0888,-4.0729,-4.0422,-4.0273,-3.997,-3.9302,-3.9051,-3.8749,-3.7926,-3.777,-3.7357,-3.6521,-3.6312,-3.6057,-3.5519,-3.5307,-3.5124,-3.4927,-3.473,-3.4583,-3.684,-3.5723,-3.5639,-3.5684,-3.5773,-3.5888,-3.5975,-3.6096,-3.6191,-3.6259,-3.636,-3.6461,-3.6684,-3.6987,-3.7105,-3.7241,-3.7429,-3.7447,-3.7447,-3.7429,-3.7447,-3.7411,-3.7429,-3.754,-3.7649,-3.7757,-3.7828,-3.7915,-3.7949,-3.7984,-3.7984,-3.7984,-3.7984,-3.7966,-3.7839,-3.6594,-3.5854,-3.5548,-3.4248,-3.3478,-3.334,-3.3404,-3.3502,-3.3549,-3.3549,-3.3549,-3.3567,-3.3549,-3.3491,-3.3404,-3.3316,-3.3214,-3.2993,-3.2916,-3.3208,-3.3979,-3.5385,-3.6469,-3.7074,-3.7305,-3.7466,-3.7522,-3.7667,-3.7775,-3.7845,-3.7897,-3.8034,-3.8201,-3.851,-3.8766,-3.8998,-3.9073,-3.9129,-3.9245,-3.929,-3.9324,-3.9357,-3.9383,-3.9389,-3.9383,-3.9401,-3.9427,-3.9433,-3.9532,-3.9693,-3.9933,-4.0038,-4.0157,-4.0271,-4.0341,-4.0392,-4.0511,-4.0527,-4.0598,-4.0738,-4.0784,-4.0431,-3.9926,-3.9704,-3.939,-3.8444,-3.8167,-3.788,-3.7148,-3.6988,-3.6774,-3.6265,-3.597,-3.5801,-3.5618,-3.5418,-3.5223,-3.5091,-3.4908,-3.4619,-3.6366,-3.5673,-3.5639,-3.5639,-3.5622,-3.5773,-3.5834,-3.5817,-3.5975,-3.6019,-3.6019,-3.6062,-3.6122,-3.6293,-3.665,-3.6908,-3.7009,-3.7027,-3.7027,-3.7009,-3.7009,-3.7027,-3.7048,-3.722,-3.7334,-3.7334,-3.7503,-3.7613,-3.7631,-3.7613,-3.7613,-3.7595,-3.7595,-3.7613,-3.7488,-3.6738,-3.6006,-3.5186,-3.4329,-3.3598,-3.3005,-3.2948,-3.3104,-3.3334,-3.3462,-3.3452,-3.3393,-3.3411,-3.3334,-3.3117,-3.3073,-3.2916,-3.2672,-3.2639,-3.2875,-3.3583,-3.4918,-3.5797,-3.5972,-3.6608,-3.7013,-3.7147,-3.7259,-3.7354,-3.7413,-3.7559,-3.7631,-3.7721,-3.7898,-3.8153,-3.8523,-3.8695,-3.8833,-3.8892,-3.896,-3.9027,-3.9082,-3.9109,-3.9109,-3.9119,-3.9129,-3.9183,-3.9253,-3.9324,-3.9452,-3.9665,-3.9781,-3.9892,-4.0077,-4.0139,-4.0233,-4.0269,-4.0341,-4.046,-4.064,-4.0514,-4.0196,-3.9585,-3.9063,-3.8952,-3.8001,-3.7152,-3.6746,-3.6437,-3.6347,-3.6205,-3.6046,-3.5919,-3.5818,-3.567,-3.55,-3.535,-3.4971,-3.4996,-3.4604,-3.6332,-3.5639,-3.5639,-3.5639,-3.5622,-3.5667,-3.5684,-3.5667,-3.58,-3.5861,-3.5905,-3.5975,-3.6036,-3.6062,-3.6233,-3.6385,-3.6568,-3.6568,-3.6609,-3.6667,-3.6667,-3.6708,-3.6806,-3.6926,-3.6987,-3.7027,-3.7143,-3.7203,-3.722,-3.7203,-3.7203,-3.7203,-3.722,-3.7203,-3.7079,-3.6425,-3.5648,-3.4906,-3.4076,-3.3282,-3.261,-3.2539,-3.2555,-3.2687,-3.2993,-3.3135,-3.3091,-3.3104,-3.3091,-3.2934,-3.282,-3.2639,-3.2473,-3.2266,-3.2458,-3.3188,-3.3688,-3.4418,-3.5379,-3.5837,-3.626,-3.6776,-3.6948,-3.697,-3.7031,-3.7126,-3.7241,-3.7299,-3.7429,-3.7631,-3.7809,-3.8168,-3.8382,-3.8496,-3.8572,-3.8646,-3.8688,-3.8752,-3.881,-3.8844,-3.8833,-3.8855,-3.8877,-3.9045,-3.9156,-3.9383,-3.9502,-3.9566,-3.9766,-3.9916,-3.9944,-4.0005,-3.9776,-3.9485,-3.964,-3.9749,-3.9527,-3.8774,-3.8205,-3.7531,-3.6681,-3.6502,-3.6163,-3.6199,-3.6007,-3.6016,-3.5987,-3.5927,-3.5827,-3.5635,-3.5493,-3.5078,-3.4697,-3.4454,-3.3855,-3.6096,-3.5673,-3.5639,-3.5639,-3.5639,-3.5639,-3.5639,-3.5639,-3.5667,-3.5728,-3.5756,-3.5844,-3.5888,-3.5888,-3.5888,-3.5932,-3.6088,-3.6191,-3.6276,-3.6318,-3.6335,-3.6377,-3.6461,-3.6602,-3.6626,-3.6626,-3.6731,-3.6753,-3.6771,-3.6771,-3.6771,-3.6771,-3.6771,-3.6753,-3.6666,-3.623,-3.5619,-3.4868,-3.4062,-3.3277,-3.2562,-3.2248,-3.2126,-3.2197,-3.2472,-3.2672,-3.2705,-3.2787,-3.2773,-3.259,-3.2489,-3.2335,-3.2144,-3.1912,-3.199,-3.2507,-3.2706,-3.3257,-3.4369,-3.4938,-3.548,-3.6063,-3.6422,-3.6609,-3.6626,-3.669,-3.6794,-3.6873,-3.697,-3.7087,-3.7188,-3.7487,-3.7792,-3.8036,-3.8171,-3.8252,-3.8314,-3.818,-3.7973,-3.7741,-3.7619,-3.7747,-3.7923,-3.7934,-3.8052,-3.8356,-3.848,-3.859,-3.8761,-3.8901,-3.9053,-3.9119,-3.8687,-3.8499,-3.8438,-3.8408,-3.8304,-3.7674,-3.7494,-3.6643,-3.6086,-3.5931,-3.5879,-3.5909,-3.5949,-3.5991,-3.5995,-3.5932,-3.5768,-3.5541,-3.5163,-3.4738,-3.4248,-3.3703,-3.31,-3.5656,-3.5639,-3.5639,-3.5639,-3.5639,-3.5639,-3.5639,-3.5639,-3.5639,-3.5622,-3.5622,-3.5622,-3.5667,-3.5622,-3.5667,-3.5622,-3.5711,-3.5888,-3.6019,-3.6036,-3.6036,-3.6019,-3.6079,-3.6208,-3.6251,-3.6251,-3.6259,-3.6301,-3.6343,-3.636,-3.6343,-3.6301,-3.6301,-3.6301,-3.6301,-3.6197,-3.587,-3.5094,-3.4283,-3.3576,-3.2904,-3.2162,-3.1783,-3.1783,-3.1875,-3.2038,-3.2249,-3.2404,-3.2387,-3.2232,-3.2144,-3.1912,-3.1691,-3.1559,-3.1534,-3.1671,-3.2183,-3.2576,-3.2832,-3.4001,-3.4685,-3.5094,-3.5685,-3.613,-3.6096,-3.6224,-3.6301,-3.6343,-3.6444,-3.6527,-3.6615,-3.6776,-3.7091,-3.7595,-3.7792,-3.7863,-3.7785,-3.7377,-3.6717,-3.6146,-3.6037,-3.5932,-3.6,-3.6261,-3.6454,-3.6703,-3.6832,-3.6957,-3.7237,-3.7403,-3.728,-3.7411,-3.74,-3.739,-3.7166,-3.6938,-3.6771,-3.6588,-3.6664,-3.6349,-3.5947,-3.5727,-3.5815,-3.5866,-3.5947,-3.6001,-3.5996,-3.5888,-3.5477,-3.5198,-3.4782,-3.4173,-3.349,-3.2848,-3.2359,-3.5639,-3.5639,-3.5639,-3.5639,-3.5639,-3.5639,-3.5639,-3.5639,-3.5639,-3.5639,-3.5639,-3.5639,-3.5639,-3.5639,-3.5639,-3.5639,-3.5622,-3.5711,-3.5773,-3.5861,-3.5861,-3.5905,-3.5975,-3.6019,-3.6079,-3.6079,-3.6062,-3.6105,-3.6105,-3.6088,-3.6062,-3.5993,-3.5932,-3.5888,-3.5827,-3.581,-3.547,-3.4738,-3.3972,-3.324,-3.2508,-3.1776,-3.1402,-3.1385,-3.1423,-3.1483,-3.1559,-3.1894,-3.202,-3.1929,-3.1819,-3.1691,-3.1538,-3.1406,-3.1368,-3.1368,-3.1494,-3.1958,-3.2514,-3.2974,-3.3577,-3.4114,-3.4839,-3.5215,-3.5249,-3.5642,-3.5881,-3.5827,-3.5958,-3.6045,-3.6174,-3.6284,-3.6557,-3.7164,-3.7299,-3.7127,-3.6649,-3.6146,-3.5783,-3.5516,-3.5477,-3.5526,-3.557,-3.5548,-3.5597,-3.5848,-3.6014,-3.614,-3.6325,-3.6419,-3.6795,-3.6943,-3.6644,-3.6271,-3.6168,-3.6005,-3.578,-3.5806,-3.5933,-3.6065,-3.5746,-3.5626,-3.5718,-3.5818,-3.5914,-3.5907,-3.5912,-3.5722,-3.5304,-3.456,-3.3912,-3.3226,-3.2504,-3.2,-3.1626,-3.5639,-3.5639,-3.5639,-3.5639,-3.5639,-3.5639,-3.5639,-3.5639,-3.5639,-3.5639,-3.5639,-3.5639,-3.5639,-3.5639,-3.5639,-3.5639,-3.5639,-3.5639,-3.5622,-3.5728,-3.5728,-3.5756,-3.5844,-3.5861,-3.5844,-3.5844,-3.58,-3.5817,-3.5817,-3.5756,-3.5684,-3.5594,-3.5549,-3.5487,-3.5396,-3.5333,-3.5081,-3.4611,-3.3957,-3.3201,-3.2463,-3.1724,-3.1221,-3.0986,-3.0935,-3.0935,-3.0975,-3.1218,-3.1449,-3.1521,-3.1428,-3.1368,-3.1269,-3.1213,-3.1157,-3.1157,-3.1128,-3.1348,-3.185,-3.2188,-3.2517,-3.3151,-3.3837,-3.4185,-3.4235,-3.4749,-3.5065,-3.502,-3.5273,-3.556,-3.5711,-3.58,-3.5942,-3.6011,-3.6282,-3.6001,-3.5256,-3.473,-3.4358,-3.4128,-3.3986,-3.4126,-3.4228,-3.4296,-3.4411,-3.4636,-3.4793,-3.4945,-3.5115,-3.5276,-3.5522,-3.5662,-3.5343,-3.517,-3.527,-3.5077,-3.4843,-3.5003,-3.5259,-3.5442,-3.5422,-3.5489,-3.5566,-3.5726,-3.5853,-3.5529,-3.5477,-3.5363,-3.5019,-3.4077,-3.3038,-3.2411,-3.1806,-3.1503,-3.1139,-3.5639,-3.5639,-3.5639,-3.5639,-3.5639,-3.5639,-3.5639,-3.5639,-3.5639,-3.5639,-3.5639,-3.5639,-3.5639,-3.5639,-3.5639,-3.5639,-3.5639,-3.5639,-3.5639,-3.5622,-3.5622,-3.5622,-3.5667,-3.5622,-3.5622,-3.5639,-3.5566,-3.5492,-3.5475,-3.5383,-3.5308,-3.5245,-3.5135,-3.5041,-3.4994,-3.4899,-3.4818,-3.4653,-3.4074,-3.3346,-3.2668,-3.1891,-3.1219,-3.0575,-3.0518,-3.0468,-3.0468,-3.0535,-3.0716,-3.1055,-3.1055,-3.0975,-3.0912,-3.0912,-3.0952,-3.0895,-3.0912,-3.0871,-3.1039,-3.1498,-3.1842,-3.1985,-3.2605,-3.2998,-3.3081,-3.3562,-3.3922,-3.391,-3.4383,-3.4844,-3.5031,-3.5124,-3.4908,-3.4489,-3.4765,-3.4497,-3.3447,-3.3223,-3.2927,-3.2351,-3.2038,-3.2108,-3.2477,-3.2494,-3.263,-3.2847,-3.3112,-3.3342,-3.3527,-3.3796,-3.3715,-3.3863,-3.4144,-3.4345,-3.4531,-3.4614,-3.4409,-3.4607,-3.4812,-3.5018,-3.5235,-3.535,-3.5226,-3.5417,-3.5449,-3.5178,-3.4828,-3.4573,-3.4051,-3.3027,-3.2202,-3.1636,-3.1304,-3.1053,-3.0928,-3.5639,-3.5639,-3.5639,-3.5639,-3.5639,-3.5639,-3.5639,-3.5639,-3.5639,-3.5639,-3.5639,-3.5639,-3.5639,-3.5639,-3.5639,-3.5639,-3.5594,-3.5577,-3.5639,-3.5577,-3.5566,-3.5549,-3.5577,-3.5566,-3.552,-3.5475,-3.54,-3.5291,-3.5198,-3.5152,-3.5041,-3.4851,-3.4691,-3.4611,-3.4497,-3.4399,-3.4284,-3.4202,-3.36,-3.3176,-3.2785,-3.1743,-3.1043,-3.0815,-3.0293,-3.0017,-2.9984,-2.9984,-3.0199,-3.0651,-3.0773,-3.0773,-3.0733,-3.0814,-3.0814,-3.0733,-3.0733,-3.0692,-3.0659,-3.0792,-3.0908,-3.0958,-3.1573,-3.1955,-3.1841,-3.2413,-3.2702,-3.2837,-3.3221,-3.3646,-3.3756,-3.3851,-3.3412,-3.2617,-3.2916,-3.3077,-3.2637,-3.2235,-3.1843,-3.1688,-3.16,-3.1637,-3.1674,-3.1768,-3.1896,-3.2021,-3.2248,-3.2521,-3.2702,-3.2908,-3.3105,-3.3291,-3.3538,-3.3689,-3.3852,-3.3983,-3.4099,-3.4293,-3.452,-3.4732,-3.498,-3.5212,-3.4955,-3.4759,-3.4662,-3.4434,-3.3829,-3.338,-3.2599,-3.2055,-3.1581,-3.1129,-3.1031,-3.0837,-3.0826,-3.5639,-3.5639,-3.5639,-3.5639,-3.5639,-3.5639,-3.5639,-3.5639,-3.5639,-3.5639,-3.5639,-3.5639,-3.5639,-3.5639,-3.5639,-3.5594,-3.5566,-3.5549,-3.5503,-3.5475,-3.5383,-3.5367,-3.5412,-3.5446,-3.5383,-3.5291,-3.5198,-3.5041,-3.4851,-3.4804,-3.4643,-3.4448,-3.425,-3.4117,-3.405,-3.3848,-3.3745,-3.3681,-3.3297,-3.3024,-3.2624,-3.1886,-3.115,-3.0717,-3.0108,-2.9836,-2.9563,-2.9499,-2.9722,-3.013,-3.0359,-3.0401,-3.0401,-3.0526,-3.0526,-3.0443,-3.0401,-3.0359,-3.0258,-3.0199,-3.0199,-3.0264,-3.0642,-3.0773,-3.0849,-3.1254,-3.1556,-3.1575,-3.1983,-3.2289,-3.2385,-3.2351,-3.1984,-3.1522,-3.1331,-3.1399,-3.158,-3.1234,-3.1038,-3.1004,-3.1004,-3.1021,-3.1078,-3.1201,-3.1317,-3.1452,-3.1677,-3.1913,-3.2127,-3.2368,-3.2583,-3.2763,-3.297,-3.3166,-3.3361,-3.3522,-3.3762,-3.3972,-3.4011,-3.4263,-3.4545,-3.4821,-3.4446,-3.4076,-3.3913,-3.3558,-3.2865,-3.2357,-3.204,-3.1535,-3.1058,-3.0857,-3.0818,-3.0801,-3.0767,-3.5639,-3.5639,-3.5639,-3.5639,-3.5639,-3.5639,-3.5639,-3.5639,-3.5639,-3.5639,-3.5622,-3.5577,-3.5594,-3.5577,-3.5549,-3.5503,-3.5475,-3.5475,-3.5383,-3.5245,-3.5135,-3.5088,-3.5105,-3.5198,-3.5105,-3.5011,-3.4899,-3.4643,-3.4448,-3.4284,-3.4151,-3.4,-3.3745,-3.3642,-3.3591,-3.3398,-3.3256,-3.3309,-3.3177,-3.2877,-3.2399,-3.2006,-3.136,-3.0368,-2.988,-2.9533,-2.9201,-2.9137,-2.9259,-2.9677,-2.9842,-2.9973,-2.9973,-3.0119,-3.0103,-3.0017,-2.9957,-2.9913,-2.9766,-2.9722,-2.9705,-2.9738,-2.9738,-2.9722,-2.9871,-3.0186,-3.0352,-3.0368,-3.0767,-3.11,-3.123,-3.091,-3.073,-3.0545,-3.0089,-3.0006,-3.0199,-3.0284,-3.0225,-3.0208,-3.0225,-3.0284,-3.0384,-3.051,-3.0716,-3.0845,-3.1067,-3.1317,-3.1528,-3.1771,-3.1986,-3.2231,-3.2435,-3.2699,-3.2908,-3.3081,-3.3368,-3.3606,-3.3519,-3.3666,-3.3899,-3.4017,-3.3743,-3.3429,-3.2894,-3.2358,-3.1795,-3.1426,-3.1312,-3.1201,-3.0837,-3.0794,-3.0796,-3.08,-3.0771,-3.5639,-3.5639,-3.5639,-3.5639,-3.5639,-3.5639,-3.5622,-3.5577,-3.5639,-3.5577,-3.5594,-3.5549,-3.552,-3.5537,-3.5429,-3.5337,-3.5291,-3.5291,-3.5245,-3.4994,-3.4835,-3.4643,-3.4611,-3.4707,-3.4756,-3.4611,-3.4497,-3.4234,-3.3949,-3.3848,-3.3694,-3.3487,-3.3293,-3.3203,-3.3187,-3.3043,-3.3005,-3.2935,-3.285,-3.2703,-3.2415,-3.1874,-3.1269,-3.0309,-2.9477,-2.8997,-2.8889,-2.8873,-2.892,-2.9091,-2.935,-2.956,-2.971,-2.9826,-2.9766,-2.9649,-2.9605,-2.9515,-2.9305,-2.9243,-2.9243,-2.9243,-2.9243,-2.9259,-2.9243,-2.9216,-2.9249,-2.9344,-2.9752,-3.0112,-3.0209,-3.0227,-2.9959,-2.964,-2.9386,-2.9243,-2.9303,-2.9528,-2.9705,-2.9677,-2.9677,-2.9722,-2.981,-2.9897,-3.007,-3.0241,-3.0452,-3.0699,-3.0908,-3.1133,-3.1397,-3.1603,-3.1877,-3.2144,-3.2401,-3.2565,-3.2831,-3.2967,-3.292,-3.2535,-3.2765,-3.2973,-3.2617,-3.2181,-3.167,-3.1193,-3.0893,-3.0797,-3.0752,-3.0673,-3.0685,-3.0726,-3.0746,-3.0771,-3.0801,-3.5639,-3.5622,-3.5532,-3.5549,-3.5549,-3.5503,-3.5475,-3.5458,-3.5441,-3.5458,-3.5458,-3.5429,-3.5337,-3.5308,-3.5245,-3.5152,-3.4994,-3.4899,-3.4756,-3.4594,-3.4399,-3.4201,-3.405,-3.4101,-3.4101,-3.4084,-3.405,-3.3813,-3.3487,-3.3314,-3.314,-3.2942,-3.2796,-3.2687,-3.2633,-3.2539,-3.2444,-3.2444,-3.2358,-3.2342,-3.221,-3.1925,-3.1136,-3.025,-2.9296,-2.8716,-2.8442,-2.8411,-2.8444,-2.8573,-2.8748,-2.9013,-2.9289,-2.9425,-2.938,-2.9227,-2.9152,-2.9059,-2.8889,-2.8811,-2.8763,-2.8763,-2.8763,-2.8763,-2.8748,-2.8653,-2.859,-2.862,-2.8819,-2.9018,-2.9131,-2.9164,-2.8964,-2.8904,-2.8763,-2.87,-2.8685,-2.8951,-2.912,-2.9028,-2.9028,-2.909,-2.9182,-2.9319,-2.9499,-2.9677,-2.9722,-2.9968,-3.0241,-3.0485,-3.0723,-3.0982,-3.1291,-3.1579,-3.186,-3.2092,-3.2254,-3.225,-3.2109,-3.1459,-3.1002,-3.1232,-3.1388,-3.1048,-3.0751,-3.0557,-3.0319,-3.0248,-3.0348,-3.0472,-3.0579,-3.0652,-3.0706,-3.0747,-3.0765,-3.5594,-3.5549,-3.5475,-3.5446,-3.5446,-3.5337,-3.5291,-3.5291,-3.5261,-3.5228,-3.5245,-3.5198,-3.5088,-3.5058,-3.4947,-3.4851,-3.4594,-3.4349,-3.4201,-3.4201,-3.3949,-3.3745,-3.3607,-3.3539,-3.3419,-3.3487,-3.3523,-3.333,-3.2996,-3.2819,-3.2656,-3.2492,-3.2287,-3.2247,-3.2135,-3.2094,-3.2053,-3.2109,-3.2038,-3.1996,-3.1996,-3.1849,-3.1243,-3.0342,-2.934,-2.8784,-2.8358,-2.8176,-2.8103,-2.8137,-2.8186,-2.8365,-2.8685,-2.8873,-2.8936,-2.8826,-2.8685,-2.8605,-2.8477,-2.8396,-2.8299,-2.8299,-2.8299,-2.8348,-2.8299,-2.8284,-2.8235,-2.8186,-2.8244,-2.8179,-2.8152,-2.8278,-2.8262,-2.825,-2.825,-2.8186,-2.8171,-2.835,-2.8398,-2.8431,-2.8431,-2.8431,-2.8574,-2.8716,-2.892,-2.9059,-2.9152,-2.9243,-2.9544,-2.981,-3.0054,-3.0284,-3.0576,-3.0998,-3.1338,-3.1246,-3.1464,-3.13,-3.1211,-3.0432,-2.959,-2.9647,-2.9935,-3.0194,-3.0018,-2.9886,-2.9905,-3.0026,-3.0144,-3.0325,-3.0452,-3.0518,-3.061,-3.0716,-3.0743,-3.5429,-3.5337,-3.5337,-3.5337,-3.5291,-3.5198,-3.5088,-3.5105,-3.4994,-3.4947,-3.4947,-3.4835,-3.4787,-3.4691,-3.4497,-3.4333,-3.4151,-3.3899,-3.3797,-3.3745,-3.3539,-3.3346,-3.3187,-3.2996,-3.2803,-3.2711,-3.2819,-3.2765,-3.2563,-3.2398,-3.2231,-3.2135,-3.2038,-3.1981,-3.1981,-3.1996,-3.194,-3.194,-3.1883,-3.1856,-3.1784,-3.1667,-3.1279,-3.0488,-2.9524,-2.8973,-2.8743,-2.8273,-2.8005,-2.8005,-2.8069,-2.8069,-2.8186,-2.8381,-2.8429,-2.8365,-2.8268,-2.8186,-2.8103,-2.7955,-2.7955,-2.8005,-2.7955,-2.794,-2.8005,-2.802,-2.7955,-2.7955,-2.7955,-2.7955,-2.789,-2.784,-2.7775,-2.7775,-2.771,-2.7645,-2.7565,-2.758,-2.7725,-2.7745,-2.776,-2.7875,-2.8008,-2.8155,-2.8286,-2.8479,-2.8574,-2.8622,-2.8795,-2.9058,-2.9332,-2.9556,-2.9821,-3.0293,-3.0788,-3.0569,-3.0463,-3.0179,-2.9916,-2.9397,-2.8684,-2.8359,-2.8452,-2.8937,-2.9318,-2.939,-2.9495,-2.9715,-2.9934,-3.0109,-3.0241,-3.0378,-3.0501,-3.0595,-3.0728,-3.5337,-3.5198,-3.5152,-3.5058,-3.4994,-3.4851,-3.4739,-3.4707,-3.4594,-3.4546,-3.4497,-3.4399,-3.4349,-3.4234,-3.4101,-3.3915,-3.3658,-3.3503,-3.3398,-3.3346,-3.3065,-3.285,-3.2742,-3.2547,-3.2413,-3.2262,-3.2247,-3.2302,-3.2191,-3.2053,-3.1925,-3.1883,-3.1826,-3.1754,-3.1769,-3.1712,-3.1769,-3.1712,-3.1712,-3.167,-3.167,-3.1539,-3.1165,-3.0563,-2.9968,-2.946,-2.9109,-2.8861,-2.839,-2.8151,-2.8047,-2.7867,-2.7775,-2.772,-2.7855,-2.794,-2.784,-2.774,-2.7705,-2.7554,-2.7539,-2.7539,-2.7539,-2.7539,-2.7539,-2.759,-2.759,-2.759,-2.759,-2.7539,-2.7488,-2.7437,-2.7335,-2.7284,-2.7218,-2.7137,-2.7019,-2.693,-2.693,-2.71,-2.7152,-2.7321,-2.7524,-2.7625,-2.771,-2.786,-2.7959,-2.8042,-2.8091,-2.8319,-2.8622,-2.8919,-2.9146,-2.9442,-2.9823,-2.9603,-2.9328,-2.9047,-2.8767,-2.8233,-2.7883,-2.7577,-2.7665,-2.8007,-2.8332,-2.8753,-2.9151,-2.9416,-2.9662,-2.9907,-3.0056,-3.0203,-3.0348,-3.0482,-3.061,-3.5152,-3.4994,-3.4851,-3.4691,-3.4594,-3.4448,-3.43,-3.425,-3.4201,-3.4101,-3.4,-3.3949,-3.3899,-3.3729,-3.3575,-3.3366,-3.3134,-3.2973,-3.292,-3.2866,-3.2617,-3.2398,-3.2287,-3.2191,-3.2038,-3.2012,-3.1826,-3.1841,-3.194,-3.1841,-3.1784,-3.1712,-3.1582,-3.1467,-3.1524,-3.1524,-3.1467,-3.1467,-3.1467,-3.1482,-3.1482,-3.1437,-3.1243,-3.0619,-3.0372,-2.9959,-2.9529,-2.9094,-2.8744,-2.8395,-2.8165,-2.7944,-2.7401,-2.7269,-2.7366,-2.7452,-2.7335,-2.7299,-2.7233,-2.713,-2.7063,-2.71,-2.7049,-2.7063,-2.7115,-2.7181,-2.7196,-2.7181,-2.7181,-2.7181,-2.713,-2.6974,-2.687,-2.6765,-2.6698,-2.6578,-2.6472,-2.6365,-2.6218,-2.6326,-2.65,-2.6698,-2.6841,-2.6945,-2.6997,-2.7137,-2.7276,-2.7342,-2.7378,-2.763,-2.7932,-2.8227,-2.8467,-2.8595,-2.8683,-2.8494,-2.8168,-2.7786,-2.7559,-2.7232,-2.7063,-2.6908,-2.7098,-2.7348,-2.7718,-2.8139,-2.8634,-2.9082,-2.9336,-2.957,-2.9836,-3.0041,-3.0203,-3.0348,-3.051,-3.4851,-3.4756,-3.4513,-3.4349,-3.43,-3.4101,-3.3949,-3.3949,-3.3813,-3.371,-3.3555,-3.3555,-3.3503,-3.333,-3.3033,-3.2857,-3.2672,-3.2468,-3.2358,-3.2358,-3.2191,-3.2094,-3.2053,-3.1898,-3.1841,-3.1784,-3.1655,-3.167,-3.1712,-3.1655,-3.1539,-3.1524,-3.1524,-3.1467,-3.1467,-3.1467,-3.1467,-3.1467,-3.1467,-3.1467,-3.1351,-3.1292,-3.116,-3.0924,-3.0468,-3.0087,-2.9881,-2.9373,-2.8837,-2.8706,-2.8606,-2.8245,-2.7752,-2.7512,-2.7043,-2.6833,-2.675,-2.6989,-2.6803,-2.6683,-2.663,-2.6683,-2.663,-2.6683,-2.6736,-2.687,-2.6989,-2.7181,-2.7093,-2.6937,-2.6765,-2.6645,-2.6472,-2.6326,-2.6165,-2.6056,-2.6002,-2.5825,-2.5674,-2.5592,-2.5743,-2.5907,-2.6096,-2.6165,-2.6258,-2.6404,-2.6549,-2.6616,-2.6721,-2.6967,-2.7083,-2.7429,-2.7527,-2.7659,-2.741,-2.7259,-2.7034,-2.6584,-2.6442,-2.6322,-2.6327,-2.6332,-2.6556,-2.6824,-2.7144,-2.7572,-2.8094,-2.8511,-2.8906,-2.918,-2.9345,-2.9687,-3.006,-3.0184,-3.0042,-3.4804,-3.4546,-3.43,-3.4101,-3.3949,-3.3745,-3.3607,-3.345,-3.3414,-3.3309,-3.315,-3.315,-3.3027,-3.278,-3.2547,-3.2398,-3.2247,-3.215,-3.2094,-3.2038,-3.194,-3.1898,-3.1841,-3.1727,-3.1655,-3.1597,-3.1524,-3.1524,-3.1597,-3.1524,-3.1467,-3.1467,-3.1467,-3.1467,-3.1467,-3.1467,-3.1467,-3.1467,-3.1409,-3.1336,-3.1278,-3.1102,-3.0999,-3.0895,-3.047,-3.022,-3.0045,-2.9707,-2.9158,-2.8913,-2.8681,-2.831,-2.7854,-2.7584,-2.7244,-2.6428,-2.6469,-2.6479,-2.629,-2.6218,-2.6204,-2.6204,-2.6204,-2.6204,-2.6312,-2.6433,-2.6553,-2.6645,-2.6539,-2.6447,-2.6394,-2.6165,-2.5934,-2.5756,-2.566,-2.5564,-2.5453,-2.5286,-2.5131,-2.5032,-2.4989,-2.5131,-2.5286,-2.5439,-2.5536,-2.5742,-2.5837,-2.5837,-2.6014,-2.619,-2.6341,-2.6468,-2.6519,-2.6527,-2.6213,-2.5901,-2.5879,-2.56,-2.558,-2.5519,-2.5749,-2.5844,-2.6026,-2.626,-2.659,-2.7,-2.7525,-2.7958,-2.8334,-2.8585,-2.8823,-2.8952,-2.9044,-2.8793,-2.8729,-3.4756,-3.4497,-3.4201,-3.3899,-3.3642,-3.345,-3.3256,-3.3043,-3.2989,-3.2881,-3.2773,-3.2734,-3.2539,-3.2302,-3.2206,-3.2038,-3.194,-3.1883,-3.1883,-3.1826,-3.1784,-3.1727,-3.167,-3.1597,-3.1524,-3.1467,-3.1524,-3.1524,-3.1524,-3.1467,-3.1467,-3.1467,-3.1467,-3.1467,-3.1467,-3.1467,-3.1482,-3.1409,-3.1351,-3.1219,-3.1102,-3.0866,-3.0687,-3.0507,-3.0326,-3.0129,-3.0068,-2.9766,-2.9299,-2.9026,-2.8717,-2.8288,-2.7774,-2.7649,-2.7252,-2.648,-2.6246,-2.5958,-2.5784,-2.5703,-2.5702,-2.5674,-2.5674,-2.5715,-2.5825,-2.5893,-2.6002,-2.6165,-2.6042,-2.5934,-2.5879,-2.5674,-2.5495,-2.5258,-2.5147,-2.4991,-2.4821,-2.4721,-2.462,-2.4518,-2.4403,-2.4345,-2.4492,-2.4664,-2.4821,-2.5077,-2.5133,-2.5133,-2.5287,-2.5412,-2.55,-2.5578,-2.5394,-2.5345,-2.509,-2.4744,-2.4679,-2.471,-2.4688,-2.4808,-2.5036,-2.531,-2.5518,-2.5749,-2.5997,-2.6099,-2.6396,-2.7068,-2.7709,-2.7802,-2.7848,-2.782,-2.7772,-2.7544,-2.765,-3.4756,-3.4448,-3.4101,-3.3745,-3.3487,-3.3256,-3.3058,-3.2843,-3.2672,-3.2563,-3.2413,-3.2206,-3.2109,-3.1996,-3.1883,-3.1841,-3.1799,-3.1597,-3.1597,-3.1597,-3.1539,-3.1539,-3.1524,-3.1524,-3.1467,-3.1467,-3.1467,-3.1467,-3.1467,-3.1467,-3.1467,-3.1467,-3.1467,-3.1467,-3.1467,-3.1467,-3.1409,-3.1336,-3.1292,-3.1043,-3.0807,-3.0568,-3.0326,-2.9946,-2.9808,-2.9761,-2.9651,-2.9275,-2.9107,-2.8906,-2.8625,-2.8257,-2.7767,-2.7623,-2.7174,-2.6566,-2.6029,-2.5661,-2.5314,-2.5135,-2.5075,-2.5061,-2.5061,-2.5104,-2.5272,-2.5356,-2.5536,-2.5605,-2.5481,-2.5412,-2.537,-2.5216,-2.4935,-2.4765,-2.465,-2.4536,-2.4376,-2.4157,-2.4054,-2.3936,-2.3878,-2.3936,-2.3806,-2.4028,-2.4144,-2.4408,-2.4337,-2.4394,-2.4513,-2.463,-2.46,-2.4553,-2.4231,-2.4099,-2.3963,-2.379,-2.3688,-2.3887,-2.4006,-2.4184,-2.4395,-2.4661,-2.4965,-2.5114,-2.5314,-2.5248,-2.5208,-2.5618,-2.608,-2.6623,-2.6802,-2.6643,-2.673,-2.6698,-2.6988,-3.4947,-3.4594,-3.43,-3.3848,-3.3346,-3.3096,-3.2773,-3.2484,-3.2413,-3.2302,-3.215,-3.194,-3.1898,-3.1841,-3.1727,-3.1597,-3.1597,-3.1539,-3.1524,-3.1467,-3.1467,-3.1467,-3.1467,-3.1467,-3.1467,-3.1467,-3.1467,-3.1467,-3.1467,-3.1467,-3.1467,-3.1467,-3.1467,-3.1467,-3.1467,-3.1467,-3.1409,-3.1292,-3.1058,-3.0821,-3.0447,-3.0083,-2.9775,-2.9401,-2.9184,-2.9135,-2.8972,-2.8766,-2.8638,-2.8495,-2.8314,-2.7931,-2.7706,-2.7601,-2.718,-2.654,-2.6109,-2.5579,-2.4879,-2.4596,-2.4434,-2.4478,-2.4478,-2.4478,-2.465,-2.4694,-2.4794,-2.4851,-2.4851,-2.4781,-2.4681,-2.458,-2.4363,-2.4261,-2.4144,-2.4086,-2.391,-2.376,-2.3641,-2.3582,-2.3641,-2.3628,-2.3509,-2.3378,-2.3556,-2.3675,-2.3662,-2.3649,-2.3761,-2.3689,-2.3593,-2.3392,-2.3068,-2.2766,-2.2636,-2.2644,-2.2709,-2.3024,-2.3334,-2.3551,-2.3782,-2.4082,-2.439,-2.4536,-2.4508,-2.4403,-2.4291,-2.4116,-2.4516,-2.5342,-2.5483,-2.5306,-2.5466,-2.578,-2.6129,-3.5105,-3.4739,-3.4399,-3.3949,-3.3361,-3.3058,-3.2718,-3.2358,-3.2206,-3.2038,-3.1826,-3.1769,-3.1727,-3.1655,-3.1597,-3.1539,-3.1524,-3.1524,-3.1467,-3.1467,-3.1467,-3.1467,-3.1467,-3.1467,-3.1467,-3.1467,-3.1467,-3.1467,-3.1467,-3.1467,-3.1467,-3.1467,-3.1467,-3.1467,-3.1467,-3.1467,-3.1351,-3.1176,-3.094,-3.0507,-3.0129,-2.9775,-2.9352,-2.8958,-2.8688,-2.8481,-2.8379,-2.8118,-2.7973,-2.7908,-2.7723,-2.759,-2.7523,-2.7351,-2.7035,-2.671,-2.6231,-2.5665,-2.4962,-2.4189,-2.3903,-2.3826,-2.378,-2.3839,-2.3956,-2.4015,-2.4131,-2.4189,-2.4118,-2.406,-2.406,-2.4015,-2.3969,-2.3923,-2.3806,-2.3688,-2.3556,-2.339,-2.333,-2.3271,-2.3271,-2.3223,-2.3017,-2.2896,-2.2823,-2.2944,-2.2957,-2.2932,-2.293,-2.277,-2.2388,-2.2172,-2.1875,-2.1561,-2.1314,-2.1595,-2.1894,-2.2249,-2.2558,-2.2889,-2.3172,-2.348,-2.3769,-2.3918,-2.3856,-2.3631,-2.338,-2.3119,-2.3584,-2.4269,-2.4287,-2.4329,-2.4584,-2.4891,-2.5042,-3.5152,-3.4851,-3.4513,-3.4,-3.3487,-3.3203,-3.2866,-3.2484,-3.215,-3.1826,-3.1597,-3.1524,-3.1524,-3.1539,-3.1524,-3.1467,-3.1467,-3.1467,-3.1467,-3.1467,-3.1467,-3.1467,-3.1467,-3.1467,-3.1467,-3.1467,-3.1467,-3.1467,-3.1467,-3.1467,-3.1467,-3.1467,-3.1467,-3.1467,-3.1482,-3.1351,-3.1234,-3.1073,-3.0747,-3.0312,-2.9808,-2.9449,-2.9008,-2.8573,-2.8235,-2.8039,-2.7789,-2.759,-2.7456,-2.739,-2.7201,-2.7066,-2.7011,-2.6943,-2.6824,-2.6773,-2.6114,-2.5624,-2.541,-2.4191,-2.346,-2.315,-2.3125,-2.3125,-2.3198,-2.3271,-2.339,-2.3437,-2.3497,-2.3556,-2.3569,-2.3569,-2.3569,-2.3509,-2.339,-2.3343,-2.3163,-2.3103,-2.3042,-2.2982,-2.286,-2.2678,-2.2543,-2.2347,-2.2211,-2.2211,-2.2247,-2.2211,-2.2151,-2.1752,-2.1262,-2.0994,-2.0727,-2.0509,-2.0398,-2.0785,-2.1091,-2.1444,-2.1779,-2.2095,-2.2434,-2.2768,-2.3009,-2.326,-2.2993,-2.2586,-2.2339,-2.205,-2.2556,-2.3046,-2.3424,-2.3575,-2.3798,-2.4098,-2.4388,-3.5291,-3.4994,-3.4804,-3.4399,-3.3899,-3.3398,-3.2973,-3.2468,-3.2053,-3.1727,-3.1524,-3.1467,-3.1467,-3.1467,-3.1467,-3.1467,-3.1467,-3.1467,-3.1467,-3.1467,-3.1467,-3.1467,-3.1467,-3.1467,-3.1467,-3.1467,-3.1467,-3.1467,-3.1467,-3.1467,-3.1467,-3.1467,-3.1409,-3.1409,-3.1409,-3.1351,-3.1176,-3.0866,-3.0447,-3.0007,-2.9401,-2.9008,-2.856,-2.7921,-2.7723,-2.7523,-2.7335,-2.7134,-2.6998,-2.6863,-2.6726,-2.6589,-2.6521,-2.6452,-2.6327,-2.6258,-2.5822,-2.5499,-2.4792,-2.3636,-2.2747,-2.2578,-2.2482,-2.2482,-2.2555,-2.2555,-2.2616,-2.2678,-2.2787,-2.2848,-2.2787,-2.2909,-2.2969,-2.2969,-2.2921,-2.2921,-2.2873,-2.2812,-2.2812,-2.2739,-2.2616,-2.2235,-2.2037,-2.1726,-2.1526,-2.1325,-2.1348,-2.1411,-2.1365,-2.067,-2.0123,-1.991,-1.9642,-1.948,-1.9497,-1.985,-2.0232,-2.0597,-2.0944,-2.1334,-2.167,-2.1955,-2.2282,-2.2529,-2.2062,-2.1536,-2.1338,-2.1197,-2.1399,-2.1793,-2.2324,-2.2954,-2.3397,-2.3741,-2.4098,-3.54,-3.5198,-3.5011,-3.4691,-3.4234,-3.371,-3.3065,-3.2398,-3.2053,-3.1784,-3.1597,-3.1524,-3.1467,-3.1467,-3.1467,-3.1467,-3.1467,-3.1467,-3.1467,-3.1467,-3.1467,-3.1467,-3.1467,-3.1467,-3.1467,-3.1467,-3.1409,-3.1409,-3.1366,-3.1351,-3.1366,-3.1307,-3.1292,-3.1307,-3.1307,-3.1176,-3.0999,-3.0628,-3.0251,-2.9761,-2.9149,-2.8638,-2.8118,-2.7669,-2.7335,-2.7121,-2.6863,-2.6739,-2.6589,-2.644,-2.6314,-2.6176,-2.6037,-2.5955,-2.5828,-2.5898,-2.5639,-2.5175,-2.408,-2.344,-2.2589,-2.1859,-2.1816,-2.1874,-2.1874,-2.1862,-2.1874,-2.1925,-2.2049,-2.2111,-2.2173,-2.2347,-2.2482,-2.2494,-2.2494,-2.2506,-2.2432,-2.2432,-2.2359,-2.2297,-2.2161,-2.1776,-2.14,-2.1158,-2.0839,-2.0646,-2.0453,-2.0506,-2.0493,-1.9845,-1.9242,-1.9041,-1.8783,-1.86,-1.8625,-1.891,-1.9319,-1.9734,-2.0093,-2.0497,-2.0845,-2.1126,-2.1479,-2.1655,-2.1114,-2.0641,-2.0435,-2.0399,-2.0609,-2.1006,-2.1519,-2.2201,-2.2888,-2.3333,-2.3699,-3.5492,-3.5429,-3.5105,-3.4851,-3.4611,-3.3949,-3.3208,-3.2398,-3.2135,-3.1955,-3.1784,-3.1597,-3.1524,-3.1524,-3.1467,-3.1467,-3.1467,-3.1467,-3.1467,-3.1467,-3.1467,-3.1467,-3.1467,-3.1482,-3.1409,-3.1351,-3.1292,-3.1249,-3.1146,-3.1132,-3.1146,-3.1087,-3.0999,-3.1014,-3.0955,-3.0821,-3.0642,-3.0372,-2.9946,-2.9449,-2.8894,-2.83,-2.7855,-2.739,-2.7053,-2.6714,-2.6452,-2.6314,-2.6107,-2.598,-2.5947,-2.5935,-2.584,-2.5721,-2.5816,-2.5676,-2.5453,-2.459,-2.3804,-2.3258,-2.2396,-2.1599,-2.1201,-2.1179,-2.1158,-2.1158,-2.1158,-2.1221,-2.14,-2.1526,-2.1651,-2.1851,-2.2049,-2.2061,-2.2123,-2.2049,-2.1925,-2.1851,-2.1839,-2.1702,-2.1526,-2.121,-2.0775,-2.0464,-2.0259,-1.9998,-1.9791,-1.9726,-1.9652,-1.916,-1.8627,-1.8452,-1.8148,-1.7734,-1.7843,-1.8104,-1.8483,-1.8898,-1.9214,-1.9579,-1.994,-2.0295,-2.0646,-2.0651,-2.0086,-1.9773,-1.9731,-1.9733,-1.9858,-2.0317,-2.0879,-2.1576,-2.2327,-2.2855,-2.3264,-3.5566,-3.5492,-3.54,-3.5152,-3.4739,-3.405,-3.3314,-3.2695,-3.2398,-3.2094,-3.1799,-3.1727,-3.1597,-3.1467,-3.1467,-3.1467,-3.1467,-3.1467,-3.1467,-3.1467,-3.1467,-3.1409,-3.1409,-3.1351,-3.1307,-3.119,-3.1132,-3.1073,-3.1014,-3.0955,-3.0836,-3.0762,-3.0582,-3.0582,-3.0447,-3.0266,-3.019,-3.0007,-2.9574,-2.9071,-2.8573,-2.7973,-2.7523,-2.7134,-2.6714,-2.644,-2.6176,-2.5898,-2.5688,-2.5548,-2.5394,-2.5253,-2.5135,-2.5064,-2.5064,-2.5064,-2.4754,-2.4241,-2.3709,-2.2961,-2.2166,-2.148,-2.0885,-2.0401,-2.038,-2.041,-2.0475,-2.056,-2.0688,-2.0816,-2.088,-2.1083,-2.1285,-2.1348,-2.1348,-2.1348,-2.1273,-2.125,-2.1239,-2.1094,-2.0914,-2.0571,-2.0194,-1.9933,-1.9736,-1.9407,-1.9208,-1.9065,-1.8861,-1.8417,-1.808,-1.7901,-1.7413,-1.6938,-1.7011,-1.7279,-1.7678,-1.8116,-1.8375,-1.875,-1.9109,-1.9475,-1.9786,-1.9747,-1.9412,-1.9248,-1.9114,-1.9173,-1.9207,-1.9717,-2.028,-2.1007,-2.1694,-2.2262,-2.2805,-3.5594,-3.5503,-3.5492,-3.5245,-3.4835,-3.4201,-3.3626,-3.314,-3.2617,-3.2247,-3.1996,-3.1856,-3.167,-3.1524,-3.1467,-3.1467,-3.1467,-3.1467,-3.1467,-3.1467,-3.1467,-3.1409,-3.1351,-3.1292,-3.1117,-3.1014,-3.0895,-3.0762,-3.0717,-3.0522,-3.0326,-3.0266,-3.0083,-3.0021,-2.996,-2.9713,-2.956,-2.9435,-2.9121,-2.8688,-2.817,-2.7656,-2.7268,-2.6794,-2.644,-2.6176,-2.5828,-2.5535,-2.5253,-2.504,-2.4814,-2.4671,-2.4562,-2.4562,-2.449,-2.4418,-2.4189,-2.3813,-2.3356,-2.275,-2.2071,-2.1397,-2.0658,-2.0302,-1.9965,-1.9913,-1.9799,-1.9791,-1.9911,-2.0031,-2.0107,-2.0248,-2.0388,-2.0518,-2.0518,-2.0582,-2.0613,-2.0643,-2.0549,-2.0486,-2.0292,-1.9944,-1.9671,-1.9407,-1.9208,-1.8942,-1.8741,-1.8607,-1.8314,-1.7897,-1.7614,-1.743,-1.6787,-1.6192,-1.6353,-1.6503,-1.6832,-1.7224,-1.7501,-1.7875,-1.8267,-1.8596,-1.8919,-1.8956,-1.8875,-1.8721,-1.8532,-1.8467,-1.8549,-1.908,-1.966,-2.0299,-2.099,-2.1698,-2.2279,-3.5622,-3.5577,-3.552,-3.5291,-3.4899,-3.4497,-3.405,-3.3642,-3.2888,-3.2358,-3.2191,-3.194,-3.1727,-3.1597,-3.1524,-3.1467,-3.1467,-3.1467,-3.1467,-3.1467,-3.1467,-3.1409,-3.1292,-3.1234,-3.0999,-3.0702,-3.0522,-3.0387,-3.0097,-2.9898,-2.9808,-2.9747,-2.9574,-2.9526,-2.9415,-2.9212,-2.9008,-2.8803,-2.861,-2.83,-2.7908,-2.7456,-2.6985,-2.6508,-2.6176,-2.591,-2.5394,-2.5028,-2.4743,-2.4478,-2.4273,-2.4116,-2.4043,-2.4043,-2.397,-2.3824,-2.3604,-2.3298,-2.2927,-2.2392,-2.1774,-2.1267,-2.067,-2.0189,-1.9849,-1.9497,-1.9432,-1.922,-1.9343,-1.9285,-1.932,-1.9396,-1.9528,-1.9594,-1.9649,-1.9649,-1.9704,-1.9759,-1.9813,-1.9779,-1.9626,-1.9274,-1.9075,-1.8808,-1.8674,-1.8482,-1.8279,-1.8144,-1.7831,-1.7471,-1.7175,-1.6884,-1.6304,-1.5743,-1.573,-1.5826,-1.5979,-1.6255,-1.6652,-1.7,-1.7324,-1.7686,-1.8028,-1.8187,-1.8361,-1.8134,-1.7978,-1.802,-1.8138,-1.8486,-1.9006,-1.9558,-2.023,-2.1023,-2.1715,-3.5639,-3.5594,-3.5537,-3.5337,-3.4994,-3.4594,-3.425,-3.3797,-3.3346,-3.2796,-3.2342,-3.2094,-3.1898,-3.1712,-3.1524,-3.1467,-3.1467,-3.1467,-3.1467,-3.1467,-3.1467,-3.1366,-3.119,-3.1132,-3.0821,-3.0507,-3.0205,-2.996,-2.9574,-2.9435,-2.9247,-2.9058,-2.9008,-2.8958,-2.8844,-2.8573,-2.843,-2.8235,-2.7973,-2.7842,-2.759,-2.7255,-2.6863,-2.6371,-2.6025,-2.5606,-2.5099,-2.4599,-2.425,-2.3897,-2.3604,-2.3446,-2.3298,-2.3298,-2.3298,-2.315,-2.299,-2.2703,-2.2402,-2.2035,-2.1552,-2.104,-2.0546,-2.0102,-1.9688,-1.9384,-1.9121,-1.8942,-1.8753,-1.869,-1.861,-1.8677,-1.8657,-1.8704,-1.8751,-1.8751,-1.8808,-1.8885,-1.906,-1.8983,-1.8885,-1.8674,-1.8472,-1.8269,-1.8134,-1.794,-1.7813,-1.7579,-1.7406,-1.713,-1.6693,-1.6408,-1.5879,-1.5434,-1.5308,-1.5263,-1.539,-1.5546,-1.5853,-1.6197,-1.6492,-1.6957,-1.739,-1.7756,-1.792,-1.7711,-1.7656,-1.7787,-1.7946,-1.8153,-1.8408,-1.8968,-1.9522,-2.0246,-2.1007,-3.5639,-3.5577,-3.552,-3.54,-3.5152,-3.4804,-3.4448,-3.405,-3.3658,-3.3187,-3.2687,-3.2302,-3.1996,-3.1784,-3.1597,-3.1467,-3.1467,-3.1467,-3.1467,-3.1467,-3.1467,-3.1307,-3.1205,-3.1028,-3.0657,-3.028,-2.9789,-2.9401,-2.9121,-2.8853,-2.8725,-2.8546,-2.856,-2.8379,-2.8262,-2.8052,-2.7842,-2.7723,-2.7403,-2.7268,-2.7188,-2.693,-2.6589,-2.6164,-2.5816,-2.5324,-2.4754,-2.425,-2.374,-2.3298,-2.3001,-2.2777,-2.2628,-2.2639,-2.2703,-2.2628,-2.2478,-2.2187,-2.1959,-2.1665,-2.1282,-2.0854,-2.0574,-2.0215,-2.0004,-1.9634,-1.9068,-1.886,-1.8552,-1.8427,-1.8356,-1.8427,-1.8165,-1.8139,-1.8052,-1.8064,-1.7988,-1.8066,-1.8154,-1.8086,-1.8066,-1.8124,-1.793,-1.7872,-1.7735,-1.7588,-1.7392,-1.7185,-1.7005,-1.6784,-1.6358,-1.598,-1.5542,-1.5061,-1.4805,-1.472,-1.4837,-1.4974,-1.5118,-1.5517,-1.5864,-1.6389,-1.68,-1.7137,-1.7416,-1.7439,-1.7398,-1.7522,-1.7686,-1.785,-1.8126,-1.8394,-1.8968,-1.9536,-2.0246,-3.5639,-3.5594,-3.552,-3.5446,-3.5291,-3.5041,-3.4707,-3.43,-3.3899,-3.3503,-3.3043,-3.2484,-3.2109,-3.1826,-3.1655,-3.1524,-3.1467,-3.1467,-3.1467,-3.1467,-3.1467,-3.1307,-3.1132,-3.0895,-3.0462,-2.9898,-2.9338,-2.9008,-2.8725,-2.8468,-2.8287,-2.817,-2.8052,-2.7881,-2.7736,-2.7523,-2.739,-2.7255,-2.7066,-2.6875,-2.6726,-2.6658,-2.6383,-2.6037,-2.5606,-2.5194,-2.455,-2.3897,-2.3372,-2.2852,-2.2327,-2.2101,-2.2035,-2.1959,-2.2035,-2.2035,-2.1949,-2.1731,-2.1578,-2.1215,-2.0984,-2.0809,-2.0654,-2.0459,-2.0139,-1.9678,-1.9108,-1.8695,-1.8387,-1.8128,-1.8054,-1.7944,-1.7661,-1.7461,-1.7423,-1.7232,-1.7223,-1.7176,-1.7245,-1.7245,-1.7373,-1.7432,-1.7451,-1.7392,-1.7254,-1.7107,-1.6959,-1.6821,-1.6594,-1.6332,-1.6007,-1.5685,-1.5323,-1.4906,-1.4403,-1.4284,-1.4374,-1.4273,-1.4428,-1.4824,-1.5294,-1.5748,-1.6208,-1.6585,-1.6786,-1.6946,-1.7071,-1.7191,-1.7394,-1.7555,-1.7817,-1.8058,-1.8408,-1.8983,-1.9588,-3.5639,-3.556,-3.5577,-3.552,-3.5429,-3.5152,-3.4851,-3.4448,-3.405,-3.3591,-3.3134,-3.2742,-3.2358,-3.194,-3.1841,-3.1655,-3.1467,-3.1467,-3.1467,-3.1467,-3.1467,-3.1307,-3.1073,-3.0762,-3.019,-2.9574,-2.9022,-2.8638,-2.8352,-2.8105,-2.7789,-2.7656,-2.7536,-2.7416,-2.7214,-2.7066,-2.7011,-2.6863,-2.6726,-2.6589,-2.6396,-2.6314,-2.6233,-2.5873,-2.5382,-2.4826,-2.425,-2.3677,-2.3001,-2.2327,-2.1741,-2.1502,-2.1425,-2.1436,-2.1512,-2.1589,-2.1425,-2.1349,-2.1128,-2.0984,-2.0819,-2.0731,-2.0576,-2.0352,-1.9982,-1.9562,-1.9058,-1.8518,-1.8157,-1.7614,-1.7468,-1.724,-1.7026,-1.6828,-1.6755,-1.639,-1.6237,-1.636,-1.6473,-1.6533,-1.6664,-1.6733,-1.6821,-1.6751,-1.6612,-1.6473,-1.6333,-1.6193,-1.5974,-1.5754,-1.5596,-1.5345,-1.5072,-1.4639,-1.4143,-1.3944,-1.3865,-1.374,-1.3735,-1.4189,-1.4647,-1.5108,-1.5507,-1.6016,-1.6363,-1.662,-1.6751,-1.6928,-1.6997,-1.7178,-1.7503,-1.7757,-1.8031,-1.8369,-1.8945]},{"header":{"parameterUnit":"m.s-1","parameterCategory":1,"la1":31.0,"la2":29.5877,"lo1":-88.7671,"lo2":-86.6584,"dy":0.0162,"dx":0.0185,"nx":115,"ny":88,"refTime":"2024-05-28T12:00:00:Z","depth":0,"parameterNumber":3,"parameterNumberName":"V-component_of_WINDS"},"data":[0.0,0.0,0.0,0.0,0.0,0.0,0.0,0.0,0.0,0.0,0.0,0.0,0.0,0.0,0.0,0.0,0.0,0.0,0.0,0.0,0.0,0.0,0.0,0.0,0.0,0.0,0.0,0.0,0.0,0.0,0.0,0.0,0.0,0.0,0.0,0.0,0.0,0.0,0.0,0.0,0.0,0.0,0.0,0.0,0.0,0.0,0.0,0.0,0.0,0.0,0.0,0.0,0.0,0.0,0.0,0.0,0.0,0.0,0.0,0.0,0.0,0.0,0.0,0.0,0.0,0.0,0.0,0.0,0.0,0.0,0.0,0.0,0.0,0.0,0.0,0.0,0.0,0.0,0.0,0.0,0.0,0.0,0.0,0.0,0.0,0.0,0.0,0.0,0.0,0.0,0.0,0.0,0.0,0.0,0.0,0.0,0.0,0.0,0.0,0.0,0.0,0.0,0.0,0.0,0.0,0.0,0.0,0.0,0.0,0.0,0.0,0.0,0.0,0.0,0.0,0.0,0.0,0.0,0.0,0.0,0.0,0.0,0.0,0.0,0.0,0.0,0.0,0.0,0.0,0.0,0.0,0.0,0.0,0.0,0.0,0.0,0.0,0.0,0.0,0.0,0.0,0.0,0.0,0.0,0.0,0.0,0.0,0.0,0.0,0.0,0.0,0.0,0.0,0.0,0.0,0.0,0.0,0.0,0.0,0.0,0.0,0.0,0.0,0.0,0.0,0.0,0.0,0.0,0.0,0.0,0.0,0.0,0.0,0.0,0.0,0.0,0.0,0.0,0.0,0.0,0.0,0.0,0.0,0.0,0.0,0.0,0.0,0.0,0.0,0.0,0.0,0.0,0.0,0.0,0.0,0.0,0.0,0.0,0.0,0.0,0.0,0.0,0.0,0.0,0.0,0.0,0.0,0.0,0.0,0.0,0.0,0.0,0.0,0.0,0.0,0.0,0.0,0.0,0.0,0.0,0.0,0.0,0.0,0.0,0.0,0.0,0.0,0.0,0.0,0.0,0.0,0.0,0.0,0.0,0.0,0.0,0.0,0.0,0.0,0.0,0.0,0.0,0.0,0.0,0.0,0.0,0.0,0.0,0.0,0.0,0.0,0.0,0.0,0.0,0.0,0.0,0.0,0.0,0.0,0.0,0.0,0.0,0.0,0.0,0.0,0.0,0.0,0.0,0.0,0.0,0.0,0.0,0.0,0.0,0.0,0.0,0.0,0.0,0.0,0.0,0.0,0.0,0.0,0.0,0.0,0.0,0.0,0.0,0.0,0.0,0.0,0.0,0.0,0.0,0.0,0.0,0.0,0.0,0.0,0.0,0.0,0.0,0.0,0.0,0.0,0.0,0.0,0.0,0.0,0.0,0.0,0.0,0.0,0.0,0.0,0.0,0.0,0.0,0.0,0.0,0.0,0.0,0.0,0.0,0.0,0.0,0.0,0.0,0.0,0.0,0.0,0.0,0.0,0.0,0.0,0.0,0.0,0.0,0.0,0.0,0.0,0.0,0.0,0.0,0.0,0.0,0.0,0.0,0.0,0.0,0.0,0.0,0.0,0.0,0.0,0.0,0.0,0.0,0.0,0.0,0.0,0.0,0.0,0.0,0.0,0.0,0.0,0.0,0.0,0.0,0.0,0.0,0.0,0.0,0.0,0.0,0.0,0.0,0.0,0.0,0.0,0.0,0.0,0.0,0.0,0.0,0.0,0.0,0.0,0.0,0.0,0.0,0.0,0.0,0.0,0.0,0.0,0.0,0.0,0.0,0.0,0.0,0.0,0.0,0.0,0.0,0.0,0.0,0.0,0.0,0.0,0.0,0.0,0.0,0.0,0.0,0.0,0.0,0.0,0.0,0.0,0.0,0.0,0.0,0.0,0.0,0.0,0.0,0.0,0.0,0.0,0.0,0.0,0.0,0.0,0.0,0.0,0.0,0.0,0.0,0.0,0.0,0.0,0.0,0.0,0.0,0.0,0.0,0.0,0.0,0.0,0.0,0.0,0.0,0.0,0.0,0.0,0.0,0.0,0.0,0.0,0.0,0.0,0.0,0.0,0.0,0.0,0.0,0.0,0.0,0.0,0.0,0.0,0.0,0.0,0.0,0.0,0.0,0.0,0.0,0.0,0.0,0.0,0.0,0.0,0.0,0.0,0.0,0.0,0.0,0.0,0.0,0.0,0.0,0.0,0.0,0.0,0.0,0.0,0.0,0.0,0.0,0.0,0.0,0.0,0.0,0.0,0.0,0.0,0.0,0.0,0.0,0.0,0.0,0.0,0.0,0.0,0.0,0.0,0.0,0.0,0.0,0.0,0.0,0.0,0.0,0.0,0.0,0.0,0.0,0.0,0.0,0.0,0.0,0.0,0.0,0.0,0.0,0.0,0.0,0.0,0.0,0.0,0.0,0.0,0.0,0.0,0.0,0.0,0.0,0.0,0.0,0.0,0.0,0.0,0.0,0.0,0.0,0.0,0.0,0.0,0.0,0.0,0.0,0.0,0.0,0.0,0.0,0.0,0.0,0.0,0.0,0.0,0.0,0.0,0.0,0.0,0.0,0.0,0.0,0.0,0.0,0.0,0.0,0.0,0.0,0.0,0.0,0.0,0.0,0.0,0.0,0.0,0.0,0.0,0.0,0.0,0.0,0.0,0.0,0.0,0.0,0.0,0.0,0.0,0.0,0.0,0.0,0.0,0.0,0.0,0.0,0.0,0.0,0.0,0.0,0.0,0.0,0.0,0.0,0.0,0.0,0.0,0.0,0.0,0.0,0.0,0.0,0.0,0.0,0.0,0.0,0.0,0.0,0.0,0.0,0.0,0.0,0.0,0.0,0.0,0.0,0.0,0.0,0.0,0.0,0.0,0.0,0.0,0.0,0.0,0.0,0.0,0.0,0.0,0.0,0.0,0.0,0.0,0.0,0.0,0.0,0.0,0.0,0.0,0.0,0.0,0.0,0.0,0.0,0.0,0.0,0.0,0.0,0.0,0.0,0.0,0.0,0.0,0.0,0.0,0.0,0.0,0.0,0.0,0.0,0.0,0.0,0.0,0.0,0.0,0.0,0.0,0.0,0.0,0.0,0.0,0.0,0.0,0.0,0.0,0.0,0.0,0.0,0.0,0.0,0.0,0.0,0.0,0.0,0.0,0.0,0.0,0.0,0.0,0.0,0.0,0.0,0.0,0.0,0.0,0.0,0.0,0.0,0.0,0.0,0.0,0.0,0.0,0.0,0.0,0.0,0.0,0.0,0.0,0.0,0.0,0.0,0.0,0.0,0.0,0.0,0.0,0.0,0.0,0.0,0.0,0.0,0.0,0.0,0.0,0.0,0.0,0.0,0.0,0.0,0.0,0.0,0.0,0.0,0.0,0.0,0.0,0.0,0.0,0.0,0.0,0.0,0.0,0.0,0.0,0.0,0.0,0.0,0.0,0.0,0.0,0.0,0.0,0.0,0.0,0.0,0.0,0.0,0.0,0.0,0.0,0.0,0.0,0.0,0.0,0.0,0.0,0.0,0.0,0.0,0.0,0.0,0.0,0.0,0.0,0.0,0.0,0.0,0.0,0.0,0.0,0.0,0.0,0.0,0.0,0.0,0.0,0.0,0.0,0.0,0.0,0.0,0.0,0.0,0.0,0.0,0.0,0.0,0.0,0.0,0.0,0.0,0.0,0.0,0.0,0.0,0.0,0.0,0.0,0.0,0.0,0.0,0.0,0.0,0.0,0.0,0.0,0.0,0.0,0.0,0.0,0.0,0.0,0.0,0.0,0.0,0.0,0.0,0.0,0.0,0.0,0.0,0.0,0.0,0.0,0.0,0.0,0.0,0.0,0.0,0.0,0.0,0.0,0.0,0.0,0.0,0.0,0.0,0.0,0.0,0.0,0.0,0.0,0.0,0.0,0.0,0.0,0.0,0.0,0.0,0.0,0.0,0.0,0.0,0.0,0.0,0.0,0.0,0.0,0.0,0.0,0.0,0.0,0.0,0.0,0.0,0.0,0.0,0.0,0.0,0.0,0.0,0.0,0.0,0.0,0.0,0.0,0.0,0.0,0.0,0.0,0.0,0.0,0.0,0.0,0.0,0.0,0.0,0.0,0.0,0.0,0.0,0.0,0.0,0.0,0.0,0.0,0.0,0.0,0.0,0.0,0.0,0.0,0.0,0.0,0.0,0.0,0.0,0.0,0.0,0.0,0.0,0.0,0.0,0.0,0.0,0.0,0.0,0.0,0.0,0.0,0.0,0.0,0.0,0.0,0.0,0.0,0.0,0.0,0.0,-0.2387,0.0,0.0,0.0,0.0,0.0,0.0,0.0,0.0,0.0,0.0,0.0,0.0,0.0,0.0,0.0,0.0,0.0,0.0,0.0,0.0,0.0,0.0,0.0,0.0,0.0,0.0,0.0,0.0,0.0,0.0,0.0,0.0,0.0,0.0,0.0,0.0,0.0,0.0,0.0,0.0,0.0,0.0,0.0,0.0,0.0,0.0,0.0,0.0,0.0,0.0,0.0,0.0,0.0,0.0,0.0,0.0,0.0,0.0,0.0,0.0,0.0,0.0,0.0,0.0,0.0,0.0,0.0,0.0,0.0,0.0,0.0,0.0,0.0,0.0,0.0,0.0,0.0,0.0,0.0,0.0,0.0,0.0,0.0,0.0,0.0,0.0,0.0,0.0,0.0,0.0,0.0,0.0,0.0,0.0,0.0,0.0,0.0,0.0,0.0,0.0,0.0,0.0,0.0,0.0,0.0,0.0,0.0,0.0,0.0,0.0,2.3765,1.7973,0.8544,0.0442,-0.6132,0.0,0.0,0.0,0.0,0.0,0.0,0.0,0.0,0.0,0.0,0.0,0.0,0.0,0.0,0.0,0.0,0.0,0.0,0.0,0.0,0.0,0.0,0.0,0.0,0.0,0.0,0.0,0.0,0.0,0.0,0.0,0.0,0.0,0.0,0.0,0.0,0.0,0.0,0.0,0.0,0.0,0.0,0.0,0.0,0.0,0.0,0.0,0.0,0.0,0.0,0.0,0.0,0.0,0.0,0.0,0.0,0.0,0.0,0.0,0.0,0.0,0.0,0.0,0.0,0.0,0.0,0.0,0.0,0.0,0.0,0.0,0.0,0.0,0.0,0.0,0.0,0.0,0.0,0.0,0.0,0.0,0.0,0.0,0.0,0.0,0.0,0.0,0.0,0.0,0.0,0.0,0.0,0.0,0.0,0.0,0.0,0.0,0.0,0.0,0.0,0.0,0.0,0.0,0.0,0.0,0.0,0.0,0.0,0.0,0.0,0.0,0.0,0.4132,-0.4475,-1.1386,0.0,0.0,0.0,0.0,0.0,0.0,0.0,0.0,0.0,0.0,0.0,0.0,0.0,0.0,0.0,0.0,0.0,0.0,0.0,0.0,0.0,0.0,0.0,0.0,0.0,0.0,0.0,0.0,0.0,0.0,0.0,0.0,0.0,0.0,0.0,0.0,0.0,0.0,0.0,0.0,0.0,0.0,0.0,0.0,0.0,0.0,0.0,0.0,0.0,0.0,0.0,0.0,0.0,0.0,0.0,0.0,0.0,0.0,0.0,0.0,0.0,0.0,0.0,0.0,0.0,0.0,0.0,0.0,0.0,0.0,0.0,0.0,0.0,0.0,0.0,0.0,0.0,0.0,0.0,0.0,0.0,0.0,0.0,0.0,0.0,0.0,0.0,0.0,0.0,0.0,0.0,0.0,0.0,0.0,0.0,0.0,0.0,0.0,0.0,0.0,0.0,0.0,0.0,0.0,0.0,0.0,0.0,0.0,0.0,0.0,1.2607,0.5755,-0.2366,0.0,-2.2446,0.0,0.0,0.0,0.0,0.0,0.0,0.0,0.0,0.0,0.0,0.0,0.0,0.0,0.0,0.0,0.0,0.0,0.0,0.0,0.0,0.0,0.0,0.0,0.0,0.0,0.0,0.0,0.0,0.0,0.0,0.0,0.0,0.0,0.0,0.0,0.0,0.0,0.0,0.0,0.0,0.0,0.0,0.0,0.0,0.0,0.0,0.0,0.0,0.0,0.0,0.0,0.0,0.0,0.0,0.0,0.0,0.0,0.0,0.0,0.0,0.0,0.0,0.0,0.0,0.0,0.0,0.0,0.0,0.0,0.0,0.0,0.0,0.0,0.0,0.0,0.0,0.0,0.0,0.0,0.0,0.0,0.0,0.0,0.0,0.0,0.0,0.0,0.0,0.0,0.0,0.0,0.0,0.0,0.0,0.0,0.0,0.0,0.0,0.0,0.0,0.0,0.0,0.0,0.0,0.0,0.0,0.0,0.0,0.0,0.0,0.7695,0.1918,-0.671,-1.435,0.0,0.0,0.0,0.0,0.0,0.0,0.0,0.0,0.0,0.0,0.0,0.0,0.0,0.0,0.0,0.0,0.0,0.0,0.0,0.0,0.0,0.0,0.0,0.0,0.0,0.0,0.0,0.0,0.0,0.0,0.0,0.0,0.0,0.0,0.0,0.0,0.0,0.0,0.0,0.0,0.0,0.0,0.0,0.0,0.0,0.0,0.0,0.0,0.0,0.0,0.0,0.0,0.0,0.0,0.0,0.0,0.0,0.0,0.0,0.0,0.0,0.0,0.0,0.0,0.0,0.0,0.0,0.0,0.0,0.0,0.0,0.0,0.0,0.0,0.0,0.0,0.0,0.0,0.0,0.0,0.0,0.0,0.0,0.0,0.0,0.0,0.0,0.0,0.0,0.0,0.0,0.0,0.0,0.0,0.0,0.0,0.0,0.0,0.0,0.0,0.0,0.0,0.0,0.0,0.0,0.0,0.0,0.0,0.0,0.0,0.7755,0.3489,-0.1967,-0.9243,-1.437,-1.682,0.0,0.0,0.0,0.0,0.0,0.0,0.0,0.0,0.0,0.0,0.0,0.0,0.0,0.0,0.0,0.0,0.0,0.0,0.0,0.0,0.0,0.0,0.0,0.0,0.0,0.0,0.0,0.0,0.0,0.0,0.0,0.0,0.0,0.0,0.0,0.0,0.0,0.0,0.0,0.0,0.0,0.0,0.0,0.0,0.0,0.0,0.0,0.0,0.0,0.0,0.0,0.0,0.0,0.0,0.0,0.0,0.0,0.0,0.0,0.0,0.0,0.0,0.0,0.0,0.0,0.0,0.0,0.0,0.0,0.0,0.0,0.0,0.0,0.0,0.0,0.0,0.0,0.0,0.0,0.0,0.0,0.0,0.0,0.0,0.0,0.0,0.0,0.0,0.0,0.0,0.0,0.0,0.0,0.0,0.0,0.0,0.0,0.0,0.0,0.0,0.0,0.0,0.0,0.0,0.0,0.0,0.0,0.0,0.7639,0.4794,0.0077,-0.6449,-0.9617,-1.187,0.0,0.0,0.0,0.0,0.0,0.0,0.0,0.0,0.0,0.0,0.0,0.0,0.0,0.0,0.0,0.0,0.0,0.0,0.0,0.0,0.0,0.0,0.0,0.0,0.0,0.0,0.0,0.0,0.0,0.0,0.0,0.0,0.0,0.0,0.0,0.0,0.0,0.0,0.0,0.0,0.0,0.0,0.0,0.0,0.0,0.0,0.0,0.0,0.0,0.0,0.0,0.0,0.0,0.0,0.0,0.0,0.0,0.0,0.0,0.0,0.0,0.0,0.0,0.0,0.0,0.0,0.0,0.0,0.0,0.0,0.0,0.0,0.0,0.0,0.0,0.0,0.0,0.0,0.0,0.0,0.0,0.0,0.0,0.0,0.0,0.0,0.0,0.0,0.0,0.0,0.0,0.0,0.0,0.0,0.0,0.0,0.0,0.0,0.0,0.0,0.0,0.0,0.0,0.0,0.0,0.0,0.0,0.0,0.0,0.5591,0.1783,-0.2247,-0.619,-0.841,-0.9997,0.0,0.0,0.0,0.0,0.0,0.0,0.0,0.0,0.0,0.0,0.0,0.0,0.0,0.0,0.0,0.0,0.0,0.0,0.0,0.0,0.0,0.0,0.0,0.0,0.0,0.0,0.0,0.0,0.0,0.0,0.0,0.0,0.0,0.0,0.0,0.0,0.0,0.0,0.0,0.0,0.0,0.0,0.0,0.0,0.0,0.0,0.0,0.0,0.0,0.0,0.0,0.0,0.0,0.0,0.0,0.0,0.0,0.0,0.0,0.0,0.0,0.0,0.0,0.0,0.0,0.0,0.0,0.0,0.0,0.0,0.0,0.0,0.0,0.0,0.0,0.0,0.0,0.0,0.0,0.0,0.0,0.0,0.0,0.0,0.0,0.0,0.0,0.0,0.0,0.0,0.0,0.0,0.0,0.0,0.0,0.0,0.0,0.0,0.0,0.0,0.0,0.0,0.0,0.0,0.0,0.0,0.0,0.0,0.0,0.3392,0.0,-0.3257,-0.5436,-0.7231,-0.8557,0.0,0.0,0.0,0.0,0.0,0.0,0.0,0.0,0.0,0.0,0.0,0.0,0.0,0.0,0.0,0.0,0.0,0.0,0.0,0.0,0.0,0.0,0.0,0.0,0.0,0.0,0.0,0.0,0.0,0.0,0.0,0.0,0.0,0.0,0.0,0.0,0.0,0.0,0.0,0.0,0.0,0.0,0.0,0.0,0.0,0.0,0.0,0.0,0.0,0.0,0.0,0.0,0.0,0.0,0.0,0.0,0.0,0.0,0.0,0.0,0.0,0.0,0.0,0.0,0.0,0.0,0.0,0.0,0.0,0.0,0.0,0.0,0.0,0.0,0.0,0.0,0.0,0.0,0.0,0.0,0.0,0.0,0.0,0.0,0.0,0.0,0.0,0.0,0.0,0.0,0.0,0.0,0.0,0.0,0.0,0.0,0.0,0.0,0.0,0.0,0.0,0.0,0.0,0.0,0.0,0.0,0.0,0.0,0.3488,0.0973,-0.116,-0.3062,-0.4698,-0.6221,-0.7492,0.0,0.0,0.0,0.0,0.0,0.0,0.0,0.0,0.0,0.0,0.0,0.0,0.0,0.0,0.0,0.0,0.0,0.0,0.0,0.0,0.0,0.0,0.0,0.0,0.0,0.0,0.0,0.0,0.0,0.0,0.0,0.0,0.0,0.0,0.0,0.0,0.0,0.0,0.0,0.0,0.0,0.0,0.0,0.0,0.0,0.0,0.0,0.0,0.0,0.0,0.0,0.0,0.0,0.0,0.0,0.0,0.0,0.0,0.0,0.0,0.0,0.0,0.0,0.0,0.0,0.0,0.0,0.0,0.0,0.0,0.0,0.0,0.0,0.0,0.0,0.0,0.0,0.0,0.0,0.0,0.0,0.0,0.0,0.0,0.0,0.0,0.0,0.0,0.0,0.0,0.0,0.0,0.0,0.0,0.0,0.0,0.0,0.0,0.0,0.0,0.0,0.0,0.0,0.0,0.0,0.0,0.0,0.0,0.0,0.0499,-0.117,-0.284,-0.4396,-0.5872,-0.698,0.0,0.0,0.0,0.0,0.0,0.0,0.0,0.0,0.0,0.0,0.0,0.0,0.0,0.0,0.0,0.0,0.0,0.0,0.0,0.0,0.0,0.0,0.0,0.0,0.0,0.0,0.0,0.0,0.0,0.0,0.0,0.0,0.0,0.0,0.0,0.0,0.0,0.0,0.0,0.0,0.0,0.0,0.0,0.0,0.0,0.0,0.0,0.0,0.0,0.0,0.0,0.0,0.0,0.0,0.0,0.0,0.0,0.0,0.0,0.0,0.0,0.0,0.0,0.0,0.0,0.0,0.0,0.0,0.0,0.0,0.0,0.0,0.0,0.0,0.0,0.0,0.0,0.0,0.0,0.0,0.0,0.0,0.0,0.0,0.0,0.0,0.0,0.0,0.0,0.0,0.0,0.0,0.0,0.0,0.0,0.0,0.0,0.0,0.0,0.0,0.0,0.0,0.0,0.0,0.0,0.0,0.0,0.0,0.0,0.0,-0.1291,-0.257,-0.3992,-0.5311,-0.6454,-0.7476,0.0,0.0,0.0,0.0,0.0,0.0,0.0,0.0,0.0,0.0,0.0,0.0,0.0,0.0,0.0,0.0,0.0,0.0,0.0,0.0,0.0,0.0,0.0,0.0,0.0,0.0,0.0,0.0,0.0,0.0,0.0,0.0,0.0,0.0,0.0,0.0,0.0,0.0,0.0,0.0,0.0,0.0,0.0,0.0,0.0,0.0,0.0,0.0,0.0,0.0,0.0,0.0,0.0,0.0,0.0,0.0,0.0,0.0,0.0,0.0,0.0,0.0,0.0,0.0,0.0,0.0,0.0,0.0,0.0,0.0,0.0,0.0,0.0,0.0,0.0,0.0,0.0,0.0,0.0,0.0,0.0,0.0,0.0,0.0,0.0,0.0,0.0,0.0,0.0,0.0,0.0,0.0,0.0,0.0,0.0,0.0,0.0,0.0,0.0,0.0,0.0,0.0,0.0,0.0,0.0,0.0,0.0,0.0,-0.0359,-0.1346,-0.2396,-0.3648,-0.4674,-0.5831,0.0,0.0,0.0,0.0,0.0,0.0,0.0,0.0,0.0,0.0,0.0,0.0,0.0,0.0,0.0,0.0,0.0,0.0,0.0,0.0,0.0,0.0,0.0,0.0,0.0,0.0,0.0,0.0,0.0,0.0,0.0,0.0,0.0,0.0,0.0,0.0,0.0,0.0,0.0,0.0,0.0,0.0,0.0,0.0,0.0,0.0,0.0,0.0,0.0,0.0,0.0,0.0,0.0,0.0,0.0,0.0,0.0,0.0,0.0,0.0,0.0,0.0,0.0,0.0,0.0,0.0,0.0,0.0,0.0,0.0,0.0,0.0,0.0,0.0,0.0,0.0,0.0,0.0,0.0,0.0,0.0,0.0,0.0,0.0,0.0,0.0,0.0,0.0,0.0,0.0,0.0,0.0,0.0,0.0,0.0,0.0,0.0,0.0,0.0,0.0,0.0,0.0,0.0,0.0,0.0,0.0,0.0,0.0,0.0,-0.0627,-0.1166,-0.2056,-0.3287,-0.469,-0.5843,0.0,0.0,0.0,0.0,0.0,0.0,0.0,0.0,0.0,0.0,0.0,0.0,0.0,0.0,0.0,0.0,0.0,0.0,0.0,0.0,0.0,0.0,0.0,0.0,0.0,0.0,0.0,0.0,0.0,0.0,0.0,0.0,0.0,0.0,0.0,0.0,0.0,0.0,0.0,0.0,0.0,0.0,0.0,0.0,0.0,0.0,0.0,0.0,0.0,0.0,0.0,0.0,0.0,0.0,0.0,0.0,0.0,0.0,0.0,0.0,0.0,0.0,0.0,0.0,0.0,0.0,0.0,0.0,0.0,0.0,0.0,0.0,0.0,0.0,0.0,0.0,0.0,0.0,0.0,0.0,0.0,0.0,0.0,0.0,0.0,0.0,0.0,0.0,0.0,0.0,0.0,0.0,0.0,0.0,0.0,0.0,0.0,0.0,0.0,0.0,0.0,0.0,0.0,0.0,0.0,0.0,0.0,0.0,-0.0532,-0.0718,-0.1166,-0.1973,-0.3045,-0.4382,-0.5483,0.0,0.0,0.0,0.0,0.0,0.0,0.0,0.0,0.0,0.0,0.0,0.0,0.0,0.0,0.0,0.0,0.0,0.0,0.0,0.0,0.0,0.0,0.0,0.0,0.0,0.0,0.0,0.0,0.0,0.0,0.0,0.0,0.0,0.0,0.0,0.0,0.0,0.0,0.0,0.0,0.0,0.0,0.0,0.0,0.0,0.0,0.0,0.0,0.0,0.0,0.0,0.0,0.0,0.0,0.0,0.0,0.0,0.0,0.0,0.0,0.0,0.0,0.0,0.0,0.0,0.0,0.0,0.0,0.0,0.0,0.0,0.0,0.0,0.0,0.0,0.0,0.0,0.0,0.0,0.0,0.0,0.0,0.0,0.0,0.0,0.0,0.0,0.0,0.0,0.0,0.0,0.0,0.0,0.0,0.0,0.0,0.0,0.0,0.0,0.0,0.0,0.0,0.0,0.0,0.0,0.0,0.0,0.0,-0.0538,-0.0628,-0.1166,-0.1793,-0.2867,-0.3868,-0.5072,0.0,0.0,0.0,0.0,0.0,0.0,0.0,0.0,0.0,0.0,0.0,0.0,0.0,0.0,0.0,0.0,0.0,0.0,0.0,0.0,0.0,0.0,0.0,0.0,0.0,0.0,0.0,0.0,0.0,0.0,0.0,0.0,0.0,0.0,0.0,0.0,0.0,0.0,0.0,0.0,0.0,0.0,0.0,0.0,0.0,0.0,0.0,0.0,0.0,0.0,0.0,0.0,0.0,0.0,0.0,0.0,0.0,0.0,0.0,0.0,0.0,0.0,0.0,0.0,0.0,0.0,0.0,0.0,0.0,0.0,0.0,0.0,0.0,0.0,0.0,0.0,0.0,0.0,0.0,0.0,0.0,0.0,0.0,0.0,0.0,0.0,0.0,0.0,0.0,0.0,0.0,0.0,0.0,0.0,0.0,0.0,0.0,0.0,0.0,0.0,0.0,0.0,0.0,0.0,0.0,0.0,0.0,0.0,-0.0538,-0.0448,-0.0897,-0.1614,-0.2597,-0.392,-0.4971,0.0,0.0,0.0,0.0,0.0,0.0,0.0,0.0,0.0,0.0,0.0,0.0,0.0,0.0,0.0,0.0,0.0,0.0,0.0,0.0,0.0,0.0,0.0,0.0,0.0,0.0,0.0,0.0,0.0,0.0,0.0,0.0,0.0,0.0,0.0,0.0,0.0,0.0,0.0,0.0,0.0,0.0,0.0,0.0,0.0,0.0,0.0,0.0,-0.9841,0.0,0.0,0.0,0.0,0.0,0.0,0.0,0.0,0.0,0.0,0.0,0.0,0.0,0.0,0.0,0.0,0.0,0.0,0.0,0.0,0.0,0.0,0.0,0.0,0.0,0.0,0.0,0.0,0.0,0.0,0.0,0.0,0.0,0.0,0.0,0.0,0.0,0.0,0.0,0.0,0.0,0.0,0.0,0.0,0.0,0.0,0.0,0.0,0.0,0.0,0.0,0.0,0.0,0.0,0.0,0.0,0.0,0.0,0.0,-0.0538,-0.0448,-0.0897,-0.1524,-0.233,-0.3459,-0.4599,0.0,0.0,0.0,0.0,0.0,0.0,0.0,0.0,0.0,0.0,0.0,0.0,0.0,0.0,0.0,0.0,0.0,0.0,0.0,0.0,0.0,0.0,0.0,0.0,0.0,0.0,0.0,0.0,0.0,0.0,0.0,0.0,0.0,0.0,0.0,0.0,0.0,0.0,0.0,0.0,0.0,0.0,0.0,0.0,0.0,0.0,0.0,0.0,0.0,0.0,0.0,0.0,0.0,0.0,0.0,0.0,0.0,0.0,0.0,0.0,0.0,0.0,0.0,0.0,0.0,0.0,0.0,0.0,0.0,0.0,0.0,0.0,0.0,0.0,0.0,0.0,0.0,0.0,0.0,0.0,0.0,0.0,0.0,0.0,0.0,0.0,0.0,0.0,0.0,0.0,0.0,0.0,0.0,0.0,0.0,0.0,0.0,0.0,0.0,0.0,0.0,0.0,0.0,0.0,0.0,0.0,0.0,-0.0614,-0.0359,-0.0269,-0.0718,-0.1346,-0.2153,-0.29,-0.4032,-0.5366,0.0,0.0,0.0,0.0,0.0,0.0,0.0,0.0,0.0,0.0,0.0,0.0,0.0,0.0,0.0,0.0,0.0,0.0,0.0,0.0,0.0,0.0,0.0,0.0,0.0,0.0,0.0,0.0,0.0,0.0,0.0,0.0,0.0,0.0,0.0,0.0,0.0,0.0,-0.2443,-0.3289,0.0,0.0,0.0,0.0,0.0,0.0,0.0,0.0,-1.0993,0.0,0.0,0.0,0.0,0.0,0.0,0.0,0.0,0.0,0.0,0.0,0.0,0.0,0.0,0.0,0.0,0.0,0.0,0.0,0.0,0.0,0.0,0.0,0.0,0.0,0.0,0.0,0.0,0.0,0.0,0.0,0.0,0.0,0.0,0.0,0.0,0.0,0.0,0.0,0.0,0.0,0.0,0.0,0.0,0.0,0.0,0.0,0.0,0.0,0.0,0.0,0.0,0.0,0.0,0.0,0.0,-0.0756,-0.0263,0.0,0.0269,-0.0269,-0.0987,-0.1884,-0.2723,-0.3692,-0.4703,0.0,0.0,0.0,0.0,0.0,0.0,0.0,0.0,0.0,0.0,0.0,0.0,0.0,0.0,0.0,0.0,0.0,0.0,0.0,0.0,0.0,0.0,0.0,0.0,0.0,0.0,0.0,0.0,0.0,0.0,0.0,0.0,0.0,0.0,0.0,0.0,0.0,0.0,0.0,-0.3079,-0.3596,0.0,0.0,0.0,0.0,0.0,0.0,0.0,0.0,-1.1751,0.0,0.0,0.0,0.0,0.0,0.0,0.0,0.0,0.0,0.0,0.0,0.0,0.0,0.0,0.0,0.0,0.0,0.0,0.0,0.0,0.0,0.0,0.0,0.0,0.0,0.0,0.0,0.0,0.0,0.0,0.0,0.0,0.0,0.0,0.0,0.0,0.0,0.0,0.0,0.0,0.0,0.0,0.0,0.0,0.0,0.0,0.0,0.0,0.0,0.0,0.0,0.0,0.0,0.0,0.0,-0.0252,0.0175,0.0538,0.0718,0.0179,-0.0538,-0.1255,-0.1998,-0.2888,0.0,0.0,0.0,0.0,0.0,0.0,0.0,0.0,0.0,0.0,0.0,0.0,0.0,0.0,0.0,0.0,0.0,0.0,0.0,0.0,0.0,0.0,0.0,0.0,0.0,0.0,0.0,0.0,0.0,0.0,0.0,0.0,0.0,0.0,0.0,0.0,0.0,0.0,0.0,0.0,-0.2985,-0.363,-0.4348,0.0,0.0,0.0,0.0,0.0,0.0,-1.0388,-1.1213,0.0,0.0,0.0,0.0,0.0,0.0,0.0,0.0,0.0,0.0,0.0,0.0,0.0,0.0,0.0,0.0,0.0,0.0,0.0,0.0,0.0,0.0,0.0,0.0,0.0,0.0,0.0,0.0,0.0,0.0,0.0,0.0,0.0,0.0,0.0,0.0,0.0,0.0,0.0,0.0,0.0,0.0,0.0,0.0,0.0,0.0,0.0,0.0,0.0,0.0,0.0,0.0,0.0,0.0,0.0,0.0252,0.0702,0.0987,0.1166,0.0538,-0.009,-0.0627,-0.1376,-0.2185,0.0,0.0,0.0,0.0,0.0,0.0,0.0,0.0,0.0,0.0,0.0,0.0,0.0,0.0,0.0,0.0,0.0,0.0,0.0,0.0,0.0,0.0,0.0,0.0,0.0,0.0,0.0,0.0,0.0,0.0,0.0,0.0,0.0,0.0,0.0,0.0,0.0,0.0,0.0,0.0,0.0,-0.3824,-0.4541,-0.531,0.0,0.0,0.0,0.0,-0.934,-1.0062,0.0,0.0,0.0,0.0,0.0,0.0,0.0,0.0,0.0,0.0,0.0,0.0,0.0,0.0,0.0,0.0,0.0,0.0,0.0,0.0,0.0,0.0,0.0,0.0,0.0,0.0,0.0,0.0,0.0,0.0,0.0,0.0,0.0,0.0,0.0,0.0,0.0,0.0,0.0,0.0,0.0,0.0,0.0,0.0,0.0,0.0,0.0,0.0,0.0,0.0,0.0,0.0,0.0,0.0,0.0,0.0,0.101,0.1404,0.1525,0.1346,0.1077,0.0538,-0.0448,-0.1032,-0.1764,0.0,0.0,0.0,0.0,0.0,0.0,0.0,0.0,0.0,0.0,0.0,0.0,0.0,0.0,0.0,0.0,0.0,0.0,0.0,0.0,0.0,0.0,0.0,0.0,0.0,0.0,0.0,0.0,0.0,0.0,0.0,0.0,0.0,0.0,0.0,0.0,0.0,0.0,0.0,0.0,0.0,-0.4023,-0.463,-0.5453,-0.626,0.0,0.0,-0.8376,-0.8907,-0.9758,0.0,0.0,0.0,0.0,0.0,0.0,0.0,0.0,0.0,0.0,0.0,0.0,0.0,0.0,0.0,0.0,0.0,0.0,0.0,0.0,0.0,0.0,0.0,0.0,0.0,0.0,0.0,0.0,0.0,0.0,0.0,0.0,0.0,0.0,0.0,0.0,0.0,0.0,0.0,0.0,0.0,0.0,0.0,0.0,0.0,0.0,0.0,0.0,0.0,0.0,0.0,0.0,0.0,0.0,0.0,0.058,0.1598,0.1996,0.2128,0.224,0.1793,0.1166,0.0448,-0.0344,-0.1093,0.0,0.0,0.0,0.0,0.0,0.0,0.0,0.0,0.0,0.0,0.0,0.0,0.0,0.0,0.0,0.0,0.0,0.0,0.0,0.0,0.0,0.0,0.0,0.0,0.0,0.0,0.0,0.0,0.0,0.0,0.0,0.0,0.0,0.0,0.0,0.0,0.0,0.0,0.0,0.0,0.0,0.0,-0.483,-0.5549,0.0,0.0,0.0,-0.794,-0.8468,0.0,0.0,0.0,0.0,0.0,0.0,0.0,0.0,0.0,0.0,0.0,0.0,0.0,0.0,0.0,0.0,0.0,0.0,0.0,0.0,0.0,0.0,0.0,0.0,0.0,0.0,0.0,0.0,0.0,0.0,0.0,0.0,0.0,0.0,0.0,0.0,0.0,0.0,0.0,0.0,0.0,0.0,0.0,0.0,0.0,0.0,0.0,0.0,0.0,0.0,0.0,0.0,0.0,0.0,0.0,0.0,0.0,0.2186,0.2492,0.2809,0.2955,0.242,0.1883,0.1345,0.0516,0.0,0.0,0.0,0.0,0.0,0.0,0.0,0.0,0.0,0.0,0.0,0.0,0.0,0.0,0.0,0.0,0.0,0.0,0.0,0.0,0.0,0.0,0.0,0.0,0.0,0.0,0.0,0.0343,0.0,0.0,0.0,0.0,0.0,0.0,0.0,0.0,0.0,0.0,0.0,0.0,0.0,0.0,-0.4576,-0.5046,-0.5768,-0.6308,0.0,0.0,-0.7634,-0.7944,-0.838,-0.8931,0.0,0.0,0.0,0.0,0.0,0.0,0.0,0.0,0.0,0.0,0.0,0.0,0.0,0.0,0.0,0.0,0.0,0.0,0.0,0.0,0.0,0.0,0.0,0.0,0.0,0.0,0.0,0.0,0.0,0.0,0.0,0.0,0.0,0.0,0.0,0.0,0.0,0.0,0.0,0.0,0.0,0.0,0.0,0.0,0.0,0.0,0.0,0.0,0.0,0.0,0.0,0.0,0.0,0.0,0.1972,0.2608,0.318,0.3333,0.3223,0.2957,0.2599,0.2152,0.1376,0.0756,0.0,0.0,0.0,0.0,0.0,0.0,0.0,0.0,0.0,0.0,0.0,0.0,0.0,0.0,0.0,0.0,0.0,0.0,0.0,0.0,0.0,0.0,0.0,0.0,0.0,0.0,0.0,0.0,0.0,0.0,0.0,0.0,0.0,0.0,0.0,0.0,0.0,0.0,0.0,0.0,0.0,-0.4871,-0.5519,-0.617,-0.6624,0.0,-0.7168,-0.7667,-0.7524,-0.794,-0.8317,-0.8564,0.0,0.0,0.0,0.0,0.0,0.0,0.0,0.0,0.0,0.0,0.0,0.0,0.0,0.0,0.0,0.0,0.0,0.0,0.0,0.0,0.0,0.0,0.0,0.0,0.0,0.0,0.0,0.0,0.0,0.0,0.0,0.0,0.0,0.0,0.0,0.0,0.0,0.0,0.0,0.0,0.0,0.0,0.0,0.0,0.0,0.0,0.0,0.0,0.0,0.0,0.0,0.0,0.0,0.2268,0.3107,0.3644,0.3984,0.4115,0.3673,0.3405,0.3048,0.2324,0.1682,0.0,0.0,0.0,0.0,0.0,0.0,0.0,0.0,0.0,0.0,0.0,0.0,0.0,0.0,0.0,0.0,0.0,0.0,0.0,0.0,0.0,0.0,0.0,0.0,0.0,0.0,0.0,0.0,-0.0602,-0.0762,-0.1005,0.0,0.0,0.0,0.0,0.0,0.0,0.0,0.0,0.0,0.0,-0.4848,-0.516,-0.5795,0.0,0.0,-0.6598,-0.6939,-0.7071,-0.7319,-0.765,-0.8028,-0.8287,0.0,0.0,0.0,0.0,0.0,0.0,0.0,0.0,0.0,0.0,0.0,0.0,0.0,0.0,0.0,0.0,0.0,0.0,0.0,0.0,0.0,0.0,0.0,0.0,0.0,0.0,0.0,0.0,0.0,0.0,0.0,0.0,0.0,0.0,0.0,0.0,0.0,0.0,0.0,0.0,0.0,0.0,0.0,0.0,0.0,0.0,0.0,0.0,0.0,0.0,0.0,0.0,0.2727,0.3612,0.4036,0.4464,0.4743,0.4389,0.4032,0.3939,0.3183,0.2606,0.0,0.0,0.0,0.0,0.0,0.0,0.0,0.0,0.0,0.0,0.0,0.0,0.0,0.0,0.0,0.0,0.0,0.0,0.0,0.0,0.0,0.0,0.0,0.0,0.0,0.0,0.0,0.0,-0.0842,-0.108,-0.1256,0.0,0.0,0.0,0.0,0.0,0.0,0.0,0.0,0.0,0.0,-0.4752,-0.5143,-0.5597,-0.6048,-0.614,-0.6317,-0.657,-0.671,-0.6789,-0.7051,-0.7496,0.0,0.0,0.0,0.0,0.0,0.0,0.0,0.0,0.0,0.0,0.0,0.0,0.0,0.0,0.0,0.0,0.0,0.0,0.0,0.0,0.0,0.0,0.0,0.0,0.0,0.0,0.0,0.5622,0.0,0.0,0.4988,0.0,0.0,0.0,0.0,0.0,0.0,0.0,0.0,0.0,0.0,0.0,0.0,0.0,0.0,0.0,0.0,0.0,0.0,0.0,0.0,0.0,0.0,0.3369,0.4116,0.4453,0.4801,0.5001,0.4837,0.4661,0.4656,0.4042,0.3612,0.3352,0.0,0.0,0.0,0.0,0.0,0.0,0.0,0.0,0.0,0.0,0.0,0.0,0.0,0.0,0.0,0.0,0.0,0.0,0.0,0.0,0.0,0.0,0.0,0.0,0.0,0.0,-0.0626,-0.1021,-0.1256,0.0,0.0,0.0,0.0,0.0,0.0,0.0,0.0,0.0,-0.3746,-0.4117,-0.4602,-0.5425,-0.5718,-0.5979,-0.6265,-0.6447,-0.6675,-0.6634,-0.652,-0.652,0.0,0.0,0.0,0.0,0.0,0.0,0.0,0.0,0.0,0.0,0.0,0.0,0.0,0.0,0.0,0.0,0.0,0.0,0.0,0.0,0.0,0.0,0.0,0.0,0.0,0.0,0.0,0.7092,0.6475,0.0,0.0,0.0,0.0,0.0,0.0,0.0,0.0,0.0,0.0,0.0,0.2709,0.2055,0.0,0.0,0.0,0.0,0.0,0.0,0.0,0.0,0.0,0.0,0.0,0.0,0.3529,0.4274,0.4868,0.5315,0.5716,0.5636,0.5638,0.5636,0.4981,0.4274,0.361,0.0,0.0,0.0,0.0,0.0,0.0,0.0,0.0,0.0,0.0,0.0,0.0,0.0,0.0,0.0,0.0,0.0,0.0,0.0,0.0,0.0,0.0,0.0,0.0,0.0,-0.0545,0.0,0.0,0.0,0.0,0.0,0.0,0.0,0.0,0.0,0.0,0.0,-0.2716,-0.3217,-0.3671,-0.4127,-0.4701,-0.4795,-0.4975,0.0,0.0,0.0,0.0,0.0,0.0,0.0,0.0,0.0,0.0,0.0,0.0,0.0,0.0,-1.1492,-1.2285,-1.2596,-1.2751,-1.2906,0.0,0.0,0.0,0.0,0.0,0.0,0.0,0.0,0.0,0.0,0.0,0.0,0.0,0.0,0.8173,0.7573,0.7496,0.0,0.0,0.0,0.0,0.0,0.0,0.0,0.0,0.4435,0.389,0.3359,0.2772,0.2438,0.0,0.174,0.1307,0.0,0.0,0.0,0.0,0.0,0.0,0.0,0.0,0.3834,0.4559,0.5183,0.5721,0.6098,0.6145,0.6148,0.6104,0.5515,0.4851,0.4213,0.3661,0.3205,0.0,0.0,0.0,0.0,0.0,0.0,0.0,0.0,0.0,0.0,0.0,0.0,0.0,0.0,0.0,0.0,0.0,0.0,0.0,0.0,0.0,0.0,0.0,-0.0314,0.0,0.0,0.0,0.0,0.0,0.0,0.0,0.0,0.0,-0.1531,-0.1908,-0.2296,-0.2685,-0.3226,-0.3671,-0.4032,0.0,0.0,0.0,0.0,0.0,0.0,0.0,-0.5191,-0.5364,-0.5832,-0.6477,-0.7256,-0.8547,-0.9647,-1.005,0.0,0.0,-1.2197,-1.2651,-1.2969,-1.3055,-1.3127,-1.3206,-1.3206,-1.3516,-1.3817,0.0,0.0,0.0,0.0,0.0,0.0,0.0,0.0,1.0131,0.9606,0.0,0.8546,0.0,0.0,0.0,0.0,0.6555,0.6321,0.0,0.0,0.5204,0.4706,0.3876,0.3624,0.3201,0.2866,0.2612,0.2525,0.2351,0.1449,0.0,0.0,0.0,0.0,0.0,0.0,0.4365,0.4882,0.5485,0.5852,0.6239,0.6358,0.6358,0.6227,0.5726,0.5374,0.5007,0.4581,0.4103,0.357,0.3193,0.0,0.0,0.0,0.0,0.0,0.0,0.0,0.0,0.0,0.0,0.0,0.0,0.0,0.0,0.0,0.0,0.0,0.0,0.0,0.0,0.0232,0.0,0.0,0.0,0.0,0.0,0.0,0.0,0.0,0.0,0.0,-0.1304,-0.1416,-0.1615,-0.2334,0.0,0.0,0.0,0.0,-0.3939,-0.4208,-0.4208,-0.4208,-0.4208,-0.448,-0.4659,-0.4741,0.0,0.0,-0.7496,-0.8732,-0.9689,-1.0463,-1.0956,-1.1437,-1.1804,-1.2382,-1.2868,-1.2942,-1.3121,-1.3167,-1.3247,-1.3605,-1.3815,1.2462,0.0,0.0,0.0,0.0,1.1117,1.095,1.0719,1.0719,1.0433,0.9958,0.9717,0.0,0.0,0.0,0.0,0.0,0.0,0.6552,0.6433,0.5923,0.5368,0.4925,0.4658,0.4308,0.3869,0.3637,0.3523,0.3433,0.3093,0.2699,0.2012,0.0,0.0,0.0,0.0,0.4477,0.5226,0.577,0.6186,0.649,0.6621,0.661,0.6204,0.604,0.5851,0.5404,0.5121,0.4886,0.4699,0.4151,0.0,0.0,0.0,0.0,0.0,0.0,0.0,0.0,0.0,0.0,0.0,0.0,0.0,0.0,0.0,0.0,0.0,0.0,0.0,0.0853,0.0704,0.0474,0.0,0.0,0.0,0.0,0.0,0.0,0.0,0.0,0.0,-0.0621,-0.1072,-0.1436,0.0,0.0,-0.2512,-0.2782,-0.2871,-0.2959,-0.3315,-0.3314,0.0,-0.3315,-0.3496,-0.3674,-0.3941,-0.4924,-0.5994,-0.6969,-0.7856,-0.874,-0.9515,-1.0294,-1.093,-1.1415,-1.214,-1.2893,-1.3323,-1.3489,-1.3668,-1.3834,-1.4069,-1.4296,1.371,1.2952,1.2548,1.2322,1.2152,1.2158,1.1993,1.1822,1.174,1.143,1.1007,1.0767,1.0305,0.9902,0.9327,0.0,0.0,0.0,0.7292,0.7097,0.666,0.618,0.5811,0.5544,0.5188,0.483,0.468,0.4563,0.4474,0.4556,0.4141,0.3501,0.0,0.0,0.3784,0.435,0.49,0.5527,0.6002,0.6382,0.658,0.6692,0.6579,0.6324,0.6265,0.6116,0.5876,0.5711,0.5563,0.5582,0.5122,0.4776,0.0,0.0,0.0,0.0,0.0,0.0,0.0,0.0,0.0,0.0,0.0,0.2332,0.2525,0.0,0.0,0.0,0.232,0.188,0.1351,0.1365,0.0,0.0,0.0,0.0,0.0,0.0,0.0,0.0261,0.0263,0.0177,-0.009,-0.0538,-0.0897,-0.1076,-0.1525,-0.1795,-0.1974,0.0,-0.2153,-0.2241,-0.233,-0.2331,-0.242,-0.2689,-0.3048,-0.3674,-0.4656,-0.5638,-0.6523,-0.7323,-0.8116,-0.8995,-0.9689,-1.0376,-1.1068,-1.1757,-1.2534,-1.3307,-1.3561,-1.3828,-1.4088,-1.4243,-1.4482,1.4908,1.4398,1.3808,1.3476,1.3392,1.3398,1.3307,1.3143,1.2875,1.2487,1.2105,1.1683,1.1227,1.0697,0.9871,0.0,0.8726,0.8479,0.8135,0.7577,0.7316,0.6959,0.652,0.626,0.6077,0.5808,0.5808,0.5719,0.5544,0.5706,0.5561,0.5297,0.4855,0.4548,0.4532,0.5116,0.5538,0.5794,0.6339,0.6597,0.6702,0.6539,0.6531,0.6531,0.6407,0.6338,0.6338,0.6335,0.627,0.6211,0.6034,0.5822,0.555,0.0,0.0,0.0,0.0,0.0,0.0,0.0,0.0,0.0,0.0,0.0,0.0,0.0,0.0,0.0,0.2893,0.0,0.2118,0.2159,0.0,0.0,0.0,0.1183,0.1185,0.0948,0.0785,0.0785,0.0,0.0,0.0448,0.0179,-0.009,-0.0538,-0.0897,-0.1076,-0.1076,-0.1256,-0.1346,-0.1345,-0.1346,-0.1436,-0.1705,-0.1973,-0.2511,-0.3583,-0.4385,-0.5186,-0.6074,-0.6871,-0.7753,-0.8648,-0.917,-0.9864,-1.0722,-1.1332,-1.1929,-1.279,-1.3398,-1.3737,-1.3997,-1.4243,-1.4405,1.5499,1.4915,1.4748,1.4328,1.3646,1.3483,1.3398,1.3313,1.3222,1.3184,1.3043,1.2614,1.1895,1.1165,1.0564,1.0086,0.9616,0.9274,0.8773,0.8285,0.8021,0.7669,0.7224,0.7228,0.7051,0.6786,0.6782,0.6786,0.6697,0.6753,0.6737,0.6646,0.6524,0.6147,0.5455,0.5613,0.5913,0.6354,0.656,0.6597,0.6698,0.66,0.6539,0.6617,0.6655,0.6791,0.6791,0.6868,0.6934,0.6965,0.6915,0.6818,0.6541,0.6271,0.0,0.0,0.0,0.0,0.0,0.0,0.0,0.0,0.0,0.4252,0.4298,0.0,0.4314,0.0,0.3862,0.358,0.3084,0.3098,0.0,0.0,0.2327,0.2085,0.1942,0.1688,0.1425,0.1247,0.1073,0.0987,0.0897,0.0718,0.0448,0.0359,-0.0269,-0.0807,-0.0807,-0.0807,-0.0897,-0.0897,-0.0897,-0.0897,-0.0987,-0.1346,-0.1973,-0.2956,-0.3583,-0.43,-0.5186,-0.6074,-0.6962,-0.7852,-0.8644,-0.934,-1.0125,-1.0727,-1.1413,-1.2106,-1.2881,-1.3568,-1.3737,-1.399,-1.425,1.6237,1.5658,1.559,1.5166,1.4398,1.4062,1.3808,1.3808,1.3646,1.3561,1.3483,1.296,1.2443,1.1929,1.1327,1.0895,1.0386,1.0038,0.9602,0.9074,0.8811,0.8464,0.8109,0.8021,0.7929,0.7757,0.7753,0.7757,0.7757,0.7757,0.7757,0.7757,0.7753,0.749,0.6898,0.6632,0.6675,0.7014,0.6973,0.6951,0.7026,0.6803,0.6795,0.6868,0.6945,0.7096,0.7322,0.7488,0.7642,0.771,0.7836,0.7843,0.7586,0.7405,0.7263,0.0,0.0,0.0,0.0,0.0,0.0,0.0,0.0,0.0,0.0,0.0,0.4981,0.4849,0.4703,0.4426,0.4087,0.4038,0.3824,0.3517,0.3171,0.2924,0.2867,0.2511,0.2241,0.2062,0.1883,0.1705,0.1615,0.1346,0.1166,0.0987,0.0448,0.0,-0.0179,-0.0179,-0.0269,-0.0359,-0.0359,-0.0449,-0.0538,-0.0987,-0.1704,-0.2422,-0.3048,-0.3762,-0.4659,-0.5458,-0.6257,-0.7146,-0.794,-0.8644,-0.9519,-1.0294,-1.0982,-1.1585,-1.2448,-1.3137,-1.3646,-1.3822,-1.3997,1.7147,1.6558,1.6335,1.5997,1.5484,1.4894,1.4559,1.4398,1.3984,1.3737,1.3652,1.3045,1.279,1.2705,1.21,1.1591,1.1154,1.0901,1.0376,0.9689,0.9519,0.9345,0.8995,0.8903,0.8811,0.8815,0.8811,0.8811,0.8811,0.8811,0.8807,0.8811,0.8811,0.8636,0.8376,0.7933,0.7654,0.7541,0.7432,0.7439,0.7413,0.7183,0.7096,0.7338,0.7334,0.7561,0.794,0.8097,0.8331,0.8479,0.8708,0.876,0.8558,0.8548,0.8447,0.0,0.816,0.0,0.0,0.0,0.0,0.0,0.0,0.0,0.0,0.5869,0.5609,0.5635,0.5499,0.5308,0.5045,0.4958,0.4748,0.4476,0.4032,0.3764,0.3764,0.3405,0.3045,0.3045,0.2869,0.2603,0.2424,0.2154,0.1884,0.1614,0.1435,0.1076,0.0718,0.0538,0.0269,0.009,0.009,-0.009,-0.0359,-0.0897,-0.1436,-0.1973,-0.2601,-0.3406,-0.4391,-0.5015,-0.5638,-0.6526,-0.7319,-0.8025,-0.8995,-0.9859,-1.0549,-1.1149,-1.1929,-1.279,-1.3392,-1.3652,-1.3815,1.7789,1.7229,1.7147,1.682,1.6229,1.5914,1.5325,1.465,1.4398,1.4068,1.3646,1.3568,1.3307,1.2966,1.2705,1.2272,1.1843,1.1585,1.1068,1.0381,1.0376,1.012,0.9777,0.9772,0.9777,0.9777,0.9685,0.9772,0.9777,0.9777,0.9689,0.9772,0.9777,0.9602,0.934,0.0,0.0,0.0,0.7628,0.7542,0.74,0.7508,0.771,0.7949,0.8097,0.0,0.8551,0.8861,0.9094,0.917,0.9463,0.0,0.0,0.0,0.0,0.0,0.0,0.0,0.0,0.0,0.0,0.0,0.8255,0.7825,0.6816,0.6536,0.6424,0.6367,0.6228,0.613,0.5869,0.5888,0.5727,0.5453,0.5008,0.4743,0.4743,0.4295,0.403,0.403,0.3849,0.3583,0.3318,0.3139,0.2868,0.2598,0.2422,0.2154,0.1885,0.1166,0.0628,0.0538,0.0449,0.0179,-0.0359,-0.0538,-0.0807,-0.1436,-0.1973,-0.2691,-0.3676,-0.4567,-0.5277,-0.608,-0.6792,-0.7496,-0.8288,-0.899,-0.9772,-1.0549,-1.1322,-1.2192,-1.3052,-1.3476,-1.3822,1.8514,1.8023,1.7797,1.7392,0.0,1.6574,1.6072,1.5477,1.4992,1.4489,1.4062,1.3906,1.3737,1.3392,1.3137,1.2875,1.2528,1.2277,1.1843,1.1327,1.1241,1.0982,1.0636,1.0636,1.0641,1.0636,1.0641,1.0641,1.0636,1.0641,1.0641,1.0641,1.0641,1.0467,1.012,0.9864,0.9243,0.828,0.8272,0.8256,0.807,0.819,0.8318,0.8551,0.8708,0.0,0.0,0.0,0.0,0.0,0.0,0.0,0.0,0.0,0.0,1.0214,1.0064,1.0025,0.9959,0.9948,0.9798,0.9392,0.9278,0.8778,0.7612,0.7414,0.7375,0.7378,0.7095,0.6871,0.6786,0.6612,0.6349,0.6257,0.5811,0.5547,0.5544,0.5188,0.501,0.501,0.4743,0.4565,0.4297,0.4119,0.3851,0.3583,0.3227,0.305,0.2871,0.1973,0.1166,0.0987,0.0718,0.0448,0.0179,-0.009,-0.0359,-0.0807,-0.1436,-0.2062,-0.2869,-0.3762,-0.4567,-0.5369,-0.6166,-0.6962,-0.7757,-0.8552,-0.9318,-0.9904,-1.0559,-1.1359,-1.2117,-1.2843,-1.3393,1.9143,1.8825,1.8345,1.7951,1.7554,1.7139,1.673,1.6394,0.0,0.0,0.0,1.4328,1.4075,1.3899,1.3646,1.3476,1.3313,1.2966,1.2613,1.2186,1.2015,1.1757,1.1585,1.158,1.1499,1.1499,1.158,1.158,1.1585,1.158,1.158,1.158,1.158,1.1322,1.089,1.0428,0.9876,0.9247,0.9165,0.9052,0.8825,0.887,0.9003,0.9226,0.9387,0.9544,0.9846,1.0143,1.0368,1.0443,1.0743,1.0962,1.0962,1.1111,1.1204,1.1259,1.1115,1.1076,1.1091,1.0998,1.0817,1.0484,1.0188,0.9616,0.8679,0.8467,0.8372,0.838,0.7929,0.7665,0.7573,0.7319,0.7061,0.6972,0.6615,0.6346,0.6346,0.608,0.5897,0.5897,0.5811,0.5547,0.5275,0.5095,0.4917,0.4563,0.4121,0.3765,0.3587,0.2691,0.1795,0.1436,0.1166,0.0897,0.0718,0.0448,0.009,-0.0269,-0.0897,-0.1524,-0.224,-0.2959,-0.3764,-0.4652,-0.5544,-0.6419,-0.719,-0.7967,-0.8789,-0.9114,-0.9912,-1.06,-1.1053,-1.1936,-1.2768,1.9539,1.9222,1.9143,1.8754,1.8282,1.7951,1.7383,1.6566,1.5733,1.5235,1.5006,1.4741,1.4573,1.4566,1.4314,1.4159,1.3919,1.3659,1.3307,1.2966,1.2881,1.279,1.2528,1.2528,1.2528,1.2534,1.2528,1.2528,1.2528,1.2534,1.2534,1.2534,1.2534,1.2272,1.1826,1.1128,1.0658,1.0361,0.9999,0.9547,0.9229,0.9559,0.9841,0.9986,1.0067,1.0218,1.0588,1.0887,1.1037,1.126,1.1484,1.1558,1.1558,1.1558,1.1746,1.1992,1.2018,1.206,1.2092,1.232,1.2236,1.1793,1.1348,1.0677,0.9822,0.9414,0.917,0.917,0.8727,0.8372,0.8109,0.8025,0.7937,0.7764,0.7492,0.7312,0.7312,0.7048,0.6874,0.6874,0.6877,0.6697,0.634,0.6163,0.5985,0.5542,0.5099,0.4654,0.4121,0.3139,0.2424,0.2064,0.1795,0.1525,0.1166,0.0987,0.0718,0.0,-0.0269,-0.0807,-0.1705,-0.242,-0.3223,-0.3935,-0.4821,-0.5678,-0.6291,-0.7121,-0.7909,-0.8595,-0.937,-1.011,-1.0374,-1.1161,-1.1944,2.022,1.9794,1.9548,1.9231,1.8834,1.8434,1.787,1.7212,1.6722,1.6064,1.5409,1.5318,1.5159,1.4908,1.4824,1.4664,1.4412,1.4153,1.3984,1.3808,1.3724,1.3561,1.3476,1.347,1.3379,1.3222,1.3222,1.3215,1.3045,1.3045,1.3052,1.3052,1.296,1.2796,1.2601,1.2021,1.1529,1.1284,1.0589,1.0121,0.9927,1.0218,1.0519,1.0663,1.0812,1.0962,1.1111,1.1335,1.1484,1.1558,1.1861,1.2003,1.2003,1.2231,1.2513,1.2815,1.2759,1.2882,1.3246,1.3213,1.309,1.2778,1.2443,1.2009,1.1505,1.0554,1.0033,1.0033,0.9598,0.9253,0.8986,0.8815,0.8732,0.8472,0.8201,0.8109,0.8109,0.8017,0.7933,0.7929,0.7929,0.7757,0.7404,0.7228,0.7051,0.6694,0.6163,0.5544,0.501,0.43,0.3583,0.3048,0.2601,0.2241,0.1884,0.1795,0.1436,0.0897,0.0448,-0.009,-0.0897,-0.1613,-0.2407,-0.3175,-0.4047,-0.4884,-0.5472,-0.6373,-0.7062,-0.7678,-0.8515,-0.9231,-0.9689,-1.0537,-1.1499,2.0729,2.0264,1.9882,1.9636,1.9311,1.8834,1.8345,1.7942,1.7708,1.7057,1.6312,1.5982,1.5733,1.5416,1.5416,1.5242,1.4901,1.4734,1.465,1.4643,1.4475,1.4398,1.4412,1.4398,1.423,1.3984,1.399,1.3815,1.373,1.3737,1.373,1.3646,1.3476,1.3392,1.3379,1.28,1.2363,1.2148,1.136,1.0871,1.0749,1.0887,1.1037,1.126,1.1409,1.1477,1.1552,1.1706,1.1855,1.1929,1.2224,1.2452,1.2519,1.2826,1.3142,1.3563,1.3467,1.3655,1.4239,1.4108,1.3899,1.3737,1.347,1.3215,1.296,1.1929,1.1149,1.0895,1.0549,1.0294,0.9946,0.9689,0.9519,0.9257,0.9074,0.8899,0.8899,0.8899,0.8899,0.8899,0.8899,0.8811,0.8552,0.8288,0.7937,0.7492,0.7051,0.652,0.5816,0.5458,0.501,0.4297,0.3673,0.3138,0.2782,0.2603,0.2243,0.1705,0.1256,0.0715,0.0,-0.0712,-0.1412,-0.2339,-0.3272,-0.4008,-0.477,-0.5567,-0.6254,-0.686,-0.7683,-0.8429,-0.9306,-1.0165,-1.1049,2.0818,2.0371,2.0274,1.9951,1.9557,1.9311,1.8984,1.8585,1.8434,1.8121,1.7708,1.6976,1.6476,1.6312,1.6312,1.6064,1.565,1.5567,1.5477,1.5311,1.5311,1.5311,1.5235,1.5075,1.5006,1.4922,1.4734,1.4566,1.4566,1.4566,1.4566,1.4566,1.4398,1.4307,1.4169,1.3507,1.3127,1.3094,1.2474,1.188,1.1335,1.1484,1.1632,1.1626,1.1632,1.1781,1.1929,1.215,1.2298,1.2526,1.2753,1.29,1.3119,1.3193,1.3539,1.4263,1.4243,1.4533,1.5187,1.5061,1.4824,1.4566,1.4398,1.423,1.3997,1.3646,1.296,1.21,1.1677,1.1327,1.0895,1.0636,1.0467,1.0207,1.0033,0.9864,0.9864,0.9859,0.9864,0.9864,0.9859,0.9777,0.9515,0.934,0.8815,0.8025,0.776,0.7411,0.6792,0.6432,0.6166,0.5725,0.4921,0.4119,0.3674,0.3497,0.3135,0.2331,0.2063,0.16,0.0877,0.0174,-0.0432,-0.1356,-0.2274,-0.3088,-0.3936,-0.471,-0.5482,-0.6182,-0.6987,-0.7966,-0.9165,-0.9922,-1.0443,2.1201,2.0498,2.0498,2.0264,2.0029,1.9784,1.9469,1.9231,1.8984,1.8843,1.8514,1.8121,1.7546,1.6976,1.6976,1.6722,1.6319,1.6319,1.6237,1.6147,1.6147,1.6147,1.6147,1.5989,1.5824,1.5673,1.5409,1.5235,1.5144,1.5151,1.5144,1.5061,1.5068,1.4977,1.4928,1.4285,1.3895,1.3874,1.329,1.2893,1.2673,1.2378,1.2305,1.2378,1.2452,1.2445,1.2526,1.2599,1.2746,1.2973,1.3119,1.3411,1.3695,1.3848,1.4205,1.4744,1.5234,1.5648,1.6116,1.6072,1.5906,1.5726,1.5484,1.5325,1.5075,1.4824,1.4398,1.3717,1.2954,1.2277,1.1935,1.1757,1.1505,1.1241,1.1068,1.0987,1.0809,1.0722,1.0722,1.0727,1.0722,1.0722,1.0549,1.0294,0.9689,0.8903,0.8556,0.8204,0.7499,0.7228,0.6874,0.6526,0.6083,0.5455,0.4654,0.4478,0.3922,0.3181,0.2816,0.2357,0.163,0.0937,0.0254,-0.0496,-0.1319,-0.2203,-0.2954,-0.3736,-0.4587,-0.5467,-0.6703,-0.7787,-0.8708,-0.9387,-0.9916,2.1269,2.0625,2.0576,2.0498,2.0342,2.0098,1.9942,1.9803,1.9548,1.9381,1.9231,1.9082,1.8692,1.804,1.7797,1.7465,1.7057,1.7066,1.7066,1.7057,1.7066,1.7049,1.7057,1.6812,1.6566,1.6417,1.6154,1.5899,1.5816,1.5733,1.5733,1.5733,1.5733,1.5726,1.5674,1.5158,1.4851,1.4724,1.4186,1.3953,1.3725,1.3411,1.3112,1.3046,1.3046,1.3046,1.3053,1.3046,1.3193,1.3411,1.363,1.3928,1.4346,1.4569,1.4872,1.5396,1.6126,1.662,1.6895,1.7001,1.6976,1.6804,1.6574,1.6327,1.6064,1.5891,1.556,1.5144,1.4398,1.3633,1.2954,1.279,1.2619,1.2186,1.2106,1.1929,1.1752,1.1666,1.1574,1.1666,1.1671,1.1585,1.1494,1.1149,1.0636,0.9864,0.9428,0.8995,0.8376,0.7933,0.7669,0.7234,0.7146,0.6612,0.5544,0.5188,0.4696,0.4108,0.3561,0.31,0.2351,0.1666,0.0909,0.0162,-0.0565,-0.1284,-0.2139,-0.2989,-0.3921,-0.4927,-0.6086,-0.7326,-0.8021,-0.8703,-0.9276,2.0996,2.0596,2.0576,2.0576,2.0566,2.0342,2.0274,2.0264,1.9942,1.9863,1.9863,1.9784,1.9715,1.9399,1.8674,1.8201,1.7951,1.7959,1.7959,1.7951,1.7951,1.7959,1.787,1.7554,1.731,1.731,1.6894,1.6648,1.6656,1.6648,1.6648,1.664,1.664,1.6648,1.6593,1.6261,1.5937,1.5666,1.5284,1.4959,1.4609,1.4497,1.4137,1.3637,1.3266,1.3346,1.3492,1.3499,1.3637,1.4057,1.4209,1.4569,1.5062,1.5133,1.5505,1.6198,1.6936,1.7363,1.7448,1.7658,1.7853,1.7619,1.7473,1.7221,1.6952,1.6722,1.6558,1.6304,1.5989,1.5318,1.4307,1.3893,1.3561,1.3392,1.313,1.2869,1.2699,1.2425,1.2425,1.2522,1.2619,1.2448,1.2095,1.1929,1.1499,1.0814,1.0381,0.9946,0.9345,0.8899,0.846,0.8193,0.7933,0.7408,0.6346,0.5874,0.547,0.486,0.4278,0.3836,0.3074,0.2354,0.1524,0.0795,0.0079,-0.0632,-0.1416,-0.2354,-0.337,-0.438,-0.5464,-0.6472,-0.7194,-0.7999,-0.8548,2.0977,2.0576,2.0576,2.0576,2.0566,2.0489,2.0498,2.0489,2.0255,2.0186,2.0108,1.9942,1.9872,1.9784,1.9469,1.9143,1.8834,1.8834,1.8754,1.8683,1.8683,1.8603,1.8451,1.821,1.804,1.7959,1.7716,1.7546,1.7554,1.7546,1.7546,1.7546,1.7554,1.7546,1.7488,1.7179,1.6813,1.6463,1.6162,1.5786,1.538,1.5346,1.5267,1.4982,1.4346,1.4065,1.4217,1.4137,1.4217,1.4577,1.4784,1.5133,1.5576,1.5912,1.636,1.6819,1.7258,1.7632,1.8027,1.8161,1.8276,1.8336,1.8121,1.8031,1.7861,1.7708,1.7465,1.7294,1.7057,1.6558,1.6049,1.5228,1.4734,1.4489,1.423,1.3971,1.3795,1.3438,1.3269,1.347,1.3561,1.3379,1.3008,1.2875,1.2534,1.1666,1.1327,1.088,1.0284,0.9767,0.9314,0.896,0.8545,0.8123,0.7436,0.683,0.626,0.5622,0.503,0.4442,0.3774,0.2953,0.2212,0.1501,0.0786,0.0,-0.0785,-0.1883,-0.282,-0.3824,-0.483,-0.5634,-0.6352,-0.7088,-0.7816,2.084,2.0596,2.0576,2.0576,2.0576,2.0576,2.0576,2.0576,2.0489,2.042,2.0333,2.0177,2.0098,2.0098,2.0098,2.002,1.9696,1.9548,1.939,1.9311,1.932,1.924,1.9082,1.8851,1.8763,1.8763,1.8514,1.8425,1.8434,1.8434,1.8434,1.8434,1.8434,1.8425,1.8381,1.8162,1.7856,1.748,1.7169,1.6773,1.6413,1.6254,1.6193,1.6053,1.5488,1.5062,1.4991,1.4856,1.4935,1.5284,1.5497,1.5771,1.6202,1.6612,1.7009,1.7284,1.7574,1.787,1.8275,1.8577,1.8766,1.8873,1.8859,1.8754,1.8763,1.8594,1.8345,1.8184,1.8031,1.7789,1.744,1.6788,1.6139,1.5658,1.5325,1.5068,1.4803,1.4275,1.4103,1.4111,1.4159,1.3926,1.3616,1.3526,1.301,1.2278,1.1949,1.1522,1.0932,1.0424,0.9918,0.9572,0.9199,0.8711,0.817,0.764,0.6927,0.622,0.5603,0.5068,0.4351,0.3618,0.2902,0.2196,0.1412,0.0628,-0.0314,-0.1333,-0.2266,-0.3188,-0.4006,-0.4728,-0.5501,-0.6247,-0.6885,2.0586,2.0576,2.0576,2.0576,2.0576,2.0576,2.0576,2.0576,2.0576,2.0566,2.0566,2.0566,2.0489,2.0566,2.0489,2.0566,2.0411,2.0098,1.9863,1.9872,1.9872,1.9863,1.9794,1.9557,1.9478,1.9478,1.9381,1.9301,1.9222,1.9231,1.9222,1.9301,1.9301,1.9301,1.9301,1.9246,1.9072,1.866,1.8229,1.7853,1.7495,1.7101,1.6899,1.6899,1.6682,1.6324,1.5903,1.563,1.5709,1.607,1.6202,1.6612,1.7028,1.7314,1.748,1.7555,1.7839,1.8057,1.8199,1.875,1.9127,1.9154,1.9375,1.9413,1.9395,1.9362,1.9301,1.9222,1.9073,1.8913,1.8656,1.8336,1.7691,1.664,1.6237,1.6072,1.5651,1.5101,1.4649,1.4604,1.456,1.4245,1.3909,1.3829,1.3539,1.2907,1.2413,1.2097,1.1473,1.0991,1.0426,1.0024,0.9759,0.9322,0.8923,0.8443,0.7648,0.6864,0.6218,0.5595,0.4972,0.4229,0.3606,0.2823,0.1884,0.1021,0.0157,-0.0861,-0.1471,-0.2307,-0.312,-0.3894,-0.4632,-0.535,-0.5997,2.0576,2.0576,2.0576,2.0576,2.0576,2.0576,2.0576,2.0576,2.0576,2.0576,2.0576,2.0576,2.0576,2.0576,2.0576,2.0576,2.0566,2.0411,2.0342,2.0186,2.0186,2.0108,1.9942,1.9863,1.9794,1.9794,1.9784,1.9706,1.9706,1.9696,1.9784,1.9951,2.002,2.0098,2.0167,2.0157,1.9966,1.9554,1.9123,1.8711,1.8299,1.7887,1.7676,1.7666,1.7598,1.7451,1.7314,1.6603,1.6403,1.6621,1.683,1.7028,1.7392,1.7588,1.7657,1.7657,1.7909,1.8081,1.8209,1.8466,1.8708,1.8909,1.9212,1.942,1.964,1.9858,1.9991,2.0167,1.9932,1.9775,1.9539,1.9292,1.8727,1.7627,1.7294,1.692,1.6413,1.5811,1.5373,1.5351,1.5242,1.508,1.4824,1.4724,1.4292,1.3761,1.3376,1.2975,1.2508,1.1921,1.1513,1.1031,1.0594,0.9974,0.9607,0.9144,0.859,0.7774,0.7066,0.6359,0.5662,0.5007,0.4307,0.337,0.2433,0.1489,0.0627,-0.0156,-0.077,-0.1433,-0.2223,-0.298,-0.3703,-0.4426,-0.508,2.0576,2.0576,2.0576,2.0576,2.0576,2.0576,2.0576,2.0576,2.0576,2.0576,2.0576,2.0576,2.0576,2.0576,2.0576,2.0576,2.0576,2.0576,2.0566,2.042,2.042,2.0333,2.0177,2.0186,2.0177,2.0177,2.0255,2.0264,2.0264,2.0333,2.0498,2.0654,2.0731,2.0799,2.0954,2.1021,2.0871,2.0591,2.0202,1.9753,1.9313,1.8874,1.8574,1.8434,1.8405,1.8405,1.8337,1.7842,1.7432,1.7382,1.751,1.7657,1.7872,1.793,1.7988,1.7988,1.8154,1.8281,1.8389,1.8584,1.8679,1.8947,1.9242,1.9538,1.9766,2.0164,2.0552,2.0629,2.0777,2.0634,2.0411,2.0255,1.9719,1.8846,1.8189,1.7656,1.6911,1.638,1.6021,1.5914,1.5848,1.5732,1.5509,1.5359,1.5052,1.4524,1.4146,1.3765,1.3216,1.2665,1.2318,1.1846,1.1313,1.0753,1.028,0.9893,0.9418,0.8727,0.7897,0.713,0.6405,0.578,0.5157,0.407,0.2979,0.2329,0.1471,0.0772,0.0153,-0.0595,-0.137,-0.2124,-0.2853,-0.352,-0.4238,2.0576,2.0576,2.0576,2.0576,2.0576,2.0576,2.0576,2.0576,2.0576,2.0576,2.0576,2.0576,2.0576,2.0576,2.0576,2.0576,2.0576,2.0576,2.0576,2.0566,2.0566,2.0566,2.0489,2.0566,2.0566,2.0576,2.0741,2.0906,2.0896,2.1051,2.1215,2.1282,2.1425,2.1578,2.1655,2.1807,2.1863,2.1759,2.1395,2.0938,2.0512,2.0024,1.9698,1.9291,1.9162,1.9131,1.9131,1.8988,1.8731,1.8202,1.8202,1.8337,1.8482,1.8482,1.8414,1.8472,1.8482,1.8549,1.865,1.8833,1.9133,1.9123,1.9494,1.9827,1.9877,2.0366,2.0788,2.0882,2.1381,2.1562,2.1257,2.1104,2.0665,1.9912,1.8778,1.7863,1.7042,1.6837,1.6687,1.6484,1.6324,1.6272,1.6016,1.5936,1.5564,1.5056,1.4656,1.4325,1.3887,1.3483,1.2942,1.2493,1.2175,1.1658,1.122,1.0831,1.0438,0.976,0.9003,0.8165,0.7169,0.6472,0.5816,0.4663,0.3726,0.3078,0.2283,0.1585,0.0892,0.0144,-0.0562,-0.1243,-0.1983,-0.2717,-0.3387,2.0576,2.0576,2.0576,2.0576,2.0576,2.0576,2.0576,2.0576,2.0576,2.0576,2.0576,2.0576,2.0576,2.0576,2.0576,2.0576,2.0654,2.0644,2.0576,2.0644,2.0741,2.0731,2.0644,2.0741,2.0819,2.0896,2.1061,2.1205,2.1359,2.1436,2.1578,2.1883,2.2101,2.2262,2.2402,2.2553,2.2692,2.2638,2.2239,2.1959,2.17,2.101,2.0547,2.0396,2.0051,1.9868,1.9846,1.9846,1.9518,1.8875,1.8674,1.8674,1.8741,1.8607,1.8607,1.8741,1.8741,1.8808,1.8972,1.9055,1.9127,1.9157,1.9538,1.9774,1.9993,2.055,2.0934,2.1121,2.1677,2.1955,2.1713,2.1565,2.098,1.989,1.9004,1.8241,1.7906,1.7502,1.72,1.7116,1.7157,1.7088,1.7019,1.6802,1.6515,1.6228,1.5816,1.5338,1.4903,1.4394,1.3882,1.3535,1.3127,1.268,1.2238,1.1868,1.1409,1.0812,1.0062,0.9306,0.8156,0.7084,0.6242,0.5272,0.4563,0.3847,0.3034,0.2261,0.1566,0.0979,0.0276,-0.0475,-0.1219,-0.1954,-0.2629,2.0576,2.0576,2.0576,2.0576,2.0576,2.0576,2.0576,2.0576,2.0576,2.0576,2.0576,2.0576,2.0576,2.0576,2.0576,2.0654,2.0741,2.0731,2.0809,2.0896,2.1051,2.1041,2.0964,2.0984,2.1051,2.1205,2.1359,2.1578,2.1883,2.1959,2.2176,2.2478,2.2777,2.3012,2.3075,2.3372,2.3519,2.3475,2.3206,2.3017,2.2737,2.2327,2.171,2.1408,2.0984,2.0794,2.0604,2.056,2.0237,1.966,1.9341,1.9274,1.9274,1.9075,1.9075,1.9208,1.9274,1.9341,1.9462,1.9518,1.9518,1.956,1.9804,1.9889,2.013,2.0687,2.1185,2.1297,2.1981,2.2192,2.205,2.1718,2.107,2.0276,1.9483,1.896,1.8695,1.8398,1.8192,1.8172,1.8172,1.8182,1.8124,1.7833,1.7628,1.7345,1.6932,1.6524,1.6105,1.5525,1.5021,1.4673,1.425,1.3738,1.331,1.2952,1.2372,1.1781,1.1051,1.0312,0.9095,0.7799,0.693,0.6162,0.5371,0.4567,0.3817,0.3044,0.2381,0.1722,0.1017,0.0337,-0.0403,-0.1076,-0.1814,2.0576,2.0576,2.0576,2.0576,2.0576,2.0576,2.0576,2.0576,2.0576,2.0576,2.0566,2.0644,2.0654,2.0644,2.0731,2.0809,2.0896,2.0896,2.1051,2.1282,2.1425,2.1502,2.1512,2.1359,2.1512,2.1665,2.1807,2.2176,2.2478,2.2692,2.2927,2.315,2.3519,2.3666,2.374,2.4043,2.4273,2.42,2.4215,2.3996,2.3756,2.3468,2.2994,2.2266,2.1809,2.1555,2.1314,2.1169,2.0967,2.0302,2.0129,1.9933,1.9933,1.9747,1.9736,1.9868,1.9922,1.9987,2.0172,2.0237,2.0226,2.0248,2.0248,2.0237,2.0434,2.0941,2.1351,2.1363,2.2149,2.2389,2.2173,2.1643,2.1219,2.0797,2.0391,1.9955,1.9518,1.9386,1.9441,1.9431,1.9441,1.9386,1.9264,1.9065,1.8731,1.8442,1.8027,1.7628,1.7207,1.6627,1.621,1.5807,1.5384,1.4816,1.4394,1.4042,1.3397,1.2732,1.1952,1.1101,0.9961,0.8798,0.7868,0.7029,0.632,0.556,0.4752,0.3998,0.3291,0.2593,0.1954,0.1277,0.0538,-0.0134,-0.0806,2.0576,2.0576,2.0576,2.0576,2.0576,2.0576,2.0566,2.0644,2.0576,2.0644,2.0654,2.0731,2.0819,2.0829,2.0974,2.1128,2.1205,2.1205,2.1282,2.1655,2.1873,2.2176,2.2262,2.2111,2.2035,2.2262,2.2402,2.2767,2.3224,2.3372,2.3593,2.3886,2.4189,2.4345,2.4334,2.4562,2.4646,2.4706,2.4754,2.4755,2.4649,2.4457,2.3994,2.3257,2.2415,2.1851,2.167,2.1561,2.1498,2.1233,2.0839,2.0506,2.0324,2.0118,2.0172,2.0377,2.0442,2.0571,2.0903,2.0955,2.0955,2.0955,2.0955,2.0967,2.0955,2.1227,2.1446,2.1516,2.2015,2.2383,2.2252,2.2062,2.1667,2.124,2.1058,2.0955,2.0805,2.0484,2.0226,2.0302,2.0302,2.0237,2.0107,1.9977,1.9715,1.9452,1.9121,1.8721,1.8297,1.7794,1.7404,1.707,1.6594,1.6026,1.5455,1.5013,1.4275,1.3655,1.2885,1.2084,1.0963,0.9924,0.9045,0.8173,0.7384,0.6559,0.5656,0.4947,0.4185,0.3563,0.2887,0.2149,0.1477,0.0806,0.0067,2.0576,2.0566,2.0722,2.0731,2.0731,2.0809,2.0896,2.0886,2.0876,2.0886,2.0886,2.0974,2.1128,2.1215,2.1282,2.1436,2.1655,2.1807,2.2035,2.2252,2.2553,2.2852,2.3075,2.3001,2.3001,2.299,2.3075,2.3457,2.3886,2.4093,2.4299,2.4599,2.4826,2.4969,2.504,2.5194,2.5348,2.5348,2.5394,2.5382,2.5392,2.5281,2.4767,2.4062,2.3095,2.2537,2.2221,2.2197,2.2123,2.1925,2.1663,2.1273,2.0892,2.07,2.0764,2.0944,2.1083,2.121,2.1474,2.1612,2.1675,2.1675,2.1675,2.1675,2.1663,2.1788,2.1839,2.1961,2.2214,2.2468,2.2353,2.2277,2.2025,2.178,2.1675,2.1726,2.1714,2.1325,2.106,2.1187,2.1187,2.1135,2.1008,2.0816,2.056,2.0302,2.0237,1.9835,1.9452,1.8957,1.8643,1.825,1.7794,1.7235,1.6585,1.5913,1.5126,1.4528,1.3878,1.3111,1.2212,1.1213,1.0274,0.927,0.824,0.7336,0.6444,0.5811,0.5147,0.435,0.3687,0.3019,0.2417,0.1813,0.1007,2.0654,2.0731,2.0896,2.0984,2.0984,2.1128,2.1205,2.1205,2.1292,2.1272,2.1282,2.1359,2.1502,2.1589,2.1731,2.1883,2.2252,2.2628,2.2852,2.2852,2.3224,2.3519,2.3751,2.3813,2.3948,2.3886,2.3801,2.4105,2.4527,2.4731,2.4945,2.5158,2.5453,2.5535,2.5676,2.5758,2.584,2.577,2.5828,2.591,2.591,2.5906,2.5413,2.457,2.3759,2.3205,2.2862,2.2715,2.2555,2.2482,2.242,2.2161,2.1714,2.1463,2.1411,2.1526,2.1714,2.1851,2.2049,2.2185,2.2309,2.2309,2.2309,2.2247,2.2309,2.2297,2.2359,2.242,2.2567,2.2616,2.2494,2.2493,2.2481,2.2371,2.2371,2.242,2.2408,2.2149,2.2087,2.2013,2.2013,2.2013,2.1827,2.1639,2.14,2.121,2.1083,2.0955,2.0495,2.0107,1.9704,1.9386,1.8921,1.8259,1.755,1.6701,1.5945,1.5266,1.4637,1.3949,1.3252,1.2432,1.1341,1.003,0.8963,0.8148,0.7456,0.6863,0.6133,0.5279,0.4619,0.4018,0.342,0.2755,0.188,2.0974,2.1128,2.1128,2.1128,2.1205,2.1359,2.1502,2.1512,2.1655,2.1731,2.1731,2.1873,2.1949,2.2101,2.2402,2.2617,2.2927,2.3298,2.3446,2.3519,2.3813,2.4116,2.4334,2.4527,2.4719,2.4874,2.4731,2.4802,2.5099,2.5312,2.5523,2.5676,2.5828,2.5898,2.5898,2.591,2.598,2.598,2.605,2.6144,2.6201,2.622,2.6015,2.5132,2.4337,2.3777,2.338,2.2997,2.2678,2.2678,2.2629,2.2629,2.242,2.2173,2.2111,2.2161,2.2285,2.242,2.2555,2.2739,2.2739,2.2678,2.2739,2.2726,2.2678,2.269,2.2739,2.2739,2.2739,2.2739,2.2787,2.2848,2.2896,2.2896,2.2944,2.2992,2.3027,2.304,2.2957,2.2871,2.2884,2.2775,2.258,2.2396,2.2199,2.1951,2.1827,2.1765,2.1502,2.1112,2.073,2.0409,2.002,1.9299,1.8499,1.756,1.6712,1.5962,1.5325,1.4577,1.399,1.345,1.2445,1.1326,1.0238,0.9408,0.8737,0.8032,0.7256,0.64,0.5741,0.5084,0.4287,0.3553,0.2621,2.1128,2.1359,2.1436,2.1589,2.1655,2.1883,2.2025,2.2111,2.2252,2.2327,2.2402,2.2553,2.2628,2.2767,2.3001,2.3309,2.3677,2.3897,2.4043,2.4116,2.4467,2.4754,2.4897,2.5087,2.5324,2.5548,2.5535,2.5465,2.5606,2.584,2.5968,2.605,2.6119,2.6176,2.6188,2.6258,2.6188,2.6258,2.6258,2.6339,2.6339,2.6465,2.6151,2.5532,2.5146,2.472,2.4317,2.4217,2.3928,2.3727,2.3638,2.3487,2.3203,2.3055,2.286,2.2726,2.2848,2.2969,2.3042,2.3223,2.321,2.321,2.321,2.321,2.321,2.315,2.315,2.315,2.315,2.321,2.3271,2.333,2.345,2.3509,2.3556,2.359,2.3695,2.3826,2.3826,2.3662,2.3603,2.3437,2.3198,2.3078,2.2944,2.2763,2.2641,2.2506,2.2445,2.2125,2.1667,2.1204,2.079,1.9953,1.9091,1.823,1.7362,1.6602,1.5864,1.517,1.4748,1.4279,1.3718,1.2911,1.1881,1.0822,0.9824,0.9064,0.8296,0.7526,0.6732,0.5939,0.5147,0.4284,0.342,2.1436,2.1655,2.1883,2.2101,2.2252,2.2478,2.2703,2.2777,2.2852,2.3001,2.315,2.3224,2.3298,2.3508,2.3728,2.402,2.4406,2.4622,2.4694,2.4766,2.5028,2.5312,2.5453,2.5606,2.5828,2.5923,2.6119,2.6131,2.598,2.6131,2.6201,2.6258,2.6383,2.6521,2.6452,2.6452,2.6521,2.6521,2.6521,2.6533,2.6533,2.6496,2.6332,2.5921,2.594,2.5701,2.5332,2.5179,2.4987,2.4792,2.47,2.4506,2.403,2.3914,2.3684,2.3343,2.345,2.3522,2.3569,2.3688,2.3734,2.3662,2.3721,2.3734,2.3675,2.3628,2.3641,2.3628,2.3628,2.3628,2.3688,2.3865,2.3982,2.4099,2.4144,2.4247,2.4363,2.4478,2.4664,2.4549,2.439,2.4144,2.3956,2.3839,2.378,2.359,2.3399,2.3352,2.328,2.298,2.2518,2.2053,2.1451,2.0586,1.9714,1.8771,1.7945,1.7194,1.6477,1.5723,1.539,1.5069,1.456,1.4085,1.3295,1.2235,1.1135,1.0085,0.932,0.8549,0.7647,0.6798,0.5939,0.5147,0.422,2.1883,2.2035,2.2413,2.2628,2.2703,2.3001,2.3224,2.3224,2.3457,2.3604,2.3824,2.3824,2.3897,2.4105,2.4443,2.4647,2.4957,2.5253,2.5394,2.5394,2.5606,2.5758,2.584,2.6062,2.6131,2.6201,2.6327,2.6339,2.6258,2.6327,2.6465,2.6452,2.6452,2.6521,2.6521,2.6521,2.6521,2.6521,2.6521,2.6521,2.6658,2.6726,2.6731,2.6646,2.6486,2.627,2.609,2.5987,2.5738,2.5621,2.5644,2.5432,2.4988,2.499,2.478,2.4373,2.4086,2.3878,2.4028,2.4131,2.4189,2.4131,2.4189,2.4131,2.4073,2.3982,2.3878,2.3628,2.376,2.3936,2.4099,2.4203,2.4363,2.4549,2.4721,2.4835,2.4892,2.5048,2.523,2.5369,2.5188,2.5018,2.4765,2.4721,2.4593,2.4408,2.4221,2.4176,2.406,2.3754,2.3234,2.2611,2.1994,2.1127,2.019,1.9264,1.8493,1.7763,1.709,1.6368,1.6212,1.5979,1.5642,1.5099,1.4433,1.3597,1.2435,1.1447,1.0521,0.9551,0.8623,0.7678,0.6802,0.5935,0.496,2.1959,2.2327,2.2703,2.3001,2.3224,2.3519,2.3751,2.397,2.4055,2.42,2.4418,2.4418,2.455,2.4814,2.5087,2.5312,2.5535,2.5688,2.5758,2.5828,2.598,2.6062,2.6131,2.627,2.6327,2.6396,2.6452,2.6452,2.6396,2.6452,2.6521,2.6521,2.6521,2.6521,2.6521,2.6521,2.6521,2.6521,2.6589,2.6645,2.6714,2.6918,2.7066,2.7214,2.7076,2.7091,2.7053,2.7221,2.6953,2.6844,2.6863,2.6631,2.6203,2.6062,2.5967,2.5632,2.5449,2.5128,2.4731,2.4664,2.465,2.465,2.465,2.465,2.4536,2.4434,2.4332,2.4203,2.4319,2.4447,2.4505,2.4721,2.4935,2.509,2.5216,2.5342,2.5453,2.5619,2.5798,2.5921,2.599,2.5798,2.5619,2.5439,2.5314,2.5077,2.4951,2.4951,2.4794,2.4637,2.3927,2.311,2.245,2.177,2.0665,1.9696,1.8975,1.826,1.7746,1.7213,1.7043,1.6864,1.6581,1.6171,1.5507,1.466,1.3648,1.2594,1.152,1.0546,0.9574,0.8576,0.7511,0.6383,0.5325,2.2035,2.2402,2.2852,2.3298,2.3666,2.397,2.4273,2.4562,2.4634,2.4778,2.4921,2.5004,2.5194,2.5465,2.5618,2.5828,2.598,2.605,2.605,2.6119,2.6201,2.627,2.6339,2.6396,2.6452,2.6521,2.6452,2.6452,2.6452,2.6521,2.6521,2.6521,2.6521,2.6521,2.6521,2.6521,2.6533,2.6589,2.6658,2.6782,2.6918,2.7188,2.739,2.759,2.7789,2.7973,2.8039,2.8247,2.817,2.803,2.8097,2.792,2.7412,2.7289,2.7134,2.6828,2.6592,2.63,2.5784,2.5479,2.5257,2.523,2.523,2.516,2.5048,2.5005,2.4892,2.4721,2.4821,2.4935,2.4991,2.523,2.5384,2.5591,2.5701,2.5879,2.6042,2.6165,2.6286,2.6408,2.6515,2.6568,2.6379,2.6218,2.6042,2.5742,2.5687,2.5687,2.5508,2.5412,2.4625,2.3748,2.2965,2.2227,2.1146,2.0217,1.9455,1.8875,1.8352,1.8024,1.7941,1.7723,1.7456,1.7043,1.6482,1.576,1.4783,1.3644,1.2482,1.1374,1.0343,0.9308,0.8226,0.6995,0.5751,2.2035,2.2478,2.3001,2.3519,2.3886,2.4273,2.4574,2.4861,2.4957,2.5099,2.5324,2.5618,2.577,2.591,2.605,2.6131,2.6213,2.6396,2.6396,2.6396,2.6465,2.6465,2.6452,2.6452,2.6521,2.6521,2.6521,2.6521,2.6521,2.6521,2.6521,2.6521,2.6521,2.6521,2.6521,2.6521,2.6589,2.6645,2.6726,2.6985,2.7255,2.7523,2.7789,2.817,2.8287,2.8365,2.8509,2.8894,2.898,2.8906,2.9129,2.9133,2.8629,2.8605,2.8387,2.7995,2.7669,2.7398,2.7028,2.6256,2.5853,2.5839,2.5839,2.577,2.5605,2.5467,2.5314,2.5272,2.537,2.5412,2.5481,2.566,2.5934,2.6096,2.6204,2.6312,2.6486,2.6712,2.6832,2.6937,2.6989,2.6937,2.7026,2.6803,2.6698,2.6404,2.6443,2.639,2.6172,2.5955,2.5252,2.4447,2.3605,2.267,2.1577,2.0772,2.0142,1.9691,1.9267,1.898,1.8804,1.8583,1.8305,1.7831,1.7236,1.6632,1.5828,1.4494,1.3217,1.2133,1.1033,0.9829,0.8492,0.7216,0.6045,2.1731,2.2252,2.2703,2.3372,2.4116,2.449,2.4921,2.5265,2.5324,2.5465,2.5688,2.598,2.6062,2.6131,2.627,2.6396,2.6396,2.6465,2.6452,2.6521,2.6521,2.6521,2.6521,2.6521,2.6521,2.6521,2.6521,2.6521,2.6521,2.6521,2.6521,2.6521,2.6521,2.6521,2.6521,2.6521,2.6589,2.6726,2.6998,2.7268,2.7656,2.8052,2.8379,2.8766,2.8931,2.9008,2.9226,2.9401,2.9526,2.9637,2.9837,2.9822,2.9711,2.9729,2.9533,2.9218,2.8871,2.8533,2.7875,2.7079,2.6433,2.6365,2.6365,2.6365,2.6204,2.6136,2.6014,2.596,2.596,2.6,2.6122,2.6244,2.6472,2.6592,2.6698,2.675,2.6907,2.7093,2.7196,2.7248,2.7196,2.7181,2.7284,2.7372,2.7218,2.7115,2.71,2.7086,2.6857,2.6425,2.5747,2.4975,2.4098,2.3167,2.2051,2.1394,2.0809,2.0459,2.0105,1.985,1.9604,1.9328,1.897,1.8489,1.797,1.7247,1.6308,1.5143,1.3941,1.2773,1.1479,1.0096,0.8769,0.7453,0.6454,2.1512,2.2025,2.2553,2.3224,2.4127,2.4574,2.4992,2.5394,2.5618,2.5828,2.6119,2.6188,2.627,2.6327,2.6396,2.6465,2.6452,2.6452,2.6521,2.6521,2.6521,2.6521,2.6521,2.6521,2.6521,2.6521,2.6521,2.6521,2.6521,2.6521,2.6521,2.6521,2.6521,2.6521,2.6521,2.6521,2.6658,2.6863,2.7134,2.759,2.7973,2.8379,2.8844,2.9212,2.9449,2.9623,2.9775,3.0021,3.0129,3.019,3.0387,3.0507,3.0568,3.0644,3.0558,3.0324,3.0043,2.9655,2.8843,2.7703,2.7018,2.693,2.6997,2.6945,2.6841,2.6788,2.6683,2.663,2.6669,2.6721,2.6721,2.6788,2.6855,2.6922,2.7026,2.713,2.7218,2.7386,2.7437,2.7488,2.7488,2.7554,2.7675,2.7775,2.781,2.771,2.7725,2.7695,2.757,2.7016,2.6213,2.5394,2.4509,2.3529,2.2559,2.2072,2.1609,2.1299,2.0944,2.061,2.0321,2.0054,1.9681,1.9282,1.8638,1.7808,1.6831,1.5741,1.4594,1.3383,1.1911,1.0265,0.9314,0.8088,0.7122,2.1436,2.1883,2.2413,2.315,2.3886,2.4345,2.4766,2.5265,2.5688,2.6119,2.6396,2.6452,2.6452,2.6465,2.6452,2.6521,2.6521,2.6521,2.6521,2.6521,2.6521,2.6521,2.6521,2.6521,2.6521,2.6521,2.6521,2.6521,2.6521,2.6521,2.6521,2.6521,2.6521,2.6521,2.6533,2.6658,2.6794,2.7011,2.7323,2.7776,2.8287,2.8688,2.9135,2.9588,2.9884,3.0068,3.0326,3.0507,3.0628,3.0687,3.0881,3.0999,3.1073,3.1132,3.1131,3.1072,3.0711,3.0537,3.0283,2.8449,2.7712,2.759,2.756,2.756,2.7524,2.7488,2.7386,2.7321,2.7269,2.7218,2.7233,2.7233,2.7233,2.7284,2.7386,2.7452,2.7604,2.7655,2.7705,2.7755,2.7855,2.8005,2.8088,2.822,2.8301,2.8301,2.8348,2.8301,2.8225,2.7469,2.6611,2.5925,2.5033,2.4119,2.326,2.2783,2.242,2.2109,2.1779,2.1431,2.1104,2.0772,2.0446,2.0042,1.9208,1.829,1.7375,1.6466,1.5143,1.3711,1.1935,1.0435,0.9555,0.8771,0.7865,2.1205,2.1655,2.1959,2.2553,2.3298,2.4043,2.4622,2.5253,2.584,2.627,2.6452,2.6521,2.6521,2.6521,2.6521,2.6521,2.6521,2.6521,2.6521,2.6521,2.6521,2.6521,2.6521,2.6521,2.6521,2.6521,2.6521,2.6521,2.6521,2.6521,2.6521,2.6521,2.6589,2.6589,2.6589,2.6658,2.6863,2.7188,2.7656,2.8105,2.8766,2.9135,2.9574,3.0205,3.0387,3.0568,3.0762,3.094,3.1058,3.1176,3.1292,3.1409,3.1467,3.1524,3.1655,3.1712,3.1464,3.1349,3.0891,2.9715,2.8725,2.8385,2.8137,2.8137,2.8103,2.8103,2.8054,2.8005,2.789,2.784,2.789,2.779,2.774,2.774,2.7806,2.7806,2.7871,2.792,2.792,2.7955,2.8054,2.8332,2.8462,2.87,2.8826,2.8951,2.8982,2.8936,2.8873,2.7807,2.6826,2.6302,2.5598,2.471,2.397,2.3551,2.3172,2.2875,2.2558,2.2189,2.186,2.1575,2.1237,2.0917,1.9777,1.8721,1.7747,1.6711,1.5405,1.3884,1.2502,1.1258,1.0356,0.9592,0.8771,2.1061,2.1359,2.1665,2.2101,2.2767,2.3604,2.4467,2.5312,2.584,2.6201,2.6396,2.6452,2.6521,2.6521,2.6521,2.6521,2.6521,2.6521,2.6521,2.6521,2.6521,2.6521,2.6521,2.6521,2.6521,2.6521,2.6589,2.6589,2.6671,2.6658,2.6671,2.6739,2.6726,2.6739,2.6739,2.6863,2.7066,2.7456,2.7842,2.8365,2.9022,2.9526,3.0021,3.0462,3.0762,3.0925,3.1176,3.1307,3.1409,3.1509,3.164,3.1754,3.1868,3.191,3.2038,3.1981,3.2089,3.1934,3.1523,3.1248,3.025,2.9406,2.895,2.8636,2.8636,2.8621,2.8636,2.8573,2.8477,2.8429,2.8381,2.822,2.8137,2.8152,2.8152,2.8168,2.8201,2.8201,2.8235,2.8284,2.8365,2.8637,2.892,2.9121,2.935,2.9486,2.9621,2.956,2.9403,2.8211,2.7227,2.6818,2.6091,2.5136,2.4605,2.4313,2.3964,2.3623,2.3319,2.2965,2.2649,2.236,2.2049,2.1655,2.0479,1.9333,1.808,1.6891,1.5813,1.4846,1.3841,1.2561,1.1349,1.045,0.9695,2.0906,2.0974,2.1512,2.1883,2.2262,2.3224,2.4238,2.5312,2.5676,2.5992,2.6201,2.6396,2.6452,2.6452,2.6521,2.6521,2.6521,2.6521,2.6521,2.6521,2.6521,2.6521,2.6521,2.6533,2.6589,2.6658,2.6726,2.6807,2.6956,2.6943,2.6956,2.7024,2.7066,2.7079,2.7146,2.7268,2.7469,2.7709,2.817,2.8688,2.9275,2.9822,3.0266,3.0687,3.0984,3.1278,3.1524,3.164,3.1811,3.194,3.2042,3.2027,3.2053,3.2048,3.2023,3.2135,3.2287,3.2338,3.2316,3.2159,3.1837,3.0846,2.986,2.9419,2.9121,2.9121,2.9121,2.9075,2.892,2.8826,2.8732,2.8605,2.8477,2.8493,2.8444,2.8477,2.8573,2.8605,2.859,2.8669,2.8826,2.9059,2.9396,2.9637,2.9754,2.993,3.0044,3.0087,2.9691,2.854,2.7745,2.7486,2.6654,2.5564,2.513,2.4918,2.4639,2.4297,2.4048,2.3752,2.345,2.3143,2.283,2.2243,2.1166,1.9946,1.8561,1.7458,1.6442,1.552,1.4755,1.3679,1.2376,1.1458,1.0602,2.0741,2.0906,2.1061,2.1436,2.2025,2.3075,2.4093,2.4862,2.5312,2.5758,2.6213,2.627,2.6396,2.6521,2.6521,2.6521,2.6521,2.6521,2.6521,2.6521,2.6521,2.6589,2.6589,2.6658,2.6739,2.6875,2.6943,2.7011,2.7079,2.7146,2.7281,2.7335,2.7536,2.7536,2.7656,2.7855,2.7908,2.8105,2.856,2.9071,2.9588,3.0129,3.0568,3.094,3.1278,3.1509,3.1754,3.1981,3.215,3.2262,3.2358,3.2468,3.2609,3.2664,3.2664,3.2664,3.285,3.3061,3.3085,3.2944,3.2708,3.2299,3.1404,3.0389,2.9932,2.9697,2.9653,2.9499,2.9409,2.9319,2.9273,2.9152,2.9029,2.8982,2.8982,2.8982,2.9013,2.8982,2.8966,2.9167,2.9321,2.9515,2.9798,2.9973,3.0103,3.0316,3.0443,3.051,3.0038,2.8909,2.8244,2.7964,2.7071,2.5959,2.5701,2.5497,2.5246,2.4934,2.4719,2.4436,2.4131,2.3837,2.358,2.2817,2.1655,2.0372,1.9031,1.7958,1.6993,1.6398,1.5632,1.4573,1.349,1.2531,1.1557,2.0654,2.0809,2.0906,2.1282,2.1873,2.2852,2.3655,2.4299,2.5028,2.5535,2.591,2.6144,2.6339,2.6452,2.6521,2.6521,2.6521,2.6521,2.6521,2.6521,2.6521,2.6589,2.6658,2.6726,2.693,2.7079,2.7214,2.7335,2.7416,2.7603,2.7789,2.7855,2.8052,2.8118,2.8183,2.8444,2.8546,2.8675,2.8994,2.9449,2.9946,3.0447,3.0821,3.1234,3.1509,3.1754,3.2038,3.2247,3.2468,3.2633,3.278,3.2888,3.3043,3.3043,3.3096,3.315,3.3293,3.3539,3.3668,3.3728,3.3664,3.3425,3.29,3.2177,3.1188,3.0664,3.0342,3.0044,2.9941,2.9837,2.981,2.9738,2.9665,2.9576,2.9576,2.9531,2.9438,2.9345,2.9483,2.9669,2.9802,2.9989,3.0146,3.0316,3.0443,3.0609,3.0733,3.0814,3.0329,2.9349,2.8743,2.8443,2.7394,2.6293,2.617,2.603,2.5795,2.5535,2.5346,2.5059,2.4799,2.4455,2.4107,2.3201,2.2099,2.0884,1.9786,1.8628,1.768,1.7105,1.6497,1.5576,1.4562,1.3558,1.2541,2.0566,2.0644,2.0819,2.1205,2.1807,2.2402,2.3075,2.3666,2.4671,2.5394,2.5606,2.598,2.627,2.6396,2.6452,2.6521,2.6521,2.6521,2.6521,2.6521,2.6521,2.6589,2.6726,2.6794,2.7066,2.7403,2.7603,2.7723,2.8066,2.8249,2.8287,2.8352,2.856,2.8638,2.878,2.8958,2.9135,2.931,2.9498,2.9822,3.019,3.0628,3.1043,3.1452,3.1754,3.1996,3.2358,3.2617,3.2834,3.3081,3.3256,3.3346,3.3398,3.3398,3.345,3.3555,3.371,3.3899,3.4151,3.4317,3.4343,3.42,3.4063,3.36,3.271,3.1506,3.0948,3.0758,3.0658,3.0417,3.0326,3.03,3.0215,3.0172,3.0113,3.0113,3.0054,2.9995,3.0076,3.0168,3.0222,3.0401,3.0526,3.0692,3.0773,3.0912,3.1032,3.1112,3.0729,2.9808,2.9303,2.8952,2.7956,2.6995,2.6572,2.6469,2.6332,2.6139,2.5888,2.5684,2.5443,2.5026,2.4587,2.3809,2.298,2.1804,2.0681,1.9409,1.8377,1.7774,1.7188,1.6557,1.5664,1.4584,1.3569,2.0576,2.0654,2.0829,2.1128,2.1655,2.2252,2.2777,2.3446,2.4116,2.4826,2.5382,2.5758,2.6062,2.6258,2.6452,2.6521,2.6521,2.6521,2.6521,2.6521,2.6521,2.6671,2.6875,2.6943,2.7268,2.759,2.7921,2.8183,2.856,2.8675,2.8867,2.9058,2.9135,2.9212,2.9352,2.9588,2.9699,2.9884,3.0129,3.0251,3.0507,3.0807,3.1176,3.1567,3.1853,3.2191,3.2563,3.2942,3.3224,3.3503,3.371,3.3797,3.3899,3.3899,3.3899,3.4,3.4084,3.43,3.4497,3.4756,3.4828,3.4843,3.4706,3.4469,3.376,3.242,3.1667,3.1524,3.1364,3.1106,3.0972,3.0931,3.0898,3.0824,3.0749,3.0749,3.0692,3.0667,3.0651,3.0676,3.0667,3.0773,3.0895,3.1015,3.1095,3.123,3.1325,3.1389,3.124,3.0588,2.996,2.9448,2.8647,2.7844,2.7334,2.6978,2.6928,2.6657,2.6385,2.6175,2.6013,2.5619,2.5185,2.4664,2.3889,2.2771,2.1514,2.0016,1.9077,1.8553,1.7854,1.7229,1.66,1.5676,1.4641,2.0576,2.0644,2.0819,2.1061,2.1436,2.1959,2.2478,2.3075,2.3677,2.4334,2.4969,2.5465,2.591,2.6201,2.6396,2.6521,2.6521,2.6521,2.6521,2.6521,2.6521,2.6739,2.6888,2.7092,2.7482,2.7868,2.8392,2.8766,2.8994,2.9233,2.9359,2.956,2.9574,2.9775,2.9913,3.0083,3.0251,3.0387,3.0702,3.0821,3.0866,3.1117,3.1409,3.1739,3.2023,3.2413,3.285,3.3224,3.3591,3.3899,3.4101,3.425,3.4349,3.4366,3.43,3.4349,3.4448,3.4659,3.4804,3.5011,3.5245,3.5227,3.5279,3.5013,3.4999,3.3837,3.3194,3.2998,3.2791,3.257,3.261,3.257,3.227,3.206,3.1907,3.1766,3.1472,3.1134,3.1128,3.1168,3.1134,3.1078,3.1213,3.1269,3.1346,3.1406,3.1538,3.1651,3.1482,3.1401,3.0765,3.0214,2.954,2.8778,2.814,2.7831,2.7614,2.7295,2.6858,2.6607,2.6401,2.6101,2.5746,2.5287,2.4643,2.3784,2.247,2.1068,2.0079,1.9565,1.8689,1.7841,1.7229,1.6612,1.5676,2.0576,2.0654,2.0819,2.0984,2.1205,2.1578,2.2111,2.2703,2.3298,2.3897,2.4562,2.5265,2.577,2.6119,2.6327,2.6452,2.6521,2.6521,2.6521,2.6521,2.6521,2.6739,2.6943,2.7214,2.7669,2.8249,2.883,2.9135,2.9359,2.9608,2.9808,2.9946,3.0083,3.0294,3.0401,3.0568,3.0687,3.0807,3.0999,3.119,3.1292,3.1351,3.1582,3.1868,3.2191,3.2539,3.3027,3.3503,3.3848,3.4201,3.4546,3.4691,3.4756,3.4804,3.4756,3.4756,3.4787,3.4947,3.5041,3.5308,3.5446,3.5503,3.5594,3.5616,3.5596,3.5318,3.4651,3.4432,3.422,3.3916,3.3955,3.3926,3.3567,3.3187,3.2942,3.2579,3.2053,3.1634,3.1596,3.1596,3.1504,3.1449,3.1483,3.1538,3.1614,3.1671,3.1728,3.1802,3.1877,3.1881,3.1586,3.1288,3.0902,3.0062,2.9047,2.8648,2.8363,2.7712,2.7279,2.7021,2.6758,2.647,2.6191,2.5908,2.5241,2.4542,2.3713,2.2506,2.1576,2.0555,1.9701,1.8782,1.7854,1.7242,1.6582,2.0576,2.0634,2.0644,2.0819,2.0974,2.1436,2.1883,2.2478,2.3075,2.374,2.4406,2.4897,2.5394,2.598,2.6131,2.6327,2.6521,2.6521,2.6521,2.6521,2.6521,2.6739,2.7011,2.7335,2.7908,2.856,2.9149,2.9526,2.9747,3.0007,3.0326,3.0447,3.0582,3.0717,3.0895,3.0999,3.1073,3.1176,3.1292,3.1409,3.1597,3.164,3.1682,3.1951,3.2342,3.2796,3.3224,3.3658,3.4101,3.4546,3.4963,3.5088,3.5135,3.5152,3.5105,3.5058,3.5135,3.5182,3.5337,3.5446,3.552,3.5549,3.5639,3.579,3.5864,3.6028,3.5656,3.5763,3.5444,3.4756,3.4655,3.4769,3.4526,3.4123,3.3789,3.3054,3.2388,3.2107,3.1984,3.193,3.1841,3.1804,3.1802,3.1839,3.1912,3.1984,3.2055,3.2126,3.2214,3.23,3.2334,3.2172,3.1956,3.0864,2.9651,2.94,2.907,2.8328,2.77,2.7404,2.7117,2.6841,2.659,2.6264,2.5933,2.535,2.4487,2.3623,2.2555,2.15,2.0676,1.9808,1.8753,1.7894,1.7284]}]]